[[{"header":{"parameterUnit":"m.s-1","parameterCategory":1,"la1":30.6,"la2":28.766,"lo1":-90.7593,"lo2":-88.6598,"dy":0.0162,"dx":0.0183,"nx":116,"ny":114,"refTime":"2023-04-24T18:00:00:Z","depth":0,"parameterNumber":2,"parameterNumberName":"U-component_of_WINDS"},"data":[0.0,0.0,0.0,0.0,0.0,0.0,0.0,0.0,0.0,0.0,0.0,0.0,0.0,0.0,0.0,0.0,0.0,0.0,0.0,0.0,0.0,0.0,0.0,0.0,0.0,0.0,0.0,0.0,0.0,0.0,0.0,0.0,0.0,0.0,0.0,0.0,0.0,0.0,0.0,0.0,0.0,0.0,0.0,0.0,0.0,0.0,0.0,0.0,0.0,0.0,0.0,0.0,0.0,0.0,0.0,0.0,0.0,0.0,0.0,0.0,0.0,0.0,0.0,0.0,0.0,0.0,0.0,0.0,0.0,0.0,0.0,0.0,0.0,0.0,0.0,0.0,0.0,0.0,0.0,0.0,0.0,0.0,0.0,0.0,0.0,0.0,0.0,0.0,0.0,0.0,0.0,0.0,0.0,0.0,0.0,0.0,0.0,0.0,0.0,0.0,0.0,0.0,0.0,0.0,0.0,0.0,0.0,0.0,0.0,0.0,0.0,0.0,0.0,0.0,0.0,0.0,0.0,0.0,0.0,0.0,0.0,0.0,0.0,0.0,0.0,0.0,0.0,0.0,0.0,0.0,0.0,0.0,0.0,0.0,0.0,0.0,0.0,0.0,0.0,0.0,0.0,0.0,0.0,0.0,0.0,0.0,0.0,0.0,0.0,0.0,0.0,0.0,0.0,0.0,0.0,0.0,0.0,0.0,0.0,0.0,0.0,0.0,0.0,0.0,0.0,0.0,0.0,0.0,0.0,0.0,0.0,0.0,0.0,0.0,0.0,0.0,0.0,0.0,0.0,0.0,0.0,0.0,0.0,0.0,0.0,0.0,0.0,0.0,0.0,0.0,0.0,0.0,0.0,0.0,0.0,0.0,0.0,0.0,0.0,0.0,0.0,0.0,0.0,0.0,0.0,0.0,0.0,0.0,0.0,0.0,0.0,0.0,0.0,0.0,0.0,0.0,0.0,0.0,0.0,0.0,0.0,0.0,0.0,0.0,0.0,0.0,0.0,0.0,0.0,0.0,0.0,0.0,0.0,0.0,0.0,0.0,0.0,0.0,0.0,0.0,0.0,0.0,0.0,0.0,0.0,0.0,0.0,0.0,0.0,0.0,0.0,0.0,0.0,0.0,0.0,0.0,0.0,0.0,0.0,0.0,0.0,0.0,0.0,0.0,0.0,0.0,0.0,0.0,0.0,0.0,0.0,0.0,0.0,0.0,0.0,0.0,0.0,0.0,0.0,0.0,0.0,0.0,0.0,0.0,0.0,0.0,0.0,0.0,0.0,0.0,0.0,0.0,0.0,0.0,0.0,0.0,0.0,0.0,0.0,0.0,0.0,0.0,0.0,0.0,0.0,0.0,0.0,0.0,0.0,0.0,0.0,0.0,0.0,0.0,0.0,0.0,0.0,0.0,0.0,0.0,0.0,0.0,0.0,0.0,0.0,0.0,0.0,0.0,0.0,0.0,0.0,0.0,0.0,0.0,0.0,0.0,0.0,0.0,0.0,0.0,0.0,0.0,0.0,0.0,0.0,0.0,0.0,0.0,0.0,0.0,0.0,0.0,0.0,0.0,0.0,0.0,0.0,0.0,0.0,0.0,0.0,0.0,0.0,0.0,0.0,0.0,0.0,0.0,0.0,0.0,0.0,0.0,0.0,0.0,0.0,0.0,0.0,0.0,0.0,0.0,0.0,0.0,0.0,0.0,0.0,0.0,0.0,0.0,0.0,0.0,0.0,0.0,0.0,0.0,0.0,0.0,0.0,0.0,0.0,0.0,0.0,0.0,0.0,0.0,0.0,0.0,0.0,0.0,0.0,0.0,0.0,0.0,0.0,0.0,0.0,0.0,0.0,0.0,0.0,0.0,0.0,0.0,0.0,0.0,0.0,0.0,0.0,0.0,0.0,0.0,0.0,0.0,0.0,0.0,0.0,0.0,0.0,0.0,0.0,0.0,0.0,0.0,0.0,0.0,0.0,0.0,0.0,0.0,0.0,0.0,0.0,0.0,0.0,0.0,0.0,0.0,0.0,0.0,0.0,0.0,0.0,0.0,0.0,0.0,0.0,0.0,0.0,0.0,0.0,0.0,0.0,0.0,0.0,0.0,0.0,0.0,0.0,0.0,0.0,0.0,0.0,0.0,0.0,0.0,0.0,0.0,0.0,0.0,0.0,0.0,0.0,0.0,0.0,0.0,0.0,0.0,0.0,0.0,0.0,0.0,0.0,0.0,0.0,0.0,0.0,0.0,0.0,0.0,0.0,0.0,0.0,0.0,0.0,0.0,0.0,0.0,0.0,0.0,0.0,0.0,0.0,0.0,0.0,0.0,0.0,0.0,0.0,0.0,0.0,0.0,0.0,0.0,0.0,0.0,0.0,0.0,0.0,0.0,0.0,0.0,0.0,0.0,0.0,0.0,0.0,0.0,0.0,0.0,0.0,0.0,0.0,0.0,0.0,0.0,0.0,0.0,0.0,0.0,0.0,0.0,0.0,0.0,0.0,0.0,0.0,0.0,0.0,0.0,0.0,0.0,0.0,0.0,0.0,0.0,0.0,0.0,0.0,0.0,0.0,0.0,0.0,0.0,0.0,0.0,0.0,0.0,0.0,0.0,0.0,0.0,0.0,0.0,0.0,0.0,0.0,0.0,0.0,0.0,0.0,0.0,0.0,0.0,0.0,0.0,0.0,0.0,0.0,0.0,0.0,0.0,0.0,0.0,0.0,0.0,0.0,0.0,0.0,0.0,0.0,0.0,0.0,0.0,0.0,0.0,0.0,0.0,0.0,0.0,0.0,0.0,0.0,0.0,0.0,0.0,0.0,0.0,0.0,0.0,0.0,0.0,0.0,0.0,0.0,0.0,0.0,0.0,0.0,0.0,0.0,0.0,0.0,0.0,0.0,0.0,0.0,0.0,0.0,0.0,0.0,0.0,0.0,0.0,0.0,0.0,0.0,0.0,0.0,0.0,0.0,0.0,0.0,0.0,0.0,0.0,0.0,0.0,0.0,0.0,0.0,0.0,0.0,0.0,0.0,0.0,0.0,0.0,0.0,0.0,0.0,0.0,0.0,0.0,0.0,0.0,0.0,0.0,0.0,0.0,0.0,0.0,0.0,0.0,0.0,0.0,0.0,0.0,0.0,0.0,0.0,0.0,0.0,0.0,0.0,0.0,0.0,0.0,0.0,0.0,0.0,0.0,0.0,0.0,0.0,0.0,0.0,0.0,0.0,0.0,0.0,0.0,0.0,0.0,0.0,0.0,0.0,0.0,0.0,0.0,0.0,0.0,0.0,0.0,0.0,0.0,0.0,0.0,0.0,0.0,0.0,0.0,0.0,0.0,0.0,0.0,0.0,0.0,0.0,0.0,0.0,0.0,0.0,0.0,0.0,0.0,0.0,0.0,0.0,0.0,0.0,0.0,0.0,0.0,0.0,0.0,0.0,0.0,0.0,0.0,0.0,0.0,0.0,0.0,0.0,0.0,0.0,0.0,0.0,0.0,0.0,0.0,0.0,0.0,0.0,0.0,0.0,0.0,0.0,0.0,0.0,0.0,0.0,0.0,0.0,0.0,0.0,0.0,0.0,0.0,0.0,0.0,0.0,0.0,0.0,0.0,0.0,0.0,0.0,0.0,0.0,0.0,0.0,0.0,0.0,0.0,0.0,0.0,0.0,0.0,0.0,0.0,0.0,0.0,0.0,0.0,0.0,0.0,0.0,0.0,0.0,0.0,0.0,0.0,0.0,0.0,0.0,0.0,0.0,0.0,0.0,0.0,0.0,0.0,0.0,0.0,0.0,0.0,0.0,0.0,0.0,0.0,0.0,0.0,0.0,0.0,0.0,0.0,0.0,0.0,0.0,0.0,0.0,0.0,0.0,0.0,0.0,0.0,0.0,0.0,0.0,0.0,0.0,0.0,0.0,0.0,0.0,0.0,0.0,0.0,0.0,0.0,0.0,0.0,0.0,0.0,0.0,0.0,0.0,0.0,0.0,0.0,0.0,0.0,0.0,0.0,0.0,0.0,0.0,0.0,0.0,0.0,0.0,0.0,0.0,0.0,0.0,0.0,0.0,0.0,0.0,0.0,0.0,0.0,0.0,0.0,0.0,0.0,0.0,0.0,0.0,0.0,0.0,0.0,0.0,0.0,0.0,0.0,0.0,0.0,0.0,0.0,0.0,0.0,0.0,0.0,0.0,0.0,0.0,0.0,0.0,0.0,0.0,0.0,0.0,0.0,0.0,0.0,0.0,0.0,0.0,0.0,0.0,0.0,0.0,0.0,0.0,0.0,0.0,0.0,0.0,0.0,0.0,0.0,0.0,0.0,0.0,0.0,0.0,0.0,0.0,0.0,0.0,0.0,0.0,0.0,0.0,0.0,0.0,0.0,0.0,0.0,0.0,0.0,0.0,0.0,0.0,0.0,0.0,0.0,0.0,0.0,0.0,0.0,0.0,0.0,0.0,0.0,0.0,0.0,0.0,0.0,0.0,0.0,0.0,0.0,0.0,0.0,0.0,0.0,0.0,0.0,0.0,0.0,0.0,0.0,0.0,0.0,0.0,0.0,0.0,0.0,0.0,0.0,0.0,0.0,0.0,0.0,0.0,0.0,0.0,0.0,0.0,0.0,0.0,0.0,0.0,0.0,0.0,0.0,0.0,0.0,0.0,0.0,0.0,0.0,0.0,0.0,0.0,0.0,0.0,0.0,0.0,0.0,0.0,0.0,0.0,0.0,0.0,0.0,0.0,0.0,0.0,0.0,0.0,0.0,0.0,0.0,0.0,0.0,0.0,0.0,0.0,0.0,0.0,0.0,0.0,0.0,0.0,0.0,0.0,0.0,0.0,0.0,0.0,0.0,0.0,0.0,0.0,0.0,0.0,0.0,0.0,0.0,0.0,0.0,0.0,0.0,0.0,0.0,0.0,0.0,0.0,0.0,0.0,0.0,0.0,0.0,0.0,0.0,0.0,0.0,0.0,0.0,0.0,0.0,0.0,0.0,0.0,0.0,0.0,0.0,0.0,0.0,0.0,0.0,0.0,0.0,0.0,0.0,0.0,0.0,0.0,0.0,0.0,0.0,0.0,0.0,0.0,0.0,0.0,0.0,0.0,0.0,0.0,0.0,0.0,0.0,0.0,0.0,0.0,0.0,0.0,0.0,0.0,0.0,0.0,0.0,0.0,0.0,0.0,0.0,0.0,0.0,0.0,0.0,0.0,0.0,0.0,0.0,0.0,0.0,0.0,0.0,0.0,0.0,0.0,0.0,0.0,0.0,0.0,0.0,0.0,0.0,0.0,0.0,0.0,0.0,0.0,0.0,0.0,0.0,0.0,0.0,0.0,0.0,0.0,0.0,0.0,0.0,0.0,0.0,0.0,0.0,0.0,0.0,0.0,0.0,0.0,0.0,0.0,0.0,0.0,0.0,0.0,0.0,0.0,0.0,0.0,0.0,0.0,0.0,0.0,0.0,0.0,0.0,0.0,0.0,0.0,0.0,0.0,0.0,0.0,0.0,0.0,0.0,0.0,0.0,0.0,0.0,0.0,0.0,0.0,0.0,0.0,0.0,0.0,0.0,0.0,0.0,0.0,0.0,0.0,0.0,0.0,0.0,0.0,0.0,0.0,0.0,0.0,0.0,0.0,0.0,0.0,0.0,0.0,0.0,0.0,0.0,0.0,0.0,0.0,0.0,0.0,0.0,0.0,0.0,0.0,0.0,0.0,0.0,0.0,0.0,0.0,0.0,0.0,0.0,0.0,0.0,0.0,0.0,0.0,0.0,0.0,0.0,0.0,0.0,0.0,0.0,0.0,0.0,0.0,0.0,0.0,0.0,0.0,0.0,0.0,0.0,0.0,0.0,0.0,0.0,0.0,0.0,0.0,0.0,0.0,0.0,0.0,0.0,0.0,0.0,0.0,0.0,0.0,0.0,0.0,0.0,0.0,0.0,0.0,0.0,0.0,0.0,0.0,0.0,0.0,0.0,0.0,0.0,0.0,0.0,0.0,0.0,0.0,0.0,0.0,0.0,0.0,0.0,0.0,0.0,0.0,0.0,0.0,0.0,0.0,0.0,0.0,0.0,0.0,0.0,0.0,0.0,0.0,0.0,0.0,0.0,0.0,0.0,2.666,0.0,0.0,0.0,0.0,0.0,0.0,0.0,0.0,0.0,0.0,0.0,0.0,0.0,0.0,0.0,0.0,0.0,0.0,0.0,0.0,0.0,0.0,0.0,0.0,0.0,0.0,0.0,0.0,0.0,0.0,0.0,0.0,0.0,0.0,0.0,0.0,0.0,0.0,0.0,0.0,0.0,0.0,0.0,0.0,0.0,0.0,0.0,0.0,0.0,0.0,0.0,0.0,0.0,0.0,0.0,0.0,0.0,0.0,0.0,0.0,0.0,0.0,0.0,0.0,0.0,0.0,0.0,0.0,0.0,0.0,0.0,0.0,0.0,0.0,0.0,0.0,0.0,0.0,0.0,0.0,0.0,0.0,0.0,0.0,0.0,0.0,0.0,0.0,0.0,0.0,0.0,0.0,0.0,0.0,0.0,0.0,0.0,0.0,0.0,0.0,0.0,0.0,0.0,0.0,0.0,0.0,0.0,0.0,0.0,0.0,0.0,0.0,0.0,0.0,0.0,0.0,2.5358,0.0,0.0,0.0,0.0,0.0,0.0,0.0,0.0,0.0,0.0,0.0,0.0,0.0,0.0,0.0,0.0,0.0,0.0,0.0,0.0,0.0,0.0,0.0,0.0,0.0,0.0,0.0,0.0,0.0,0.0,0.0,0.0,0.0,0.0,0.0,0.0,0.0,0.0,0.0,0.0,0.0,0.0,0.0,0.0,0.0,0.0,0.0,0.0,0.0,0.0,0.0,0.0,0.0,0.0,0.0,0.0,0.0,0.0,0.0,0.0,0.0,0.0,0.0,0.0,0.0,0.0,0.0,0.0,0.0,0.0,0.0,0.0,0.0,0.0,0.0,0.0,0.0,0.0,0.0,0.0,0.0,0.0,0.0,0.0,0.0,0.0,0.0,0.0,0.0,0.0,0.0,0.0,0.0,0.0,0.0,0.0,0.0,0.0,0.0,0.0,0.0,0.0,0.0,0.0,0.0,0.0,0.0,0.0,2.5554,2.5769,2.6594,2.4094,2.3947,2.5682,2.4879,2.4886,2.5606,2.3052,0.0,0.0,0.0,0.0,0.0,0.0,0.0,0.0,0.0,0.0,0.0,0.0,0.0,0.0,0.0,0.0,0.0,0.0,0.0,0.0,0.0,0.0,0.0,0.0,0.0,0.0,0.0,0.0,0.0,0.0,0.0,0.0,0.0,0.0,0.0,0.0,0.0,0.0,0.0,0.0,0.0,0.0,0.0,0.0,0.0,0.0,0.0,0.0,0.0,0.0,0.0,0.0,0.0,0.0,0.0,0.0,0.0,0.0,0.0,0.0,0.0,0.0,0.0,0.0,0.0,0.0,0.0,0.0,0.0,0.0,0.0,0.0,0.0,0.0,0.0,0.0,0.0,0.0,0.0,0.0,0.0,0.0,0.0,0.0,0.0,0.0,2.5024,2.5062,0.0,0.0,0.0,0.0,0.0,0.0,0.0,0.0,0.0,0.0,0.0,0.0,0.0,2.5612,2.5699,2.6962,2.6897,2.5647,2.6259,2.6099,2.4925,2.4488,2.4674,2.5187,2.365,0.0,2.2691,2.255,0.0,0.0,0.0,0.0,0.0,0.0,0.0,0.0,0.0,0.0,0.0,0.0,0.0,0.0,0.0,0.0,0.0,0.0,0.0,0.0,0.0,0.0,0.0,0.0,0.0,0.0,0.0,0.0,0.0,0.0,0.0,0.0,0.0,0.0,0.0,0.0,0.0,0.0,0.0,0.0,0.0,0.0,0.0,0.0,2.306,2.2642,0.0,0.0,0.0,0.0,0.0,0.0,0.0,0.0,0.0,0.0,0.0,0.0,0.0,0.0,0.0,0.0,0.0,0.0,0.0,0.0,0.0,0.0,0.0,0.0,0.0,0.0,0.0,0.0,0.0,0.0,0.0,0.0,0.0,0.0,0.0,0.0,0.0,0.0,0.0,2.491,2.5358,2.5231,2.4795,2.4634,0.0,0.0,0.0,0.0,0.0,0.0,0.0,0.0,0.0,2.5961,2.6335,2.6803,2.7391,2.7354,2.6885,2.6161,2.4834,2.4429,2.4569,2.2955,2.2806,2.3844,2.2682,2.2108,2.1867,2.1565,2.0669,1.9715,0.0,0.0,0.0,0.0,1.8379,1.8271,0.0,0.0,0.0,0.0,0.0,0.0,0.0,0.0,0.0,0.0,0.0,0.0,0.0,0.0,0.0,2.0351,0.0,0.0,0.0,0.0,0.0,0.0,0.0,0.0,0.0,0.0,0.0,0.0,0.0,0.0,0.0,0.0,0.0,0.0,0.0,0.0,2.38,2.3488,2.3129,0.0,0.0,0.0,0.0,0.0,0.0,0.0,0.0,0.0,0.0,0.0,0.0,0.0,0.0,0.0,0.0,0.0,0.0,0.0,0.0,0.0,0.0,0.0,0.0,0.0,0.0,0.0,0.0,0.0,0.0,0.0,0.0,0.0,0.0,0.0,0.0,0.0,0.0,2.5352,2.5707,2.5274,2.518,2.5117,0.0,0.0,0.0,0.0,0.0,0.0,2.5381,2.5461,2.5945,2.6914,2.6964,2.7414,2.8177,2.6923,2.6057,2.5618,2.3252,2.2664,2.3542,2.1481,2.1187,2.2533,2.1954,2.1816,2.178,2.1096,2.0816,2.0882,2.021,1.9686,1.9397,1.9362,1.9152,1.9082,0.0,0.0,0.0,0.0,0.0,0.0,0.0,0.0,0.0,0.0,0.0,0.0,0.0,0.0,2.0385,2.042,2.0067,1.9815,0.0,0.0,0.0,0.0,0.0,0.0,0.0,0.0,0.0,0.0,0.0,0.0,0.0,0.0,0.0,0.0,0.0,0.0,0.0,2.4174,2.37,2.2944,0.0,0.0,0.0,0.0,0.0,0.0,0.0,0.0,0.0,0.0,0.0,0.0,0.0,0.0,0.0,0.0,0.0,0.0,0.0,0.0,0.0,0.0,0.0,0.0,0.0,0.0,0.0,0.0,0.0,0.0,0.0,0.0,0.0,0.0,0.0,0.0,0.0,0.0,0.0,2.5715,2.6207,0.0,0.0,0.0,0.0,2.5588,2.531,2.5413,2.6057,2.6414,2.693,2.7653,2.6911,2.6413,2.6457,2.5305,2.3986,2.2372,2.2223,2.1631,2.0742,2.0592,2.0898,2.1816,2.1666,2.1966,2.2259,2.2235,2.177,2.1076,2.1052,2.0575,1.9861,2.0343,2.045,2.039,0.0,0.0,0.0,0.0,0.0,0.0,0.0,0.0,0.0,0.0,0.0,0.0,0.0,2.0503,2.1026,2.1425,2.1582,2.1292,2.0662,0.0,0.0,0.0,0.0,0.0,0.0,0.0,0.0,0.0,0.0,0.0,0.0,0.0,0.0,0.0,0.0,0.0,0.0,2.4542,2.4037,2.338,2.2659,2.1759,0.0,0.0,0.0,0.0,0.0,0.0,0.0,0.0,0.0,0.0,0.0,0.0,0.0,0.0,0.0,0.0,0.0,0.0,0.0,0.0,0.0,0.0,0.0,0.0,0.0,0.0,0.0,0.0,0.0,0.0,0.0,0.0,0.0,0.0,0.0,0.0,0.0,2.6017,2.6184,0.0,2.585,2.5906,2.5571,2.4653,2.4817,2.4782,2.426,2.4388,2.4737,2.5371,2.5027,2.4946,2.5292,2.3793,2.2812,2.2223,2.1481,2.0887,2.0447,2.1054,2.136,2.1666,2.1966,2.2109,2.2259,2.2259,2.209,2.183,2.183,2.1516,2.1018,2.1149,2.1143,2.1043,0.0,0.0,0.0,0.0,0.0,0.0,0.0,0.0,0.0,0.0,0.0,1.9496,2.0482,2.1376,2.2032,2.2445,2.2487,2.231,2.153,0.0,0.0,0.0,0.0,0.0,0.0,0.0,0.0,0.0,0.0,0.0,0.0,0.0,0.0,0.0,0.0,0.0,0.0,2.4734,2.4353,2.3925,2.3088,2.241,2.1669,0.0,0.0,0.0,0.0,0.0,0.0,0.0,0.0,0.0,0.0,0.0,0.0,0.0,0.0,0.0,0.0,0.0,0.0,0.0,0.0,0.0,0.0,0.0,0.0,0.0,0.0,0.0,0.0,0.0,0.0,0.0,0.0,0.0,0.0,0.0,2.5827,2.537,2.5092,2.49,2.4577,2.484,2.4634,2.3698,2.4047,2.4017,2.324,2.3434,2.3579,2.4115,2.3786,2.3644,2.3838,2.2521,2.1637,2.1481,2.0737,2.0597,2.0753,2.121,2.1666,2.1966,2.2109,2.2259,2.2259,2.2259,2.2313,2.2386,2.2295,2.2109,2.1822,2.176,2.1684,2.1554,0.0,0.0,0.0,0.0,0.0,0.0,0.0,0.0,0.0,0.0,0.0,0.0,2.1152,2.2364,2.3106,2.3113,2.2738,2.248,2.2083,2.1278,0.0,0.0,0.0,0.0,0.0,0.0,0.0,0.0,0.0,0.0,0.0,0.0,0.0,0.0,0.0,0.0,0.0,0.0,2.461,2.4548,2.3534,2.3097,2.2976,0.0,0.0,0.0,0.0,0.0,0.0,0.0,0.0,0.0,0.0,0.0,0.0,0.0,0.0,0.0,0.0,0.0,0.0,0.0,0.0,0.0,0.0,0.0,0.0,0.0,0.0,0.0,0.0,0.0,0.0,0.0,0.0,0.0,2.5502,2.4932,2.4174,2.3428,2.3105,2.2706,2.2418,2.2645,2.2826,2.2696,2.2955,2.3121,2.314,2.3522,2.3832,2.3839,2.3107,2.2521,2.2223,2.1504,2.0759,2.0,2.0296,2.0753,2.1066,2.1066,2.1516,2.2259,2.2259,2.2259,2.2259,2.2271,2.2422,2.2627,2.2374,2.2277,2.2319,2.2112,2.2048,2.2083,0.0,0.0,0.0,0.0,0.0,0.0,0.0,0.0,0.0,0.0,0.0,0.0,2.174,2.1756,2.1985,2.2606,2.2606,2.2164,2.1107,0.0,0.0,0.0,0.0,0.0,0.0,0.0,0.0,0.0,0.0,0.0,0.0,0.0,0.0,0.0,0.0,0.0,0.0,0.0,2.461,2.4587,2.3786,2.326,2.3095,0.0,0.0,0.0,0.0,0.0,0.0,0.0,0.0,0.0,0.0,0.0,0.0,0.0,0.0,0.0,0.0,0.0,0.0,0.0,0.0,0.0,0.0,0.0,0.0,0.0,0.0,0.0,0.0,0.0,0.0,0.0,0.0,2.3133,2.4647,2.394,2.3181,2.3017,2.2808,2.2786,2.2706,2.2772,2.2494,2.1595,2.1536,2.1333,2.0577,2.0874,2.1325,2.1513,2.1458,2.1504,2.1354,2.121,2.0915,2.0759,2.121,2.136,2.1516,2.181,2.2109,2.2259,2.2259,2.2259,2.2277,2.2464,2.2585,2.2645,2.2573,2.2663,2.2838,2.2751,2.2781,2.2787,0.0,0.0,0.0,0.0,0.0,0.0,0.0,0.0,0.0,0.0,0.0,0.0,2.1853,2.1734,2.1859,2.2738,2.2248,2.1561,2.0967,0.0,0.0,0.0,0.0,0.0,0.0,0.0,0.0,0.0,0.0,0.0,0.0,0.0,0.0,0.0,0.0,0.0,0.0,0.0,2.461,2.4363,2.3984,2.3796,2.3723,2.3563,2.3748,2.3909,2.4241,2.4125,2.3944,2.4079,0.0,0.0,0.0,0.0,0.0,0.0,0.0,0.0,0.0,0.0,0.0,0.0,0.0,0.0,0.0,0.0,0.0,0.0,0.0,0.0,0.0,0.0,0.0,0.0,2.1476,2.1693,2.2674,2.2303,2.1865,2.1865,2.1314,2.0943,2.1059,2.1065,2.0907,2.0186,2.0445,2.0352,1.9779,2.0186,2.0607,2.0748,2.1216,2.1216,2.1066,2.1366,2.1366,2.1066,2.1516,2.1666,2.1666,2.1966,2.2109,2.2265,2.2223,2.212,2.2138,2.2248,2.2425,0.0,0.0,0.0,0.0,0.0,2.2815,2.2589,0.0,0.0,0.0,0.0,0.0,0.0,0.0,0.0,0.0,0.0,0.0,0.0,2.2103,2.223,2.2334,2.301,2.1711,2.0941,0.0,0.0,0.0,0.0,0.0,0.0,0.0,0.0,0.0,0.0,0.0,0.0,0.0,0.0,0.0,0.0,0.0,0.0,0.0,0.0,2.4734,2.4232,2.4154,2.4298,2.4538,2.4325,2.465,2.5161,2.5313,2.5294,2.5222,2.5222,0.0,0.0,0.0,0.0,0.0,0.0,0.0,0.0,0.0,0.0,0.0,0.0,0.0,0.0,0.0,0.0,0.0,0.0,0.0,0.0,0.0,0.0,0.0,0.0,2.0978,2.0352,2.0352,2.0382,2.0388,2.0358,1.9284,1.8557,1.8762,1.881,1.8923,1.9171,1.9817,2.0245,2.0273,0.0,0.0,0.0,0.0,2.1666,2.1216,2.1966,2.1966,2.1216,2.1666,2.1816,2.1816,2.1816,2.1978,2.2313,2.2094,2.2054,2.1948,2.1894,2.2002,2.2372,2.2762,2.2979,2.3009,2.2934,2.2533,2.2078,0.0,0.0,0.0,0.0,0.0,0.0,0.0,0.0,0.0,0.0,0.0,0.0,2.3469,2.2731,2.2157,2.2381,2.146,0.0,0.0,0.0,0.0,0.0,0.0,0.0,0.0,0.0,0.0,0.0,0.0,0.0,0.0,0.0,0.0,0.0,0.0,0.0,0.0,2.5111,2.4988,2.4881,2.4914,2.4629,2.4201,2.4728,2.5359,2.5924,2.6588,2.643,2.5945,2.5945,2.5572,2.5159,2.5445,0.0,0.0,0.0,0.0,0.0,0.0,0.0,0.0,0.0,0.0,0.0,0.0,0.0,0.0,0.0,0.0,0.0,0.0,0.0,0.0,1.8687,1.8688,1.8848,1.8848,1.9013,1.9063,1.887,1.8736,1.8735,1.8778,1.9249,1.9608,1.985,2.0354,2.062,2.083,2.1337,2.1516,2.1516,2.1966,2.2109,2.2115,2.2265,2.2265,2.2115,0.0,0.0,2.2109,2.2109,2.2073,2.2118,2.2013,2.2,2.19,2.2008,2.2265,2.2487,2.2602,2.2739,2.2744,2.2957,2.3003,2.3044,0.0,0.0,0.0,0.0,0.0,0.0,0.0,0.0,0.0,0.0,0.0,0.0,0.0,2.1314,2.0955,2.1231,0.0,0.0,0.0,0.0,0.0,0.0,0.0,0.0,0.0,0.0,0.0,0.0,0.0,0.0,0.0,0.0,0.0,0.0,0.0,0.0,0.0,2.5111,2.4988,2.4888,2.4859,2.469,2.462,2.5444,2.5959,2.6532,2.7067,2.697,2.6676,2.6676,2.6446,2.616,2.616,2.6041,2.5755,0.0,0.0,0.0,0.0,0.0,0.0,0.0,0.0,0.0,0.0,0.0,0.0,0.0,0.0,1.8875,0.0,0.0,1.8457,1.8172,1.8374,1.8611,1.8611,1.8815,1.888,1.8638,1.8821,1.9015,1.9128,1.9539,1.9856,1.9954,2.0717,2.1227,2.106,2.1666,2.1966,2.1666,2.2109,2.2259,2.1966,2.2259,2.2259,2.2259,2.2259,2.2259,2.2265,2.2247,2.207,2.2048,2.1854,2.1726,2.1699,2.1799,2.1817,2.1922,2.1922,2.2084,2.2239,2.2723,2.2723,2.2562,0.0,0.0,0.0,0.0,0.0,0.0,0.0,0.0,0.0,0.0,0.0,0.0,2.0451,1.989,1.955,0.0,0.0,0.0,0.0,0.0,0.0,0.0,0.0,0.0,0.0,0.0,0.0,0.0,0.0,0.0,0.0,0.0,0.0,0.0,0.0,0.0,0.0,2.5111,2.498,2.4765,2.4803,2.5134,2.5427,2.609,2.655,2.6792,2.7067,2.72,2.72,2.72,2.72,2.7153,2.6867,2.6684,2.6327,2.5056,2.4992,0.0,0.0,0.0,0.0,0.0,0.0,0.0,0.0,0.0,1.6479,1.7147,1.7136,1.7184,1.7755,1.7895,1.8051,1.8439,1.8702,1.8853,1.8853,1.9063,1.9144,1.8945,1.9101,1.9295,1.9483,1.9982,2.0087,1.9978,2.106,2.1366,2.1066,2.1666,2.1966,2.1516,2.196,2.1966,2.1666,2.196,2.2265,2.2259,2.2259,2.2289,2.2193,2.2094,2.1942,2.191,2.1592,2.1469,2.1486,2.1362,2.1276,2.1276,2.1276,2.1599,2.1917,2.2245,2.2245,2.1917,0.0,0.0,0.0,0.0,0.0,0.0,0.0,0.0,0.0,0.0,0.0,0.0,0.0,0.0,0.0,0.0,0.0,0.0,0.0,0.0,0.0,0.0,0.0,0.0,0.0,0.0,0.0,0.0,0.0,0.0,0.0,0.0,0.0,0.0,0.0,0.0,0.0,2.5111,2.5111,2.5043,2.57,2.5984,2.6087,2.6891,2.6902,2.6792,2.7067,2.72,2.72,2.72,2.72,2.7193,2.7153,2.6708,2.6057,2.5278,0.0,2.4055,2.3236,2.2627,0.0,2.0973,1.9713,1.87,0.0,0.0,1.7663,1.8169,1.8256,1.8261,1.8342,1.8525,1.8681,1.8735,1.895,1.9106,1.9106,1.9311,1.9451,1.9424,1.9445,1.9472,1.9494,2.0131,2.0414,2.0441,2.091,2.1216,2.1066,2.1216,2.1216,2.1216,2.1216,2.1366,2.1666,2.1666,2.1966,2.2259,2.2259,2.2229,2.1995,2.2024,2.1825,2.149,2.1446,2.14,2.1238,2.127,2.1276,2.1276,2.1276,2.1599,2.1917,2.1917,2.1917,2.1917,0.0,0.0,0.0,0.0,0.0,0.0,0.0,0.0,0.0,0.0,0.0,0.0,0.0,0.0,0.0,0.0,0.0,0.0,0.0,0.0,0.0,0.0,0.0,0.0,0.0,0.0,0.0,0.0,0.0,0.0,0.0,0.0,0.0,0.0,0.0,0.0,2.5111,2.5111,2.523,2.5461,2.5699,2.6142,2.6509,2.6745,2.6674,2.6458,2.6589,2.6589,0.0,0.0,2.6589,2.6589,2.6589,2.6382,2.589,2.4587,2.4277,0.0,2.4507,0.0,0.0,0.0,2.1188,2.0273,1.8461,1.7863,1.7857,1.8336,1.8541,1.8638,1.8638,1.8837,1.8998,0.0,1.9198,1.9354,1.9354,1.9553,1.9704,1.9704,1.9704,1.9704,1.9704,2.0236,2.0441,2.0145,2.0759,2.1066,2.0753,2.091,2.1066,2.0753,2.121,2.1366,2.1366,2.1516,2.1816,2.1966,2.1813,2.1784,2.159,2.1734,2.1598,2.1457,2.1394,2.1438,2.1599,2.1599,2.1599,2.1599,2.1599,2.1599,2.1599,2.1599,2.1761,2.1917,0.0,0.0,0.0,0.0,0.0,0.0,0.0,0.0,0.0,0.0,0.0,0.0,0.0,0.0,0.0,0.0,0.0,0.0,0.0,0.0,0.0,0.0,0.0,0.0,0.0,0.0,0.0,0.0,0.0,0.0,0.0,0.0,0.0,0.0,0.0,0.0,2.5111,2.5111,2.531,2.5667,2.5762,2.6108,2.6684,2.6477,2.6194,2.6017,2.6112,2.6025,0.0,0.0,2.5794,2.5715,2.5715,2.5516,2.5032,2.3769,2.3681,2.4158,2.4873,0.0,0.0,2.2962,2.2454,2.1665,1.9203,1.855,1.8672,1.8546,1.8767,1.8885,1.8885,1.9085,1.9246,1.9246,1.9445,1.9596,1.9596,1.9741,1.9849,1.9849,1.9849,1.9849,1.9849,2.0145,2.0145,1.9844,2.0458,2.0603,2.0296,2.0609,2.0603,2.0296,2.0904,2.106,2.091,2.121,2.1395,2.1621,2.1498,2.1352,2.1499,2.1462,2.1435,2.1276,2.1276,2.1438,2.1761,2.1761,2.1761,2.1761,2.1761,2.1599,2.1438,2.1281,2.1438,2.1761,0.0,0.0,0.0,0.0,0.0,0.0,0.0,0.0,0.0,0.0,0.0,0.0,0.0,0.0,0.0,0.0,0.0,0.0,0.0,0.0,0.0,0.0,0.0,0.0,0.0,0.0,0.0,0.0,0.0,0.0,0.0,0.0,0.0,0.0,0.0,0.0,2.5111,2.5111,2.531,2.5667,2.6009,2.6358,2.6605,2.5937,2.5675,2.5699,2.6025,0.0,0.0,0.0,2.4913,2.4627,2.4627,2.3927,0.0,2.3046,2.2807,0.0,0.0,0.0,2.3104,2.3745,2.3308,2.2454,2.1206,2.0844,2.0503,1.9358,1.9133,1.9138,1.9138,1.9332,1.9488,1.9488,1.9682,1.9838,1.9838,1.9844,1.9849,1.9849,1.9849,1.9849,0.0,1.9849,1.9849,1.9849,1.9844,2.0,1.9844,2.0,2.0,1.9844,2.0,2.0145,2.0447,2.0592,2.0866,2.142,2.1425,2.1378,2.1545,2.1318,2.127,2.1276,2.1276,2.1281,2.1276,2.1276,2.1276,2.1276,2.1276,2.1599,2.1755,2.1438,2.1281,2.1276,0.0,0.0,0.0,0.0,0.0,0.0,0.0,0.0,0.0,0.0,0.0,0.0,0.0,0.0,0.0,0.0,0.0,0.0,0.0,0.0,0.0,0.0,0.0,0.0,0.0,0.0,0.0,0.0,0.0,0.0,0.0,0.0,0.0,0.0,0.0,2.5111,2.5119,2.5357,2.5659,2.6009,2.6358,2.6565,2.6621,2.5895,2.5164,2.4546,0.0,0.0,0.0,0.0,0.0,0.0,2.3888,2.3491,2.2919,2.245,2.2728,2.334,0.0,0.0,2.5098,2.5056,2.4753,2.4302,2.3192,2.213,2.1168,2.0838,1.9597,1.8675,1.8675,1.8864,1.9025,1.9025,1.9488,1.9849,1.9849,1.9849,1.9849,1.9849,1.9849,0.0,0.0,0.0,0.0,1.9849,1.9849,1.9849,1.9849,1.9849,1.9849,1.9849,2.0145,2.0296,2.0441,2.0608,2.0735,2.0977,2.099,2.1157,2.1324,2.1243,2.1276,2.1276,2.1276,2.1438,2.1761,2.1761,2.1761,2.1761,2.1761,2.1599,2.1438,2.1276,2.1276,2.1276,0.0,0.0,0.0,0.0,0.0,0.0,0.0,0.0,0.0,0.0,0.0,0.0,0.0,0.0,0.0,0.0,0.0,0.0,0.0,0.0,0.0,0.0,0.0,0.0,0.0,0.0,0.0,0.0,0.0,0.0,0.0,0.0,0.0,0.0,0.0,2.5823,2.5839,2.6438,2.6744,2.6714,2.682,2.6568,2.6223,2.5117,2.4307,0.0,0.0,0.0,0.0,0.0,0.0,0.0,2.268,2.2641,2.2442,2.2363,2.2911,2.3777,2.4849,2.5723,2.6451,2.6391,2.6496,2.6163,2.5066,2.3991,2.3027,2.1976,2.0507,1.9256,1.8698,1.8681,1.8697,1.8444,1.9004,1.9467,1.9467,1.9467,1.9564,1.9817,1.9849,1.9849,0.0,0.0,0.0,1.9849,1.9849,1.9849,1.9849,1.9849,1.9849,1.9849,2.0145,2.034,2.0428,2.0588,2.0599,2.0774,2.1009,2.112,2.1276,2.1276,2.1276,2.1276,2.1276,2.1438,2.1755,2.2395,2.2234,2.1761,2.2395,2.2073,2.1276,2.1276,2.1276,2.1276,0.0,0.0,0.0,0.0,0.0,0.0,0.0,0.0,0.0,0.0,0.0,0.0,0.0,0.0,0.0,0.0,0.0,0.0,0.0,0.0,0.0,0.0,0.0,0.0,0.0,0.0,0.0,0.0,0.0,0.0,0.0,0.0,0.0,0.0,0.0,2.697,2.7108,2.8298,2.8282,2.7527,2.7037,2.638,2.5437,2.3732,0.0,0.0,0.0,0.0,0.0,0.0,0.0,0.0,0.0,0.0,2.1806,2.2807,2.3379,2.4063,2.5723,2.6462,2.6994,2.7995,2.8249,2.7919,2.6832,2.6478,2.5689,2.2868,2.1679,2.068,0.0,0.0,1.8644,1.783,1.8347,1.8837,1.8837,1.8837,1.909,0.0,0.0,0.0,0.0,0.0,0.0,1.9849,0.0,1.9849,1.9849,1.9849,1.9849,1.9849,1.986,1.9978,2.021,2.0237,2.0474,2.0926,2.1163,2.1276,2.1276,2.1276,2.1276,2.1276,2.1276,2.1276,2.1438,2.3021,2.2705,2.1438,2.3181,2.2866,2.1438,2.1599,2.1594,2.1594,0.0,0.0,0.0,0.0,0.0,0.0,0.0,0.0,0.0,0.0,0.0,0.0,0.0,0.0,0.0,0.0,0.0,0.0,0.0,0.0,0.0,0.0,0.0,0.0,0.0,0.0,0.0,0.0,0.0,0.0,0.0,0.0,0.0,0.0,2.6973,2.714,2.7186,2.755,2.7661,2.7652,0.0,2.5951,2.5367,0.0,0.0,0.0,0.0,0.0,0.0,0.0,0.0,0.0,0.0,2.357,2.3832,2.4102,2.4992,2.5969,2.6414,2.7169,2.7955,2.8495,2.863,2.8577,2.8639,2.7697,2.6113,2.3988,2.2493,2.0812,0.0,0.0,0.0,1.7879,1.8762,0.0,1.9575,1.9575,0.0,1.9822,0.0,1.9849,1.9849,1.9849,0.0,0.0,1.9849,1.9849,1.9849,1.9849,1.9849,1.9849,2.0027,2.0151,2.0215,2.0554,2.0883,2.1184,2.1249,2.1276,2.1276,2.1276,2.1276,2.1276,2.1276,2.1276,2.1276,2.1755,2.1755,2.1438,2.3181,2.3496,2.3336,2.4589,2.506,2.506,0.0,0.0,0.0,0.0,0.0,0.0,0.0,0.0,0.0,0.0,0.0,0.0,0.0,0.0,0.0,0.0,0.0,0.0,0.0,0.0,0.0,0.0,0.0,0.0,0.0,0.0,0.0,0.0,0.0,0.0,0.0,0.0,0.0,0.0,2.7474,2.7798,2.7792,0.0,0.0,0.0,0.0,0.0,0.0,0.0,0.0,0.0,0.0,0.0,0.0,0.0,0.0,2.3562,2.411,2.442,2.4666,2.5127,0.0,2.6771,2.7232,2.79,2.8551,2.8908,2.9004,2.8932,2.867,2.7896,2.6691,2.4489,2.3217,0.0,0.0,0.0,0.0,0.0,0.0,0.0,2.054,2.0399,2.0229,0.0,1.9849,0.0,1.9849,1.9849,1.9849,0.0,1.9849,1.9849,1.9849,1.9946,2.0011,2.0011,2.0242,2.0414,2.0517,2.0883,2.1141,2.1276,2.1276,2.1276,2.1276,2.1276,2.1276,2.1281,0.0,2.2389,2.2545,2.3964,2.4123,2.3644,2.5384,2.5542,2.5066,2.6004,2.6313,2.6313,0.0,0.0,0.0,0.0,0.0,0.0,0.0,0.0,0.0,0.0,0.0,0.0,0.0,0.0,0.0,0.0,0.0,0.0,0.0,0.0,0.0,0.0,0.0,0.0,0.0,0.0,0.0,0.0,0.0,0.0,0.0,0.0,0.0,0.0,0.0,0.0,0.0,0.0,0.0,0.0,0.0,0.0,0.0,0.0,0.0,0.0,0.0,0.0,0.0,0.0,2.4722,2.4341,2.4785,2.4928,2.5103,2.6017,2.6565,2.7073,2.7979,2.8527,2.8916,2.9218,2.9298,2.9028,2.7971,2.7733,2.709,2.4687,0.0,2.2688,1.9701,0.0,2.1773,1.9682,0.0,2.3021,2.1734,2.1611,2.13,2.0658,2.0586,2.0586,2.0586,2.0586,2.0586,2.0586,2.062,2.034,1.9892,2.0097,2.0242,2.0301,2.0506,2.0721,2.0947,2.1168,2.1276,2.1276,2.1599,2.1594,2.1594,2.1911,2.1911,2.2067,2.3496,2.4129,2.4283,2.7278,2.7584,2.647,2.8218,2.7905,2.6628,2.6943,2.6949,2.6949,0.0,0.0,0.0,0.0,0.0,0.0,0.0,0.0,0.0,0.0,2.5974,2.4992,0.0,0.0,0.0,0.0,0.0,0.0,0.0,0.0,0.0,0.0,0.0,0.0,0.0,0.0,0.0,0.0,0.0,0.0,0.0,0.0,0.0,0.0,0.0,0.0,0.0,0.0,0.0,0.0,0.0,0.0,0.0,0.0,0.0,0.0,0.0,0.0,0.0,0.0,2.628,2.5141,2.6064,2.6346,2.6385,2.6565,2.7185,2.7995,2.8178,2.8702,2.9218,2.9282,2.9298,2.9028,2.7971,2.7733,0.0,0.0,0.0,2.3802,2.0557,2.15,0.0,2.1534,0.0,0.0,0.0,0.0,2.3963,0.0,0.0,0.0,0.0,0.0,0.0,0.0,0.0,2.2996,2.0298,2.0194,2.0387,2.077,2.0823,2.0963,2.1211,2.1254,2.1276,2.1276,2.2705,2.3342,2.3342,2.4748,2.5371,2.5529,2.5687,0.0,2.5846,2.6477,2.6628,2.647,2.8218,2.8693,2.8693,2.9959,3.0593,3.0593,0.0,0.0,0.0,0.0,0.0,0.0,0.0,2.7262,2.7262,2.7262,2.687,2.6081,2.5089,2.4894,2.4698,0.0,0.0,0.0,0.0,0.0,0.0,0.0,0.0,0.0,0.0,0.0,0.0,0.0,0.0,0.0,0.0,0.0,0.0,0.0,0.0,0.0,0.0,0.0,0.0,0.0,0.0,0.0,0.0,0.0,0.0,0.0,0.0,0.0,0.0,0.0,2.7289,2.7277,2.8446,2.8871,2.8608,2.77,2.8067,2.8494,2.781,2.8318,2.8995,2.8995,2.9146,2.8877,2.7272,0.0,0.0,0.0,0.0,2.3844,2.1697,0.0,0.0,0.0,0.0,0.0,0.0,0.0,0.0,0.0,0.0,0.0,0.0,0.0,0.0,0.0,0.0,2.4416,2.2767,2.3034,2.3362,2.3745,2.3757,2.3824,2.3958,2.3958,2.3958,2.3958,2.4748,2.5066,2.5066,2.6004,2.6313,2.6313,2.7264,2.7584,2.7741,2.853,2.9005,2.9005,2.9804,3.0276,3.0284,3.1071,3.1387,3.1387,0.0,0.0,0.0,0.0,0.0,0.0,0.0,2.7262,2.7262,2.7262,2.7262,2.6965,2.6091,2.6081,2.5684,0.0,0.0,0.0,0.0,0.0,0.0,0.0,0.0,0.0,0.0,0.0,0.0,0.0,0.0,0.0,0.0,0.0,0.0,0.0,0.0,0.0,0.0,0.0,0.0,0.0,0.0,0.0,0.0,0.0,0.0,0.0,0.0,0.0,0.0,0.0,2.8301,2.9596,3.0576,3.0728,3.017,2.8756,2.8893,2.9249,2.8308,2.8585,2.9122,2.9122,2.8995,2.846,2.6498,2.6237,0.0,0.0,2.3999,2.3787,2.2631,0.0,0.0,0.0,0.0,0.0,0.0,0.0,0.0,0.0,0.0,0.0,0.0,0.0,0.0,0.0,0.0,0.0,2.5355,2.5705,2.6086,2.6306,2.6162,2.6155,2.6313,2.6313,2.6313,2.6313,2.6635,2.6792,2.6949,2.7264,2.7421,2.7421,2.8849,2.9486,2.9486,3.0917,3.1387,3.1387,3.1387,3.1387,3.1387,3.1387,3.1387,3.1387,0.0,0.0,0.0,0.0,0.0,0.0,0.0,2.7262,2.7262,2.7262,2.7262,2.7262,2.7156,2.7156,2.7156,0.0,0.0,0.0,0.0,0.0,0.0,0.0,0.0,0.0,0.0,0.0,0.0,0.0,0.0,0.0,0.0,0.0,0.0,0.0,0.0,0.0,0.0,0.0,0.0,0.0,0.0,0.0,0.0,0.0,0.0,0.0,0.0,0.0,0.0,0.0,0.0,3.0761,3.1274,3.0429,2.91,2.8858,0.0,0.0,3.0889,3.0674,3.0258,3.0258,2.9274,2.7752,2.6113,0.0,0.0,2.3834,2.3832,2.3959,2.3526,0.0,0.0,0.0,0.0,0.0,0.0,0.0,0.0,0.0,0.0,0.0,0.0,0.0,0.0,0.0,0.0,0.0,2.6121,2.5812,2.5826,2.6313,2.6017,2.5852,2.6313,2.6313,2.6313,2.6313,2.7898,2.8693,2.8693,3.0276,3.0917,3.0909,3.1071,3.1225,0.0,3.1387,3.1387,3.1387,3.1387,3.1387,3.1387,3.1387,3.1387,3.1387,0.0,0.0,0.0,0.0,0.0,0.0,2.7262,2.7262,2.7262,2.7262,2.7262,2.7262,2.7262,2.7262,2.7262,2.7262,0.0,0.0,0.0,0.0,0.0,0.0,0.0,0.0,0.0,0.0,0.0,0.0,0.0,0.0,0.0,0.0,0.0,0.0,0.0,0.0,0.0,0.0,0.0,0.0,0.0,0.0,0.0,0.0,0.0,0.0,0.0,0.0,0.0,0.0,0.0,0.0,3.0146,2.9849,0.0,0.0,3.0043,3.0401,3.0999,3.1047,3.1086,3.1316,3.0586,2.9141,2.7117,0.0,0.0,2.3349,2.3309,2.348,2.3339,2.3368,0.0,0.0,0.0,0.0,0.0,0.0,0.0,0.0,0.0,0.0,0.0,0.0,0.0,0.0,0.0,0.0,2.9292,2.9109,2.9175,2.9323,2.9175,2.9175,2.9323,2.9323,2.9323,2.9323,3.0114,3.0438,3.0438,3.1071,3.1387,3.1387,3.1387,3.1387,0.0,3.1387,3.1387,3.1387,3.1387,3.1387,3.1387,3.1387,3.1387,3.1387,0.0,0.0,0.0,0.0,0.0,2.7262,2.7262,2.7262,2.7262,2.7262,2.7262,2.7262,2.7262,2.7262,2.7262,2.7262,2.7262,0.0,0.0,0.0,0.0,0.0,0.0,0.0,0.0,0.0,0.0,0.0,0.0,0.0,0.0,0.0,2.9167,2.8191,0.0,0.0,0.0,0.0,0.0,0.0,0.0,0.0,0.0,0.0,0.0,0.0,0.0,0.0,0.0,0.0,0.0,0.0,0.0,0.0,0.0,0.0,3.0329,3.0736,3.1349,3.1658,3.197,3.2382,3.1384,2.9917,0.0,0.0,0.0,2.347,2.3229,2.3391,2.3066,2.3048,2.3107,0.0,0.0,2.4436,0.0,0.0,0.0,0.0,0.0,0.0,0.0,0.0,0.0,0.0,0.0,0.0,3.1387,3.1387,3.1387,3.1387,3.1241,3.1241,3.1387,3.1387,3.1387,3.1387,3.1241,3.1241,3.1241,3.1241,3.1241,3.1241,3.1395,3.1387,0.0,3.1387,3.1387,3.1387,3.1387,3.1387,3.1387,3.1387,3.1387,3.1387,0.0,0.0,0.0,0.0,0.0,0.0,2.7262,2.7262,2.7262,2.7262,2.7262,2.7262,2.7262,2.7262,2.7262,2.7262,2.7262,0.0,0.0,0.0,0.0,0.0,0.0,0.0,0.0,0.0,0.0,0.0,0.0,0.0,0.0,0.0,0.0,2.8921,0.0,0.0,0.0,0.0,0.0,0.0,0.0,0.0,0.0,0.0,0.0,0.0,0.0,0.0,0.0,0.0,0.0,0.0,0.0,0.0,0.0,0.0,3.0497,3.174,3.2664,3.3062,3.3156,3.3564,3.1586,2.9381,0.0,0.0,0.0,2.4215,2.4177,2.3983,2.2859,2.2858,2.3082,2.2964,2.3316,2.38,2.4492,0.0,0.0,0.0,0.0,0.0,0.0,0.0,0.0,0.0,0.0,0.0,3.1387,3.1387,3.1387,3.1387,3.0933,3.0941,3.1387,3.1387,3.1387,3.1387,3.0941,3.0786,3.0786,3.0786,3.0786,3.0786,3.1241,3.1387,0.0,3.1387,3.1387,3.1387,3.1387,3.1387,3.1387,3.1387,3.1387,3.1387,0.0,0.0,0.0,0.0,0.0,0.0,0.0,2.7262,2.7262,2.7262,2.7262,2.7262,2.7262,2.7262,2.7262,2.7262,2.7262,0.0,0.0,0.0,0.0,0.0,0.0,0.0,0.0,0.0,0.0,0.0,0.0,0.0,0.0,0.0,0.0,0.0,2.8778,0.0,0.0,0.0,0.0,0.0,0.0,0.0,0.0,0.0,0.0,0.0,0.0,0.0,0.0,0.0,0.0,0.0,0.0,0.0,0.0,0.0,0.0,0.0,3.2093,3.2214,3.2034,3.2739,3.1389,2.9721,2.8737,0.0,0.0,2.4701,2.4727,2.4778,2.4445,2.397,2.369,2.3904,2.3327,2.3119,2.3808,0.0,0.0,0.0,0.0,0.0,0.0,0.0,0.0,0.0,0.0,0.0,3.1387,3.1387,3.1387,3.1387,3.1241,3.1241,3.1387,3.1387,3.1387,3.1387,3.0933,3.0786,3.0786,3.0462,3.0462,3.0786,3.0933,3.1087,3.1387,3.1387,3.1387,3.1387,3.1387,3.1387,3.1387,3.1387,3.1387,3.1387,0.0,0.0,0.0,0.0,0.0,0.0,0.0,2.7262,2.7262,2.7262,2.7262,2.7262,2.7167,2.7177,2.7071,2.6976,2.7071,0.0,0.0,0.0,0.0,0.0,0.0,0.0,0.0,0.0,0.0,0.0,0.0,0.0,0.0,0.0,0.0,0.0,0.0,0.0,0.0,0.0,0.0,0.0,0.0,0.0,2.9839,0.0,0.0,0.0,0.0,0.0,0.0,0.0,0.0,0.0,0.0,0.0,0.0,0.0,2.86,0.0,0.0,3.1496,3.1701,3.2356,3.1396,0.0,0.0,0.0,0.0,0.0,2.5516,2.5626,2.5296,2.4753,2.4539,2.477,2.4231,2.4014,2.4879,0.0,0.0,0.0,0.0,0.0,0.0,0.0,0.0,0.0,0.0,0.0,3.1387,3.1387,3.1387,3.1387,3.1387,3.1387,3.1387,3.1387,3.1387,3.1387,3.0933,3.0786,3.0462,3.0291,3.0144,3.0314,3.0632,3.0941,0.0,3.1395,3.1387,3.1387,3.1387,3.1387,3.1387,3.1387,3.1387,3.1387,0.0,0.0,0.0,0.0,0.0,0.0,0.0,2.721,2.721,2.721,2.7241,2.7167,2.69,2.69,2.6699,2.64,0.0,0.0,0.0,0.0,0.0,0.0,0.0,0.0,0.0,0.0,0.0,2.7262,2.7262,2.7262,2.7272,0.0,0.0,0.0,0.0,0.0,0.0,0.0,0.0,0.0,0.0,0.0,0.0,0.0,0.0,0.0,0.0,0.0,0.0,0.0,0.0,0.0,0.0,0.0,0.0,0.0,0.0,0.0,0.0,0.0,0.0,0.0,0.0,0.0,0.0,0.0,0.0,0.0,0.0,0.0,2.5516,2.5406,2.5415,2.5789,2.5679,2.6096,2.74,2.6517,0.0,0.0,0.0,0.0,0.0,0.0,0.0,0.0,0.0,0.0,3.1387,3.1387,3.1387,3.1387,3.1387,3.1387,3.1387,3.1387,3.1387,3.1387,3.0933,3.0624,3.0137,3.0137,2.9982,0.0,3.0477,3.0786,3.0941,3.1241,3.1387,3.1395,3.1387,3.1387,3.1395,3.1387,3.1395,3.1387,0.0,0.0,0.0,0.0,0.0,0.0,0.0,0.0,0.0,0.0,2.6855,2.6996,2.69,2.6699,2.6197,0.0,0.0,0.0,0.0,0.0,0.0,0.0,0.0,0.0,0.0,0.0,0.0,2.7262,2.7262,2.7262,2.7262,2.7365,0.0,0.0,0.0,0.0,0.0,0.0,0.0,0.0,0.0,0.0,0.0,0.0,0.0,0.0,2.9156,2.8824,0.0,0.0,0.0,0.0,0.0,0.0,0.0,0.0,2.8094,2.7983,2.8514,0.0,2.8985,2.9307,2.9084,0.0,0.0,0.0,0.0,0.0,0.0,0.0,0.0,2.6853,2.6309,2.6654,2.5872,2.5933,2.7774,0.0,0.0,0.0,0.0,0.0,0.0,0.0,0.0,0.0,0.0,3.1087,3.1387,3.1387,3.1387,3.1387,3.1387,3.1387,3.1387,3.1387,3.1387,3.1387,3.0933,3.0786,3.0624,3.0291,3.0299,3.0469,3.0786,3.0933,3.1241,3.1395,3.1387,3.1387,3.2146,3.1993,3.1541,3.2146,3.1993,3.1387,0.0,0.0,0.0,0.0,0.0,0.0,0.0,0.0,0.0,0.0,0.0,0.0,0.0,0.0,0.0,0.0,0.0,0.0,0.0,0.0,0.0,0.0,0.0,0.0,0.0,0.0,0.0,0.0,0.0,2.7262,0.0,0.0,0.0,2.8266,2.8837,0.0,0.0,0.0,0.0,0.0,3.0048,0.0,0.0,0.0,0.0,0.0,2.8903,2.8717,0.0,2.8514,2.8408,2.8291,0.0,0.0,0.0,0.0,2.7998,2.7715,2.7949,2.8042,2.8113,2.853,2.8505,2.841,0.0,0.0,0.0,0.0,0.0,0.0,0.0,0.0,0.0,2.7625,2.8033,2.8553,0.0,0.0,0.0,0.0,0.0,0.0,0.0,0.0,0.0,0.0,0.0,3.2113,3.1977,3.1387,3.1087,3.1087,3.1241,3.1387,3.1387,3.1387,3.1387,3.1387,3.1241,3.0941,3.0786,3.0469,3.0462,3.0462,3.0786,3.0941,3.1087,3.1395,3.1694,3.1993,3.2443,3.2596,3.2596,3.3044,3.2596,3.1993,0.0,0.0,0.0,0.0,0.0,0.0,0.0,0.0,0.0,0.0,0.0,0.0,0.0,0.0,0.0,0.0,0.0,0.0,0.0,0.0,0.0,0.0,0.0,0.0,0.0,0.0,0.0,0.0,0.0,0.0,0.0,0.0,2.811,2.8649,2.9291,0.0,0.0,0.0,0.0,0.0,3.0058,0.0,0.0,0.0,0.0,0.0,0.0,0.0,0.0,2.8504,2.8398,2.8291,2.8291,0.0,0.0,0.0,0.0,0.0,2.7829,2.8162,2.8316,2.847,2.8406,2.8361,0.0,0.0,0.0,0.0,0.0,0.0,0.0,0.0,0.0,0.0,0.0,0.0,0.0,0.0,0.0,0.0,0.0,0.0,0.0,0.0,0.0,0.0,0.0,3.3717,3.3146,3.2113,3.1678,3.1678,3.1832,3.184,3.1694,3.1541,3.1387,3.1387,3.1387,3.1241,3.0941,3.0941,3.0771,3.0291,0.0,0.0,3.0933,3.1387,3.1993,3.2748,3.2901,3.3196,3.3794,3.3954,3.35,3.2901,0.0,0.0,0.0,0.0,0.0,0.0,0.0,0.0,0.0,0.0,0.0,0.0,0.0,0.0,0.0,0.0,0.0,0.0,0.0,0.0,0.0,0.0,0.0,0.0,0.0,0.0,0.0,0.0,0.0,0.0,2.7262,2.7334,2.781,2.8638,2.9166,2.93,0.0,0.0,0.0,0.0,0.0,0.0,0.0,0.0,0.0,0.0,0.0,0.0,0.0,2.893,2.8717,2.8291,2.8291,0.0,0.0,0.0,0.0,0.0,2.8725,2.9147,2.9204,2.7869,2.7742,2.7786,0.0,0.0,0.0,0.0,0.0,0.0,0.0,0.0,0.0,0.0,0.0,0.0,0.0,0.0,0.0,0.0,0.0,0.0,0.0,0.0,0.0,0.0,0.0,3.5357,3.5515,3.5366,3.5217,3.5217,3.4345,3.3617,3.2892,3.184,3.1387,3.1387,3.1694,3.1694,3.1395,3.1694,3.1541,3.1233,0.0,3.184,3.1848,3.2299,3.2748,3.3196,3.3802,3.3945,3.3954,3.4556,3.4255,3.3651,0.0,0.0,0.0,0.0,0.0,0.0,0.0,0.0,0.0,0.0,0.0,0.0,0.0,0.0,0.0,0.0,0.0,0.0,0.0,0.0,0.0,0.0,0.0,0.0,0.0,0.0,0.0,0.0,0.0,2.7262,2.7272,2.7759,2.8373,2.9147,2.9363,2.9475,2.9343,0.0,0.0,0.0,0.0,0.0,0.0,0.0,0.0,0.0,0.0,0.0,0.0,0.0,2.8611,2.8291,2.8291,0.0,0.0,0.0,0.0,0.0,2.8015,2.8339,2.8654,2.8415,2.9338,3.0252,0.0,0.0,0.0,0.0,0.0,0.0,0.0,0.0,0.0,0.0,0.0,0.0,0.0,0.0,0.0,0.0,0.0,0.0,0.0,0.0,0.0,0.0,0.0,0.0,3.6136,3.5961,3.5803,3.5803,3.5515,3.5077,3.4795,3.4203,3.3314,3.1993,3.2299,3.2299,3.1993,3.1848,3.1686,3.1686,0.0,3.2146,3.2291,3.2443,3.2901,3.3651,3.4096,3.4548,3.4848,3.5007,3.5007,3.4998,0.0,0.0,0.0,0.0,0.0,0.0,0.0,0.0,0.0,0.0,0.0,0.0,0.0,0.0,0.0,0.0,0.0,0.0,0.0,0.0,0.0,0.0,0.0,0.0,0.0,0.0,2.7156,2.6849,2.686,2.6825,2.6734,2.7628,2.8432,2.9076,2.9296,2.9462,2.9343,2.9132,2.9036,2.9066,0.0,0.0,0.0,0.0,0.0,0.0,0.0,0.0,0.0,0.0,0.0,0.0,0.0,0.0,0.0,2.8321,2.8144,2.7965,2.7722,2.7985,2.8604,0.0,0.0,0.0,0.0,0.0,0.0,0.0,0.0,0.0,0.0,0.0,0.0,0.0,0.0,0.0,0.0,0.0,0.0,0.0,0.0,0.0,0.0,0.0,0.0,0.0,0.0,3.8757,3.7629,3.7151,3.6976,3.6976,3.6838,3.6848,3.6848,3.6553,3.5384,3.3474,3.3483,3.3331,3.3188,3.2443,3.2299,3.2443,3.2443,3.2596,3.2901,3.2901,3.3357,3.3971,3.4945,3.6012,3.6896,3.659,3.6544,3.6636,0.0,0.0,0.0,0.0,0.0,0.0,0.0,0.0,0.0,0.0,0.0,0.0,0.0,0.0,0.0,0.0,0.0,0.0,0.0,0.0,0.0,0.0,0.0,0.0,0.0,2.7262,2.6648,2.545,2.5674,2.5487,2.4858,2.6048,2.6846,2.7342,2.8425,0.0,0.0,2.8727,2.8737,2.8767,2.8859,0.0,0.0,0.0,0.0,0.0,0.0,0.0,0.0,0.0,0.0,0.0,0.0,0.0,2.9016,2.8986,2.8788,2.86,2.8992,2.9755,3.0235,0.0,0.0,0.0,0.0,0.0,0.0,0.0,0.0,0.0,0.0,0.0,0.0,0.0,0.0,0.0,0.0,0.0,0.0,0.0,0.0,0.0,0.0,0.0,0.0,0.0,4.0994,4.1714,4.1573,4.1573,4.1562,4.1562,3.9798,3.8912,3.8912,3.7766,3.6728,3.5812,3.584,3.5691,3.5253,3.4539,3.3954,3.3651,3.3651,3.3651,3.3651,3.3677,3.3988,3.4618,3.6886,3.922,4.111,4.111,3.984,3.836,0.0,0.0,0.0,0.0,0.0,0.0,0.0,0.0,0.0,0.0,0.0,0.0,0.0,0.0,0.0,0.0,0.0,0.0,0.0,0.0,0.0,0.0,0.0,2.639,2.7081,2.7081,2.6466,2.5344,2.4777,2.4627,2.5078,2.5498,2.6248,2.7264,0.0,0.0,0.0,2.8502,2.841,2.8377,2.839,2.8406,0.0,0.0,0.0,0.0,0.0,0.0,0.0,0.0,2.8154,2.7999,2.8052,2.8605,2.9021,2.8468,2.8482,2.8524,2.8142,2.9293,0.0,0.0,0.0,0.0,0.0,0.0,0.0,0.0,0.0,0.0,0.0,0.0,0.0,0.0,0.0,0.0,0.0,0.0,0.0,0.0,0.0,0.0,0.0,0.0,0.0,4.0402,4.1441,4.1725,4.1299,4.1725,4.2007,4.2007,4.1278,4.0831,4.0831,4.0402,4.0105,3.9788,3.8331,3.7445,3.7298,3.6562,3.6275,3.6294,3.6275,3.6423,3.6747,3.6756,3.6765,3.7098,3.8817,4.0151,4.1182,4.1452,4.0478,3.916,0.0,0.0,0.0,0.0,0.0,0.0,0.0,0.0,0.0,0.0,0.0,0.0,0.0,0.0,0.0,0.0,0.0,0.0,0.0,0.0,0.0,0.0,0.0,2.6004,2.61,2.61,2.5684,2.466,2.34,2.3203,2.4263,2.4702,2.5654,0.0,0.0,0.0,0.0,0.0,2.8171,2.8056,2.7951,2.7994,0.0,0.0,0.0,0.0,0.0,0.0,0.0,0.0,2.8016,2.8071,2.7968,2.8475,2.8894,2.8137,2.8522,2.9119,2.8494,2.9551,0.0,0.0,0.0,0.0,0.0,0.0,0.0,0.0,0.0,0.0,0.0,0.0,0.0,0.0,0.0,0.0,0.0,0.0,0.0,0.0,0.0,0.0,0.0,3.9785,4.036,4.1115,4.2018,4.2159,4.1594,4.2159,4.2451,4.2451,4.2159,4.2159,4.2451,4.2159,4.2159,4.23,4.082,3.9788,3.9346,3.8467,3.8185,3.8506,3.8331,3.8486,3.8661,3.8506,3.902,3.974,4.0624,4.171,4.2704,4.2688,4.1895,4.082,0.0,0.0,0.0,0.0,0.0,0.0,0.0,0.0,0.0,0.0,0.0,0.0,0.0,0.0,0.0,0.0,0.0,0.0,0.0,0.0,0.0,0.0,0.0,2.5323,2.4492,2.4492,2.4088,2.3294,2.1434,2.1077,2.2073,2.3486,0.0,0.0,0.0,0.0,0.0,0.0,2.7804,2.7804,2.7804,2.7804,2.7804,0.0,0.0,0.0,0.0,0.0,0.0,0.0,2.785,2.8127,2.7915,2.833,2.8829,2.837,2.927,3.0505,3.0505,3.1052,0.0,0.0,0.0,0.0,0.0,0.0,0.0,0.0,0.0,0.0,0.0,0.0,0.0,0.0,0.0,0.0,0.0,0.0,0.0,0.0,0.0,0.0,3.9265,3.9506,4.0316,4.1933,4.2743,4.3174,4.3174,4.3174,4.3174,4.3174,4.2451,4.2441,4.3174,4.2451,4.2451,4.3174,4.3174,4.2581,4.141,4.0279,3.9714,3.9714,3.9261,3.9106,3.9106,3.8661,3.9915,4.206,4.206,4.3805,4.6229,4.5753,4.4838,4.372,0.0,0.0,0.0,0.0,0.0,0.0,0.0,0.0,0.0,0.0,0.0,0.0,0.0,0.0,0.0,0.0,0.0,0.0,0.0,0.0,0.0,0.0,0.0,0.0,0.0,0.0,2.2291,2.2484,2.0988,2.0845,0.0,0.0,0.0,2.5235,0.0,0.0,0.0,0.0,2.7132,2.6173,2.721,2.7564,2.7472,0.0,0.0,0.0,0.0,0.0,0.0,0.0,0.0,0.0,2.7649,2.8188,2.8768,2.8171,2.8666,2.93,2.8824,0.0,0.0,0.0,0.0,0.0,0.0,0.0,0.0,0.0,0.0,0.0,0.0,0.0,0.0,0.0,0.0,0.0,0.0,0.0,0.0,0.0,0.0,3.7705,4.034,4.0014,4.0318,4.217,4.2838,4.3174,4.3174,4.3174,4.3174,4.3174,4.3034,4.3034,4.3174,4.3034,4.3034,4.3174,4.3174,4.3023,4.2592,4.2311,4.2159,4.217,4.2018,4.2007,4.2007,4.1866,4.2234,4.2959,4.3567,4.4352,4.5051,4.5175,4.4253,4.3174,0.0,0.0,0.0,0.0,0.0,0.0,0.0,0.0,0.0,0.0,0.0,0.0,0.0,0.0,0.0,0.0,0.0,0.0,0.0,0.0,0.0,0.0,0.0,0.0,0.0,2.1387,2.0854,0.0,0.0,0.0,0.0,0.0,0.0,2.5289,0.0,2.6435,0.0,0.0,2.6763,2.5586,2.6865,2.7115,2.6668,0.0,0.0,0.0,0.0,0.0,0.0,0.0,0.0,0.0,2.7534,2.8084,2.8631,2.8823,2.9168,2.9717,3.0574,0.0,0.0,0.0,0.0,0.0,0.0,0.0,0.0,0.0,0.0,0.0,0.0,0.0,0.0,0.0,0.0,0.0,0.0,0.0,0.0,0.0,3.8129,3.8449,4.0824,4.0167,4.0456,4.2228,4.2704,4.2966,4.3163,4.3174,4.3174,4.3174,4.3174,4.3174,4.3174,4.3174,4.3174,4.3174,4.3174,4.3174,4.3174,4.3174,4.3174,4.3174,4.3174,4.3174,4.3174,4.3174,4.3174,4.3206,4.3771,4.4273,4.4546,4.4486,4.4099,4.3611,0.0,0.0,0.0,0.0,0.0,0.0,0.0,0.0,0.0,0.0,0.0,0.0,0.0,0.0,0.0,0.0,0.0,0.0,0.0,0.0,0.0,0.0,0.0,0.0,0.0,0.0,0.0,0.0,0.0,0.0,0.0,0.0,2.5151,2.5655,0.0,2.6516,0.0,0.0,2.6466,2.5596,2.6572,2.6476,2.579,2.6668,0.0,0.0,0.0,0.0,0.0,0.0,0.0,0.0,2.7662,2.7956,2.8492,2.9679,3.0242,3.1133,0.0,0.0,0.0,0.0,0.0,0.0,0.0,0.0,0.0,0.0,0.0,0.0,0.0,0.0,0.0,0.0,0.0,0.0,0.0,0.0,0.0,4.0149,3.9057,3.8961,4.0759,4.0281,4.0533,4.2141,4.2398,4.2638,4.3152,4.3174,4.3174,4.3174,4.3174,4.3174,4.3174,4.3174,4.3174,4.3174,4.3174,4.3174,4.3174,4.3174,4.3174,4.3174,4.3174,4.3174,4.3174,4.3174,4.3174,4.3174,4.3174,4.3716,4.4317,4.3874,4.4124,4.4844,0.0,0.0,0.0,0.0,0.0,0.0,0.0,0.0,0.0,0.0,0.0,0.0,0.0,0.0,0.0,0.0,0.0,0.0,0.0,0.0,0.0,0.0,0.0,0.0,0.0,0.0,0.0,0.0,0.0,0.0,0.0,0.0,0.0,2.5056,0.0,2.5866,0.0,0.0,2.4482,2.4187,2.4581,2.507,2.5363,2.4679,2.4688,0.0,0.0,0.0,0.0,0.0,0.0,0.0,2.7841,2.7935,2.8088,2.8604,2.9618,3.0721,0.0,0.0,0.0,0.0,0.0,0.0,0.0,0.0,0.0,0.0,0.0,0.0,0.0,0.0,0.0,0.0,0.0,0.0,3.922,3.9746,3.9877,3.9483,3.921,3.9384,4.029,4.0077,4.0394,4.1797,4.2201,4.2638,4.3152,4.3174,4.3174,4.3174,4.3174,4.3174,4.3174,4.3174,4.3174,4.3174,4.3174,4.3174,4.3174,4.3174,4.3174,4.3174,4.3174,4.3174,4.3174,4.3174,4.3174,4.3174,4.3174,4.3379,4.3456,4.3346,4.3379,4.3584,0.0,0.0,0.0,0.0,0.0,0.0,0.0,0.0,0.0,0.0,0.0,0.0,0.0,0.0,0.0,0.0,0.0,0.0,0.0,0.0,0.0,0.0,0.0,0.0,0.0,2.1317,2.1395,0.0,0.0,0.0,0.0,0.0,0.0,2.5897,0.0,2.5604,0.0,0.0,2.3701,2.3203,2.3692,2.3989,2.4088,2.3683,2.3899,2.451,2.4492,0.0,0.0,0.0,0.0,0.0,0.0,0.0,2.836,2.9268,2.9623,3.016,0.0,0.0,0.0,0.0,0.0,0.0,0.0,0.0,0.0,0.0,0.0,0.0,0.0,0.0,0.0,0.0,0.0,3.9746,3.9746,4.0007,4.0149,3.9746,3.9746,3.9877,4.0279,4.0224,4.0439,4.1328,4.1797,4.2289,4.2791,4.3042,4.3174,4.3174,4.3174,4.3174,4.3174,4.3174,4.3174,4.3174,4.3174,4.3174,4.3174,4.3174,4.3174,4.3174,4.3174,4.3174,4.3174,4.3174,4.3174,4.3174,4.3174,4.3174,4.3174,4.3174,4.3174,4.3174,0.0,0.0,0.0,0.0,0.0,0.0,0.0,0.0,0.0,0.0,0.0,0.0,0.0,0.0,0.0,0.0,0.0,0.0,0.0,0.0,0.0,0.0,0.0,0.0,0.0,2.251,2.2758,0.0,0.0,0.0,0.0,0.0,0.0,2.6617,0.0,0.0,0.0,0.0,0.0,2.2719,2.3203,2.3203,2.3011,2.2994,2.3411,2.4125,2.3899,2.4501,2.5401,2.4992,0.0,0.0,0.0,0.0,2.8421,3.0079,2.986,2.9807,0.0,0.0,0.0,0.0,0.0,0.0,0.0,0.0,0.0,0.0,0.0,0.0,0.0,0.0,0.0,0.0,4.0279,4.0279,4.0279,4.0279,4.0279,4.0279,4.0279,4.0279,4.0279,4.0279,4.0476,4.0967,4.1361,4.1776,4.2267,4.2769,4.3042,4.3042,4.313,4.3174,4.3174,4.3174,4.3174,4.3174,4.3174,4.3174,4.3174,4.3174,4.3174,4.3174,4.3174,4.3174,4.3174,4.3174,4.3174,4.3174,4.3174,4.3174,4.3174,4.3174,4.3174,4.3174,0.0,0.0,0.0,0.0,0.0,0.0,0.0,0.0,0.0,0.0,0.0,0.0,0.0,0.0,0.0,0.0,0.0,0.0,0.0,0.0,0.0,0.0,2.2232,2.217,2.2475,2.242,2.2536,0.0,0.0,0.0,0.0,0.0,0.0,2.4543,0.0,0.0,0.0,0.0,0.0,0.0,0.0,2.2593,2.3349,2.2097,2.261,2.3998,2.302,2.3429,2.4322,2.4805,2.4992,0.0,0.0,0.0,2.7061,2.8599,2.9505,0.0,0.0,0.0,0.0,0.0,0.0,0.0,0.0,0.0,0.0,0.0,0.0,0.0,0.0,0.0,0.0,4.0279,4.0279,4.0279,4.0279,4.0279,4.0279,4.0279,4.0279,4.0279,4.0279,4.0279,4.0476,4.0967,4.1066,4.1295,4.1765,4.2256,4.2518,4.2518,4.2955,4.3174,4.3174,4.3174,4.3174,4.3174,4.3174,4.3174,4.3174,4.3174,4.3174,4.3174,4.3174,4.3174,4.3174,4.3174,4.3174,4.3174,4.3174,4.3174,4.3174,4.3174,4.3174,4.3174,0.0,0.0,0.0,0.0,0.0,0.0,0.0,0.0,0.0,0.0,0.0,0.0,0.0,0.0,0.0,0.0,0.0,0.0,0.0,0.0,0.0,2.357,2.3709,2.3904,2.4304,2.4294,0.0,0.0,0.0,0.0,0.0,2.5855,2.5553,0.0,0.0,0.0,0.0,0.0,0.0,0.0,0.0,0.0,0.0,2.3314,2.4097,2.5535,2.3643,2.3211,2.3628,2.3628,2.4007,2.4581,2.5256,0.0,0.0,0.0,2.7334,0.0,0.0,0.0,0.0,0.0,0.0,0.0,0.0,0.0,0.0,0.0,0.0,0.0,0.0,0.0,0.0,4.0279,4.0279,4.0279,4.0279,4.0279,4.0279,4.0279,4.0279,4.0279,4.0279,4.0279,4.0367,4.0585,4.0858,4.1098,4.1295,4.1754,4.2136,4.2409,4.2638,4.289,4.3174,4.3174,4.3174,4.3174,4.3174,4.3174,4.3174,4.3174,4.3174,4.3174,4.3174,4.3174,4.3174,4.3174,4.3174,4.3174,4.3174,4.3174,4.3174,4.3174,4.3174,4.3174,0.0,0.0,0.0,0.0,0.0,0.0,0.0,0.0,0.0,0.0,0.0,0.0,0.0,0.0,0.0,0.0,0.0,0.0,0.0,0.0,0.0,2.4382,2.4967,2.5431,2.5917,0.0,0.0,0.0,0.0,0.0,2.6486,2.5954,2.581,0.0,2.4998,0.0,0.0,0.0,0.0,0.0,0.0,0.0,0.0,0.0,2.6691,2.791,2.5377,2.4244,2.3922,2.3235,2.332,2.38,2.3998,2.4679,0.0,0.0,0.0,0.0,0.0,0.0,0.0,0.0,0.0,0.0,0.0,0.0,0.0,0.0,0.0,0.0,0.0,0.0,4.0279,4.0279,4.0279,4.0279,4.0279,4.0279,4.0279,4.0279,4.0279,4.0279,4.0279,4.0279,4.0279,4.0279,4.0618,4.0825,4.0825,4.1262,4.1688,4.2049,4.2169,4.2475,4.2977,4.3119,4.3174,4.3174,4.3174,4.3174,4.3174,4.3174,4.3174,4.3174,4.3174,4.3174,4.3174,4.3174,4.3174,4.3174,4.3174,4.3174,4.3174,4.3174,4.3174,4.3174,0.0,0.0,0.0,0.0,0.0,0.0,0.0,0.0,0.0,0.0,0.0,0.0,0.0,0.0,0.0,2.3343,0.0,0.0,0.0,0.0,0.0,2.4772,2.4874,0.0,2.6476,0.0,0.0,0.0,0.0,0.0,2.7536,2.7231,2.6744,2.5964,2.4337,2.3375,2.3046,0.0,0.0,0.0,0.0,2.7083,0.0,0.0,0.0,0.0,0.0,2.695,2.5953,2.4482,2.342,2.2837,2.38,2.4187,2.4384,0.0,0.0,0.0,0.0,0.0,0.0,0.0,0.0,0.0,0.0,0.0,0.0,0.0,0.0,0.0,0.0,4.0279,4.0279,4.0279,4.0279,4.0279,4.0279,4.0279,4.0279,4.0279,4.0279,4.0279,4.0279,4.0279,4.0279,4.0279,4.0301,4.0323,4.0323,4.0771,4.1055,4.1077,4.1503,4.1961,4.2453,4.2933,4.3174,4.3174,4.3174,4.3174,4.3174,4.3174,4.3174,4.3174,4.3174,4.3174,4.3174,4.3174,4.3174,4.3174,4.3174,4.3174,4.3174,4.3174,4.3174,4.3174,0.0,0.0,0.0,0.0,0.0,0.0,0.0,0.0,0.0,0.0,0.0,0.0,0.0,2.3299,2.3327,2.3537,2.4011,0.0,0.0,0.0,0.0,2.6401,2.6133,2.6249,2.6945,0.0,0.0,0.0,0.0,2.7431,2.7336,2.6914,2.6465,2.5939,2.5912,2.5544,2.4905,2.4876,0.0,0.0,2.7324,2.89,3.0491,0.0,0.0,0.0,0.0,0.0,0.0,2.5711,2.4248,2.2644,2.3029,2.3129,2.3229,2.3619,2.4688,2.6133,2.8147,0.0,0.0,0.0,0.0,0.0,0.0,0.0,0.0,0.0,0.0,0.0,4.0279,4.0279,4.0279,4.0279,4.0279,4.0279,4.0279,4.0279,4.0279,4.0279,4.0279,4.0279,4.0279,4.0279,4.0279,4.0279,4.0279,4.0279,4.0279,4.0443,4.0683,4.1,4.1164,4.1481,4.195,4.2442,4.2693,4.2693,4.3021,4.3174,4.3174,4.3174,4.3174,4.3174,4.3174,4.3174,4.3174,4.3174,4.3174,4.3174,4.3174,4.3174,4.3174,4.3174,4.3174,4.3174,0.0,0.0,0.0,0.0,0.0,0.0,0.0,0.0,0.0,0.0,0.0,0.0,0.0,0.0,2.2908,2.3813,2.362,2.401,2.532,2.5584,2.6177,2.75,2.739,2.7336,0.0,0.0,0.0,0.0,0.0,0.0,0.0,0.0,2.674,2.689,2.7086,2.6633,0.0,0.0,0.0,2.7021,0.0,3.0275,3.136,0.0,0.0,0.0,0.0,0.0,0.0,0.0,2.671,2.4941,2.4141,2.3256,2.2529,2.2408,2.3421,2.4865,2.6394,0.0,0.0,0.0,0.0,0.0,0.0,0.0,0.0,0.0,0.0,4.0279,4.0279,4.0279,4.0279,4.0279,4.0279,4.0279,4.0279,4.0279,4.0279,4.0279,4.0279,4.0279,4.0279,4.0279,4.0279,4.0279,4.0279,0.0,4.0279,4.0279,4.0421,4.076,4.0924,4.1153,4.1459,4.1928,4.218,4.218,4.2682,4.2922,4.2933,4.3097,4.3174,4.3174,4.3174,4.3174,4.3174,4.3174,4.3174,4.3174,4.3174,4.3174,4.3174,4.3174,4.3174,4.3174,0.0,0.0,0.0,0.0,0.0,0.0,0.0,0.0,0.0,0.0,0.0,0.0,0.0,0.0,0.0,2.3939,2.3257,2.3975,2.7028,2.6425,2.6546,2.7854,0.0,0.0,0.0,0.0,0.0,0.0,0.0,0.0,0.0,0.0,2.7757,0.0,2.7694,2.6289,2.4914,0.0,2.743,2.71,0.0,3.1338,3.1323,0.0,0.0,0.0,3.3683,3.2823,0.0,3.1537,0.0,2.95,2.6946,2.4461,2.2301,2.2109,2.2912,2.3877,0.0,0.0,0.0,0.0,0.0,0.0,0.0,0.0,0.0,0.0,0.0,4.0279,4.0279,4.0279,4.0279,4.0279,4.0279,4.0279,4.0279,4.0279,4.0279,4.0279,4.0279,4.0279,4.0279,4.0279,4.0279,4.0279,4.0279,4.0279,4.0279,4.0279,4.0279,4.0279,4.0738,4.0989,4.0989,4.1437,4.1666,4.1677,4.2169,4.2398,4.2409,4.2922,4.3163,4.3163,4.3174,4.3174,4.3174,4.3174,4.3174,4.3174,4.3174,4.3174,4.3174,4.3174,4.3174,4.3174,0.0,0.0,0.0,0.0,0.0,0.0,0.0,0.0,0.0,0.0,0.0,0.0,0.0,0.0,0.0,2.2254,2.3224,2.4173,2.5031,2.5903,2.6523,2.6929,2.6378,2.6276,0.0,0.0,0.0,0.0,0.0,0.0,0.0,0.0,0.0,0.0,2.8137,2.7672,2.5881,2.6942,0.0,0.0,3.0958,3.2148,0.0,0.0,0.0,0.0,0.0,3.3369,3.1642,0.0,3.034,2.6602,0.0,0.0,0.0,2.2005,2.2247,2.2795,2.3335,0.0,0.0,0.0,0.0,0.0,0.0,0.0,0.0,3.7866,3.9209,4.0279,4.0279,4.0279,4.0279,4.0279,4.0279,4.0279,4.0279,4.0279,4.0279,4.0279,4.0279,4.0279,4.0279,4.0279,4.0279,0.0,4.0279,4.0279,4.0279,4.0279,4.0279,4.0279,4.041,4.0476,4.0476,4.0956,4.1197,4.1197,4.1666,4.1885,4.1907,4.2409,4.2627,4.2649,4.3021,4.3174,4.3174,4.3174,4.3174,4.3174,4.3174,4.3174,4.3174,4.3174,4.3174,4.3174,0.0,0.0,0.0,0.0,0.0,0.0,0.0,0.0,0.0,0.0,0.0,0.0,0.0,0.0,0.0,2.2832,2.3453,2.4268,2.5197,2.5467,2.5873,2.6446,2.5938,2.5799,2.6168,0.0,0.0,0.0,0.0,0.0,0.0,0.0,0.0,0.0,0.0,0.0,0.0,0.0,0.0,0.0,3.1441,0.0,0.0,3.443,3.555,0.0,0.0,0.0,3.3253,3.4784,3.1826,0.0,0.0,0.0,0.0,0.0,2.1731,2.2132,0.0,0.0,0.0,0.0,0.0,0.0,3.1178,3.4022,3.6872,0.0,3.9493,4.0279,4.0279,4.0279,4.0279,4.0279,4.0279,4.0279,4.0279,4.0279,4.0279,4.0279,4.0279,4.0279,4.0279,4.0279,4.0279,4.0279,4.0279,4.0279,4.0279,4.0279,4.0279,4.0279,4.0279,4.0279,4.0279,4.0563,4.0705,4.0705,4.1175,4.1404,4.1426,4.1896,4.2223,4.2431,4.2726,4.2988,4.3174,4.3174,4.3174,4.3174,4.3174,4.3174,4.3174,4.3174,4.3174,4.3174,0.0,0.0,0.0,0.0,0.0,0.0,0.0,0.0,0.0,0.0,0.0,0.0,0.0,0.0,0.0,0.0,2.3749,2.4147,2.6041,2.4939,2.4804,2.6147,2.6214,2.6098,2.6184,0.0,0.0,0.0,0.0,0.0,0.0,0.0,0.0,0.0,0.0,0.0,0.0,0.0,0.0,2.8323,3.1427,3.2039,0.0,0.0,3.4906,3.377,3.5506,3.5725,3.5375,3.6522,3.3991,0.0,0.0,0.0,0.0,0.0,2.1529,0.0,0.0,0.0,0.0,0.0,0.0,0.0,3.1777,3.3802,3.5667,0.0,3.9561,3.9799,3.9799,3.9799,3.9799,3.9799,3.993,4.0094,4.0257,4.0279,4.0279,4.0279,4.0279,4.0279,4.0279,4.0279,4.0279,4.0279,4.0279,4.0279,4.0279,4.0279,4.0279,4.0279,4.0279,4.0279,4.0279,4.0279,4.0279,4.029,4.0716,4.0924,4.0945,4.1404,4.1852,4.2267,4.2322,4.2627,4.3097,4.3097,4.313,4.3174,4.3174,4.3174,4.3174,4.3174,4.3174,4.3174,0.0,0.0,0.0,0.0,0.0,0.0,0.0,0.0,0.0,0.0,0.0,0.0,0.0,0.0,0.0,0.0,2.3365,2.3863,2.4332,2.406,2.4159,2.4627,2.4115,2.3832,2.4035,2.3644,0.0,0.0,0.0,0.0,0.0,0.0,0.0,0.0,0.0,0.0,0.0,0.0,0.0,2.9446,2.9887,0.0,3.1719,3.4307,3.5845,3.6588,3.697,3.6293,3.507,3.4196,3.3492,3.2437,0.0,0.0,0.0,2.2849,0.0,0.0,0.0,0.0,0.0,0.0,0.0,0.0,2.7138,3.0128,3.2878,0.0,3.5381,3.6806,3.6806,3.6806,3.6806,3.6806,3.7778,3.8936,4.0115,4.0279,4.0279,4.0279,4.0279,4.0279,4.0279,4.0279,4.0279,4.0279,4.0279,4.0279,4.0279,4.0279,4.0279,4.0279,4.0279,4.0279,4.0279,4.0279,4.0279,4.0279,4.0378,4.0421,4.0432,4.0913,4.1197,4.1306,4.1666,4.2114,4.2562,4.2562,4.2802,4.3174,4.3174,4.3174,4.3174,4.3174,4.3174,4.3174,2.3815,0.0,0.0,0.0,0.0,0.0,0.0,0.0,0.0,0.0,0.0,0.0,0.0,0.0,0.0,0.0,0.0,0.0,0.0,2.3673,2.3744,2.4143,2.3178,2.3042,2.384,2.3359,2.3253,0.0,0.0,0.0,0.0,0.0,0.0,0.0,0.0,0.0,0.0,0.0,2.7127,2.8171,3.0599,0.0,3.3594,3.5493,3.6741,3.7374,3.7374,3.6904,3.6184,3.5452,3.3682,0.0,0.0,2.879,2.6482,0.0,2.4081,2.4212,0.0,0.0,0.0,2.285,0.0,0.0,0.0,2.9209,3.1431,3.2924,3.4064,3.507,3.5805,3.5965,3.5965,3.5965,3.7167,3.8106,3.8128,3.9373,4.0279,4.0279,4.0279,4.0279,4.0279,4.0279,4.0279,4.0279,4.0279,4.0279,4.0279,4.0279,4.0279,4.0279,4.0279,4.0279,4.0279,4.0279,4.0279,4.0279,4.0279,4.0279,4.029,4.053,4.0771,4.1022,4.1251,4.1623,4.2049,4.2049,4.2354,4.2824,4.3086,4.3174,4.3174,4.3174,4.3174,4.3174,0.0,0.0,0.0,0.0,0.0,0.0,2.3116,2.2975,0.0,0.0,0.0,0.0,0.0,0.0,0.0,0.0,0.0,0.0,0.0,0.0,2.387,2.4372,2.3044,2.2982,2.4363,2.3717,2.3635,2.4152,0.0,0.0,0.0,0.0,0.0,0.0,0.0,0.0,0.0,0.0,0.0,2.7432,0.0,3.3911,3.4534,3.5998,3.6719,3.6992,3.7276,3.7374,3.733,3.6806,3.4096,3.0923,3.1584,2.9828,0.0,0.0,0.0,0.0,0.0,0.0,0.0,0.0,0.0,2.5706,0.0,0.0,0.0,0.0,0.0,0.0,0.0,0.0,0.0,0.0,0.0,0.0,0.0,3.7735,0.0,3.9449,3.9941,4.017,3.9886,3.9864,3.9973,4.0257,4.0017,3.9984,4.0257,4.0279,4.0279,4.0279,4.0279,4.0279,4.0279,4.0279,4.0279,4.0279,4.0279,4.0279,4.0279,4.0279,4.0487,4.0869,4.0869,4.1131,4.1557,4.1557,4.1841,4.2333,4.2835,4.3086,4.3174,4.3174,4.3174,4.3174,2.4088,2.4007,0.0,0.0,0.0,2.3529,2.3483,2.3474,0.0,0.0,0.0,0.0,0.0,0.0,0.0,0.0,0.0,0.0,2.657,0.0,0.0,2.5216,2.361,2.3538,2.5207,2.4482,2.4106,2.4152,0.0,0.0,0.0,0.0,0.0,0.0,2.672,0.0,0.0,0.0,2.9676,0.0,3.2112,3.2159,0.0,3.3005,3.4349,3.5616,3.6915,3.7374,3.7057,0.0,3.3938,3.2924,0.0,2.9395,3.0937,2.4959,0.0,0.0,0.0,0.0,0.0,0.0,2.4394,0.0,0.0,0.0,2.6915,2.8545,0.0,0.0,0.0,0.0,0.0,0.0,0.0,0.0,3.3475,3.5168,3.6457,3.6457,3.8717,3.9766,3.8477,3.8357,3.8892,4.0181,3.9089,3.8914,4.0214,4.0279,4.0279,4.0279,4.0279,4.0279,4.0279,4.0279,4.0279,4.0279,4.0279,4.0279,4.0279,4.0279,4.0312,4.0356,4.0356,4.064,4.1087,4.1087,4.1361,4.1819,4.2311,4.278,4.3174,4.3174,4.3174,4.3174,2.3108,0.0,0.0,0.0,0.0,2.3103,2.2912,2.2912,0.0,0.0,0.0,0.0,0.0,0.0,0.0,0.0,0.0,2.5798,0.0,0.0,0.0,2.4666,2.3126,2.2966,2.4638,2.3564,2.3266,2.3794,2.3599,0.0,0.0,0.0,0.0,0.0,2.7344,0.0,2.9019,0.0,2.9698,0.0,0.0,0.0,0.0,3.4161,3.5943,3.6544,3.7156,3.7374,3.7287,0.0,3.4582,0.0,0.0,0.0,0.0,2.8327,0.0,0.0,0.0,0.0,0.0,0.0,0.0,0.0,2.4861,0.0,2.4986,0.0,0.0,0.0,0.0,0.0,0.0,0.0,3.2275,0.0,0.0,0.0,3.5879,0.0,0.0,0.0,3.8084,3.887,3.9624,4.0225,3.9711,3.9635,4.0247,4.0279,4.0279,4.0279,4.0279,4.0279,4.0279,4.0279,4.0279,4.0279,4.0279,4.0279,4.0279,4.0279,4.0279,4.0279,4.0279,4.0399,4.0585,4.0585,4.0869,4.1317,4.1513,4.207,4.2769,4.3064,4.3174,4.3174,2.2187,0.0,0.0,0.0,0.0,0.0,0.0,0.0,0.0,0.0,0.0,0.0,2.4221,2.449,0.0,0.0,2.6245,2.6109,0.0,0.0,2.4787,0.0,0.0,0.0,2.4745,2.326,2.2831,2.3508,2.3313,0.0,0.0,0.0,0.0,0.0,0.0,2.8635,3.0211,0.0,0.0,3.0422,3.1537,3.2049,3.2387,3.5835,3.7275,3.7506,3.7506,3.7506,3.7341,3.6697,3.4976,0.0,3.5561,0.0,3.2072,0.0,0.0,0.0,2.5023,0.0,0.0,0.0,0.0,0.0,0.0,0.0,0.0,0.0,0.0,0.0,0.0,0.0,0.0,0.0,0.0,3.2111,0.0,3.286,0.0,0.0,0.0,0.0,0.0,3.8477,3.9264,3.9657,3.9679,3.9853,4.0257,4.0279,4.0279,4.0279,4.0279,4.0279,4.0279,4.0279,4.0279,4.0279,4.0279,4.0279,4.0279,4.0279,4.0279,4.0279,4.0279,4.0279,4.0279,4.0279,4.0487,4.0825,4.0956,4.1426,4.2103,4.2737,4.2966,4.2988,2.1796,2.2495,0.0,0.0,0.0,0.0,0.0,0.0,0.0,0.0,0.0,0.0,0.0,0.0,0.0,0.0,0.0,2.983,2.9653,0.0,2.6946,0.0,0.0,2.363,0.0,2.4304,2.342,2.3429,2.3429,0.0,0.0,0.0,0.0,0.0,0.0,2.7274,2.7819,3.0494,3.2912,3.481,3.4875,3.6176,3.7999,0.0,3.6883,3.7878,3.7878,0.0,0.0,3.5198,3.4612,0.0,0.0,0.0,0.0,0.0,0.0,0.0,0.0,0.0,0.0,2.3913,0.0,0.0,0.0,0.0,2.4289,0.0,0.0,0.0,0.0,0.0,0.0,0.0,0.0,0.0,0.0,0.0,0.0,0.0,0.0,0.0,0.0,3.6074,3.6686,3.8073,3.8171,3.8794,4.0203,4.0279,4.0279,4.0279,4.0279,4.0279,4.0279,4.0279,4.0279,4.0279,4.0279,4.0279,4.0279,4.0279,4.0279,4.0279,4.0279,4.0279,4.0279,4.0279,4.029,4.0356,4.0825,4.1022,4.1164,4.2092,4.2442,4.2518,0.0,0.0,0.0,0.0,0.0,0.0,0.0,2.3152,0.0,0.0,0.0,0.0,0.0,2.6379,2.7106,0.0,0.0,2.8153,2.825,2.6902,0.0,0.0,0.0,2.358,0.0,0.0,0.0,2.3364,0.0,0.0,0.0,0.0,0.0,0.0,0.0,2.8364,0.0,0.0,0.0,0.0,0.0,3.6005,3.752,0.0,3.7943,3.8249,3.8249,3.8209,0.0,3.7362,3.6915,3.6512,3.6758,3.6442,3.5822,3.4695,3.4357,3.3786,0.0,0.0,3.2033,2.7233,0.0,0.0,0.0,0.0,0.0,0.0,0.0,0.0,0.0,0.0,0.0,0.0,2.7953,2.8796,0.0,0.0,0.0,0.0,0.0,0.0,0.0,0.0,3.7582,3.8073,3.9001,3.9755,4.0247,4.0279,4.0279,4.0279,4.0279,4.0279,4.0279,4.0279,4.0279,4.0279,4.0279,4.0279,4.0279,4.0279,4.0279,4.0279,4.0279,4.0279,4.0279,4.0279,4.0279,4.029,4.0454,4.052,4.064,4.159,4.1939,4.2005,2.1745,0.0,0.0,0.0,0.0,0.0,0.0,0.0,0.0,0.0,2.4836,0.0,2.604,0.0,2.6822,0.0,2.7641,2.7684,2.7522,2.6814,0.0,2.699,2.5075,0.0,0.0,0.0,0.0,0.0,0.0,2.3618,0.0,0.0,0.0,0.0,0.0,2.7554,3.0339,0.0,3.2734,0.0,0.0,3.6735,0.0,0.0,3.8281,3.7792,0.0,3.8597,3.8675,3.8894,3.866,3.8346,3.946,3.875,3.7493,3.7449,3.6721,3.5565,3.351,3.4335,0.0,3.0071,3.0381,0.0,2.6036,0.0,2.5604,0.0,0.0,0.0,0.0,0.0,0.0,2.7318,2.7584,2.7904,0.0,2.9289,0.0,0.0,0.0,0.0,0.0,3.5037,3.6806,3.8018,3.8816,3.9548,4.0247,4.0279,4.0279,4.0279,4.0279,4.0279,4.0279,4.0279,4.0279,4.0279,4.0777,4.0777,4.0279,4.0777,4.0777,4.0279,4.0279,4.0279,4.0279,4.0279,4.0279,4.0279,4.0279,4.0279,4.0367,4.1153,4.1557,4.1732,0.0,0.0,0.0,0.0,2.2719,0.0,0.0,0.0,2.3135,0.0,2.4459,2.483,2.5951,2.6739,2.7321,2.7664,2.8374,2.8494,2.7732,2.7638,0.0,0.0,2.6568,2.6465,2.7578,0.0,0.0,0.0,0.0,0.0,0.0,0.0,0.0,0.0,2.3019,0.0,2.838,2.8718,3.1666,3.6428,3.8052,3.854,3.8399,3.9072,3.817,3.6782,3.85,3.8875,3.883,3.9369,3.9569,3.9668,4.0137,4.0279,4.0279,4.0279,4.0279,3.9735,3.6851,3.5984,3.53,3.2418,3.1626,0.0,0.0,0.0,2.8606,0.0,0.0,0.0,0.0,0.0,0.0,2.9331,2.7584,2.6426,2.8456,0.0,2.8861,0.0,3.0078,0.0,3.2798,3.3071,3.4513,3.7756,3.7636,3.8248,0.0,4.0214,4.0203,4.0279,4.0279,4.0279,4.0409,4.0279,4.0398,4.0528,4.1655,4.1655,4.0528,4.1783,4.1655,4.0409,4.0279,4.0279,4.0279,4.0279,4.0279,4.0279,4.0279,4.0279,4.0334,4.0804,4.1262,4.1655,1.9657,1.969,2.02,0.0,2.1221,2.1403,0.0,0.0,0.0,0.0,2.6278,2.7315,2.7955,2.846,2.8777,2.8871,2.9059,0.0,0.0,0.0,0.0,2.8837,2.6987,2.6465,2.7578,2.6045,2.5232,2.5232,0.0,0.0,2.4076,0.0,0.0,0.0,0.0,0.0,2.8399,2.8521,3.1463,3.6104,3.7856,3.7825,3.689,0.0,3.8095,3.7005,3.8874,3.9568,3.9715,3.9842,4.0045,4.0115,4.0236,4.0279,4.0279,4.0279,4.0279,4.017,3.94,3.913,3.8401,3.5362,3.4652,3.406,0.0,0.0,0.0,0.0,0.0,0.0,0.0,0.0,0.0,0.0,2.5607,2.6137,0.0,0.0,0.0,2.9248,3.0898,3.1728,3.1018,3.3191,3.5168,3.6424,3.7385,3.8608,4.0192,0.0,3.9154,4.0247,4.0279,4.0777,4.1783,4.0788,4.1259,4.3232,4.265,4.265,4.3232,4.2523,4.2166,4.1795,4.0788,4.0279,4.0279,4.0279,4.0279,4.0279,4.0279,4.0279,4.029,4.0421,4.0771,4.1186,1.7858,0.0,0.0,2.0329,0.0,0.0,2.322,2.3617,0.0,2.5656,2.6589,0.0,2.8169,2.8896,2.9307,2.9307,2.9307,0.0,2.8597,0.0,0.0,2.8563,2.7826,2.7706,2.834,2.7201,0.0,2.6114,0.0,0.0,2.4222,0.0,0.0,0.0,0.0,2.4566,0.0,2.8422,3.0965,3.4286,3.6378,3.7144,0.0,3.778,3.8077,3.8111,3.8671,3.9319,3.9952,4.0045,4.0179,4.0279,4.0279,4.0279,4.0279,4.0279,4.0279,4.0279,4.0279,4.0279,3.9877,3.825,3.773,3.7095,3.4452,3.4034,3.4227,0.0,3.3569,3.3065,0.0,0.0,0.0,0.0,0.0,0.0,0.0,0.0,0.0,0.0,3.0319,3.0876,3.0275,3.3364,3.5457,3.5616,3.652,3.7331,3.8018,0.0,3.8477,3.9296,4.0573,4.1539,4.2293,4.2143,4.2741,4.4214,4.4127,4.4115,4.4214,4.4115,4.363,4.3004,4.1772,4.1153,4.1164,4.0528,4.0279,4.0279,4.0279,4.0279,4.0279,4.0279,4.0454,4.0683,0.0,0.0,0.0,0.0,0.0,0.0,0.0,2.3963,0.0,2.6247,0.0,2.6747,2.7723,2.8717,2.9307,2.9307,0.0,2.8888,2.7895,2.8759,2.8871,2.7869,2.8777,2.9307,2.9307,2.858,2.7801,0.0,0.0,0.0,0.0,0.0,0.0,0.0,0.0,0.0,0.0,2.8464,3.0585,3.1907,3.4585,3.6452,3.7477,3.6928,3.7742,3.9163,3.8291,3.883,4.0085,4.0267,4.0279,4.0279,4.0279,4.0279,4.0279,4.0279,4.0279,4.0279,4.0279,4.0279,4.0279,4.0279,4.0279,3.9671,3.7382,3.6971,3.696,3.7316,3.5355,3.4954,3.9792,0.0,0.0,0.0,0.0,0.0,0.0,0.0,0.0,0.0,0.0,0.0,3.0384,3.3435,3.5233,3.4928,3.5233,3.5398,3.5474,0.0,3.7931,3.8379,4.0977,4.2408,4.2535,4.3618,4.4338,4.4707,4.5718,4.5718,4.4707,4.5718,4.5597,4.4338,4.3142,4.2535,4.2408,4.1271,4.0647,4.0528,4.0528,4.0398,4.0279,4.0279,4.0279,4.0279,0.0,0.0,0.0,0.0,0.0,2.3235,2.5366,2.6251,2.6859,2.7261,2.8134,2.8794,2.8991,2.9188,2.9307,2.9307,2.9307,0.0,0.0,0.0,0.0,2.9016,2.9205,2.9307,2.9307,2.858,2.7664,0.0,0.0,0.0,0.0,0.0,0.0,0.0,0.0,0.0,2.6179,2.8582,0.0,3.1546,3.3506,3.4427,3.4704,3.531,3.6486,3.7869,3.7992,3.9061,4.0289,4.0247,4.0279,4.0279,4.0279,4.0279,4.0279,4.0279,4.0279,4.0279,4.0279,4.0279,4.0279,4.0279,4.0279,4.0203,3.9682,3.9628,3.9628,3.9746,3.9293,3.8637,3.7445,0.0,0.0,0.0,0.0,0.0,0.0,0.0,0.0,0.0,0.0,3.3453,3.1564,3.24,3.3145,3.341,3.32,3.4197,3.685,0.0,3.7003,0.0,4.1531,4.2776,0.0,0.0,4.5329,4.7442,4.6585,4.6704,4.7442,4.6585,4.6093,4.5718,4.4473,4.3855,4.3855,4.3595,4.2879,4.1911,4.1911,4.1282,4.0279,4.0279,4.0279,4.0279,0.0,0.0,0.0,0.0,0.0,0.0,0.0,2.7766,2.828,2.7681,2.8083,2.8426,2.8426,2.8956,2.9307,2.9307,2.9307,2.9307,2.9307,2.9307,2.9307,2.9307,2.9307,2.9307,2.9307,2.8956,2.7929,2.6442,0.0,0.0,0.0,0.0,0.0,0.0,0.0,2.4272,0.0,0.0,0.0,3.0889,3.2235,3.3608,3.4576,3.4194,3.5152,3.6716,3.6938,3.7965,3.9331,4.0007,4.0279,4.0279,4.0279,4.0279,4.0279,4.0279,4.0279,4.0279,4.0279,4.0279,4.0279,4.0279,4.0279,4.0279,4.0279,4.0279,4.0279,4.0279,4.0279,3.9487,3.6623,3.4087,0.0,0.0,0.0,0.0,0.0,0.0,3.3781,0.0,0.0,0.0,3.2459,3.1695,0.0,0.0,0.0,3.3988,3.6129,0.0,3.6413,0.0,0.0,0.0,4.4214,0.0,4.6942,4.8185,4.7573,4.7573,4.8185,4.756,4.7205,4.7193,4.5839,4.522,4.5208,4.4461,4.3855,4.3255,4.2523,4.1922,4.1282,4.0528,4.0279,4.0279,0.0,2.0672,0.0,0.0,2.4819,0.0,2.7335,2.8571,2.8991,2.8083,2.7963,2.7963,2.7963,2.8768,2.9307,2.9307,2.9307,2.9307,2.9307,2.9307,2.9307,2.9307,2.9307,2.9307,2.9307,2.9307,2.8449,0.0,0.0,0.0,0.0,0.0,0.0,0.0,0.0,0.0,0.0,0.0,2.8897,3.0239,3.1231,3.2712,3.424,3.3102,3.387,3.55,3.5772,3.6874,3.8385,3.9735,4.0279,4.0279,4.0279,4.0279,4.0279,4.0279,4.0279,4.0279,4.0279,4.0279,4.0279,4.0279,4.0279,4.0279,4.0279,4.0279,4.0279,4.0279,4.0279,3.9443,3.6455,3.5202,0.0,0.0,0.0,0.0,0.0,0.0,3.4678,0.0,0.0,0.0,3.3683,3.2317,0.0,0.0,0.0,0.0,3.4982,0.0,0.0,0.0,0.0,4.3477,4.3709,0.0,4.7938,4.8185,4.8185,4.8185,4.8185,4.8185,4.8185,4.8185,4.7074,4.6585,4.6585,4.5463,4.4841,4.4473,4.3505,4.2902,4.2523,4.1153,4.0788,4.0658,0.0,0.0,0.0,0.0,0.0,2.7361,2.7586,2.8571,2.9273,2.9162,2.9153,2.9153,2.9153,2.9248,2.9307,2.9307,2.9307,2.9307,2.9307,2.9307,2.9307,2.9307,2.9307,2.9307,2.9307,2.9307,2.87,0.0,0.0,2.5075,0.0,0.0,0.0,0.0,0.0,0.0,0.0,2.7878,2.8879,3.0062,3.072,3.1219,3.1461,3.166,3.2622,3.4011,3.5364,3.6874,3.8385,3.9735,4.0279,4.0279,4.0279,4.0279,4.0279,4.0279,4.0279,4.0279,4.0279,4.0279,4.0279,4.0279,4.0279,4.0279,4.0279,4.0279,4.0279,4.0279,4.0279,3.9552,3.6887,3.8177,3.8776,0.0,0.0,0.0,0.0,0.0,3.9126,3.7931,0.0,0.0,3.5812,3.5528,0.0,0.0,3.3683,0.0,0.0,0.0,0.0,3.8051,3.9662,4.1032,4.2321,4.4985,4.6955,4.8185,4.8185,4.8185,4.8185,4.8185,4.8185,4.8185,4.8068,4.8055,4.8055,4.7938,4.7074,4.5972,4.5851,4.5098,4.3855,4.2523,4.2166,4.1911,0.0,0.0,0.0,0.0,0.0,0.0,0.0,2.9016,2.9307,2.9307,2.9307,2.9307,2.9307,2.9307,2.9307,2.9307,2.9307,2.9307,2.9307,2.9307,2.9307,2.9307,2.9307,2.9307,2.9307,2.9307,2.864,0.0,0.0,0.0,0.0,0.0,0.0,0.0,0.0,2.6667,2.7945,2.8888,2.9744,3.0592,3.0891,3.1148,3.1362,3.1508,3.1973,3.2657,3.4011,3.551,3.7008,3.8507,3.9593,4.0279,4.0279,4.0279,4.0279,4.0279,4.0279,4.0279,4.0279,4.0279,4.0279,4.0279,4.0279,4.0279,4.0279,4.0279,4.0279,4.0279,4.0279,3.9964,3.898,3.8673,3.8592,3.8658,0.0,0.0,0.0,0.0,0.0,3.9482,0.0,3.756,3.7276,3.645,0.0,0.0,0.0,0.0,0.0,0.0,0.0,3.8073,0.0,4.1735,4.2216,4.4913,4.6465,4.6955,4.7821,4.8185,4.8185,4.8185,4.8185,4.8185,4.8185,4.8185,4.8185,4.8185,4.7938,4.7324,4.6465,4.5851,4.522,4.3867,4.3494,4.3369,2.6362,0.0,2.6782,0.0,2.8109,2.8383,2.9188,2.9307,2.9307,2.9307,2.9307,2.9307,2.9307,2.9307,2.9307,2.9307,2.9307,2.9307,2.9307,2.9307,2.9307,2.9307,2.9307,0.0,2.9307,2.9307,2.8914,2.7963,2.6819,0.0,0.0,0.0,0.0,0.0,2.7097,2.7868,2.8645,2.9817,3.0532,3.1028,3.114,3.1337,3.1568,3.1568,3.1568,3.1841,3.3206,3.4424,3.551,3.7008,3.8098,3.9178,4.0007,4.0279,4.0279,4.0279,4.0279,4.0279,4.0279,4.0279,4.0279,4.0279,4.0279,4.0279,4.0279,4.0279,4.0279,4.0279,4.0279,4.0279,4.0279,3.9154,3.8674,4.0061,0.0,0.0,0.0,4.0279,0.0,3.9632,3.847,3.7669,3.801,3.7044,0.0,0.0,0.0,0.0,0.0,0.0,0.0,0.0,0.0,0.0,4.1616,4.3899,4.5476,4.6225,4.7193,4.7821,4.8185,4.8185,4.8185,4.8185,4.8185,4.8185,4.8185,4.8185,4.8185,4.8068,4.7193,4.6836,4.6585,4.5329,4.4841,4.4719,2.7372,2.7586,2.7946,2.9093,2.929,2.929,2.9307,2.9307,2.9307,2.9307,2.9307,2.9307,2.9307,2.9307,2.9307,2.9307,2.9307,2.9307,2.9307,2.9307,2.9307,0.0,0.0,2.9307,2.9307,2.9307,2.9299,2.9282,0.0,0.0,2.734,0.0,2.6019,2.7569,2.7586,2.8443,2.9924,3.0677,3.1003,3.1046,3.1414,3.1559,3.1568,3.1568,3.1568,3.1841,3.3206,3.3743,3.3882,3.5374,3.5908,3.6449,3.932,4.0279,4.0279,4.0279,4.0279,4.0279,4.0279,4.0279,4.0279,4.0279,4.0279,4.0279,4.0279,4.0279,4.0279,4.0279,4.0279,4.0279,4.0279,4.0257,4.0247,4.0268,0.0,0.0,0.0,4.0279,0.0,3.8034,3.7955,3.8043,3.7824,3.7933,0.0,0.0,0.0,0.0,0.0,0.0,0.0,3.8106,3.8117,0.0,4.0151,4.166,4.3642,4.6225,4.6225,4.6955,4.8185,4.8185,4.8185,4.8185,4.8185,4.8185,4.8185,4.8185,4.8185,4.8185,4.8185,4.8185,4.8055,4.6704,4.6225,4.5972,2.87,2.8768,2.8879,2.9248,2.9307,2.9307,2.9307,2.9307,2.9307,2.9307,2.9307,2.9307,2.9307,2.9307,2.9307,0.0,2.9307,2.9307,0.0,2.9307,2.9307,2.9307,2.9307,2.9307,2.9307,2.9307,2.9307,2.9307,0.0,0.0,0.0,2.6815,2.7486,2.917,2.917,2.9727,3.0677,3.0917,3.1157,3.1397,3.1516,3.1568,3.1568,3.1568,3.1568,3.1709,3.2114,3.2936,3.3752,3.4286,3.51,3.6044,3.6998,3.7965,3.9057,4.0007,4.0279,4.0279,4.0279,4.0279,4.0279,4.0279,4.0279,4.0279,4.0279,4.0279,4.0279,4.0279,4.0279,4.0279,4.0279,4.0279,4.0279,4.0279,4.0279,0.0,4.0279,0.0,4.005,3.9566,3.9621,3.9526,3.95,3.9737,0.0,0.0,0.0,0.0,0.0,0.0,0.0,0.0,3.9067,0.0,4.0207,4.1672,4.2661,4.3517,4.5366,4.6955,4.8185,4.8185,4.8185,4.8185,4.8185,4.8185,4.8185,4.8185,4.8185,4.8185,4.8185,4.8185,4.8185,4.769,4.7573,4.7442,2.9307,2.9307,2.9307,2.9307,2.9307,2.9307,2.9307,2.9307,2.9307,2.9307,2.9307,2.9307,2.9307,2.9307,0.0,2.9307,2.9307,2.9307,2.9307,2.9307,2.9307,2.9307,2.9307,2.9307,2.9307,2.9307,0.0,2.9307,2.8597,2.8323,2.846,2.8237,2.8837,3.0104,3.0249,3.0575,3.1028,3.1165,3.1354,3.1568,3.1568,3.1568,3.1568,3.1568,3.1568,3.1568,3.1568,3.2114,3.2927,3.2927,3.3466,3.4424,3.4964,3.6054,3.7554,3.9057,3.9877,4.0279,4.0279,4.0279,4.0279,4.0279,4.0279,4.0279,4.0279,4.0279,4.0279,4.0279,4.0279,4.0279,4.0279,4.0279,4.0279,4.0279,4.0279,4.0279,4.0279,4.0279,4.0006,3.9412,3.9489,3.9395,0.0,3.9605,3.9561,0.0,0.0,0.0,0.0,0.0,3.9296,3.8936,3.9799,4.0279,4.0279,4.1164,4.1783,4.2281,4.4988,4.6955,4.8185,4.8185,4.8185,4.8185,4.8185,4.8185,4.8185,4.8185,4.8185,4.8185,4.8185,4.8185,4.8185,4.8185,4.8185,4.8185,2.9438,2.9438,2.9438,2.9438,2.9316,2.9307,2.9316,2.9307,2.9307,2.9307,2.9307,2.9316,2.935,2.935,2.9359,2.9384,0.0,0.0,2.9307,2.9307,2.9307,2.9307,2.9307,2.9307,2.9307,2.9307,2.9325,2.935,2.9376,2.9573,2.9932,2.9932,3.0129,3.0489,3.0857,3.1028,3.108,3.1422,3.1568,3.1568,3.1568,3.1568,3.1568,3.1568,3.1568,3.1568,3.1568,3.1568,3.1568,3.1568,3.1568,3.1841,3.3206,3.4699,3.6179,3.7698,3.9188,4.0279,4.0279,4.0279,4.0279,4.0279,4.0279,4.0279,4.0279,4.0279,4.0279,4.0279,4.0279,4.0279,4.0279,4.0279,4.0279,4.0279,4.0279,4.0279,4.0279,4.0279,3.9741,3.8188,0.0,0.0,3.8012,3.813,3.8783,0.0,0.0,0.0,0.0,0.0,3.8772,4.0225,4.0279,4.0279,4.0279,4.0279,4.0906,4.2293,4.4866,4.6836,4.8055,4.8185,4.8185,4.8185,4.8185,4.8185,4.8185,4.8185,4.8185,4.8185,4.8185,4.8185,4.8185,4.8185,4.8185,4.8185,0.0,0.0,3.0732,3.0222,3.0091,2.9831,2.9438,2.9307,2.9307,2.9307,2.9307,2.9427,2.9727,2.9761,2.9864,3.0138,2.9641,2.9307,2.9307,2.9307,2.9307,2.9307,2.9307,2.9307,2.9307,2.9307,2.9453,2.9761,3.0027,3.0206,3.0301,3.0301,3.0506,3.0883,3.0977,3.1174,3.1439,3.1534,3.1568,3.1568,3.1568,3.1568,3.1568,3.1568,3.1568,3.1568,3.1568,3.1568,3.1568,3.1568,3.1568,3.1709,3.1973,3.3882,3.6179,3.7698,3.9188,4.0279,4.0279,4.0279,4.0279,4.0279,4.0279,4.0279,4.0279,4.0279,4.0279,4.0279,4.0279,4.0279,4.0279,4.0279,4.0279,4.0279,4.0279,4.0279,4.0279,4.0279,4.0105,0.0,3.97,3.9722,3.973,3.97,3.9449,0.0,0.0,3.8619,3.8619,3.8292,3.8772,4.0225,4.0279,4.0279,4.0279,4.0279,4.0906,4.2293,4.4139,4.5609,4.6704,4.769,4.8185,4.8185,4.8185,4.8185,4.8185,4.8185,4.8185,4.8185,4.8185,4.8185,4.8185,4.8185,4.8185,4.8185,3.2228,3.1735,3.112,3.0482,3.0352,3.0091,2.9438,2.9462,2.9581,2.9581,2.9718,2.9907,3.0121,3.0138,3.0215,3.0412,3.0052,2.9821,2.9821,2.9821,2.9821,2.9821,2.9821,2.9821,2.9821,2.9821,2.9924,3.0138,3.0335,3.0523,3.0694,3.0694,3.09,3.1268,3.1268,3.1379,3.1568,3.1568,3.1568,3.1568,3.1568,3.1568,3.1568,3.1568,3.1568,3.1568,3.1568,3.1568,3.1568,3.1568,3.1568,3.17,3.2386,3.4149,3.6179,3.7698,3.9188,4.0279,4.0279,4.0279,4.0279,4.0279,4.0279,4.0279,4.0279,4.0279,4.0279,4.0279,4.0279,4.0279,4.0279,4.0279,4.0279,4.0279,3.9722,3.9515,4.0181,3.9711,3.9526,4.0203,4.0279,4.0279,4.0279,4.0279,3.9952,3.9154,3.91,0.0,3.91,3.91,3.946,4.0247,4.0279,4.0279,4.0279,4.0398,4.1282,4.2776,4.4139,4.5366,4.6465,4.769,4.8185,4.8185,4.8185,4.8185,4.8185,4.8185,4.8185,4.8185,4.8185,4.8185,4.8185,4.8185,4.8185,4.8185,3.3938,3.3087,3.1991,3.1102,3.0906,3.0553,2.9656,2.9727,2.9984,2.9984,3.0241,3.0455,3.0506,3.0515,3.054,3.06,3.06,3.0549,3.0438,3.0429,3.0429,3.0429,3.0429,3.0429,3.0429,3.0489,3.0515,3.0515,3.0575,3.0772,3.1097,3.1097,3.1268,3.1568,3.1568,3.1568,3.1568,3.1568,3.1568,3.1568,3.1568,3.1568,3.1568,3.1568,3.1568,3.1568,3.1568,3.1568,3.1568,3.1568,3.17,3.2114,3.3345,3.4836,3.6459,3.7698,3.9188,4.0279,4.0279,4.0279,4.0279,4.0279,4.0279,4.0279,4.0279,4.0279,4.0279,4.0279,4.0279,4.0279,4.0279,4.0279,4.0203,3.9984,3.91,3.8794,3.981,0.0,3.8892,4.0126,4.0279,4.0279,4.0279,4.0279,4.0279,4.0279,4.0279,4.0279,4.0279,4.0279,4.0279,4.0279,4.0279,4.0279,4.0398,4.0777,4.1655,4.2902,4.4015,4.511,4.6333,4.7442,4.8055,4.8185,4.8185,4.8185,4.8185,4.8185,4.8185,4.8185,4.8185,4.8185,4.8185,4.8185,4.8185,4.8185,3.6671,3.656,3.5816,3.3968,3.3525,3.2737,3.0954,3.0498,3.0343,3.0343,3.0395,3.0557,3.0891,3.0926,3.1046,3.1362,3.1388,3.1114,3.0472,3.0429,3.0429,3.0429,3.0429,3.0429,3.0429,3.0754,3.0926,3.0926,3.1234,3.1422,3.1482,3.1482,3.1508,3.1568,3.1568,3.1568,3.1568,3.1568,3.1568,3.1568,3.1568,3.1568,3.1568,3.1568,3.1568,3.1568,3.1568,3.1568,3.1568,3.1568,3.2386,3.3475,3.3614,3.552,3.7832,3.7975,3.9188,4.0279,4.0279,4.0279,4.0279,4.0279,4.0279,4.0279,4.0279,4.0279,4.0279,4.0279,4.0279,4.0279,4.0279,4.0279,3.9875,3.8641,3.9285,3.9591,3.8586,0.0,4.0028,4.0247,4.0279,4.0279,4.0279,4.0279,4.0279,4.0279,4.0279,4.0279,4.0279,4.0279,4.0279,4.0279,4.0279,4.0398,4.0777,4.1293,4.1539,4.1271,4.2764,4.3867,4.4584,4.596,4.7087,4.8185,4.8185,4.8185,4.8185,4.8185,4.8185,4.8185,4.8185,4.8185,4.8185,4.8185,4.8185,4.8185,3.8257,3.7779,3.7011,3.6018,3.536,3.4694,3.3637,3.3254,3.2872,3.2069,3.212,3.192,3.1425,3.1311,3.1379,3.1551,3.1568,3.1414,3.1063,3.1046,3.1046,3.1046,3.1046,3.1046,3.1046,3.1217,3.1311,3.1311,3.1482,3.1568,3.1568,3.1568,3.1568,3.1568,3.1568,3.1568,3.17,3.2386,3.2797,3.2797,3.2797,3.2797,3.2657,3.1833,3.1568,3.1568,3.1568,3.2114,3.2657,3.1841,3.2526,3.3882,3.4699,3.5782,3.7287,3.8782,3.9735,4.0279,4.0279,4.0279,4.0279,4.0279,4.0279,4.0279,4.0279,4.0279,4.0279,4.0279,4.0279,4.0279,4.0279,4.0279,4.0061,3.9384,3.9176,3.9143,3.9264,3.9176,3.9406,4.0181,4.0279,4.0279,4.0279,4.0279,4.0279,4.0279,4.0279,4.0279,4.0279,4.0279,4.0279,4.0279,4.0279,4.0528,4.1035,4.1164,4.1164,4.1046,4.2408,4.3517,4.4485,4.5718,4.6955,4.8185,4.8185,4.8185,4.8185,4.8185,4.8185,4.8185,4.8185,4.8185,4.8185,4.8185,4.8185,4.8185,3.9709,3.8964,3.8308,3.7808,3.7427,3.6929,3.6506,3.6052,3.5296,3.4209,3.4091,3.3743,3.2648,3.2657,3.2657,3.2657,3.2246,3.2114,3.2114,3.1841,3.1568,3.1568,3.1568,3.1568,3.1568,3.1568,3.1568,3.1568,3.1973,3.2114,3.2114,3.2377,3.2657,3.2657,3.2657,3.2657,3.2657,3.3743,3.4149,3.4149,3.4149,3.4149,3.4158,3.3067,3.2657,3.2657,3.2657,3.3336,3.402,3.2927,3.3614,3.4973,3.6054,3.6594,3.7411,3.9593,4.0279,4.0279,4.0279,4.0279,4.0279,4.0279,4.0279,4.0279,4.0279,4.0279,4.0279,4.0279,4.0279,4.0279,4.0279,4.0279,4.017,3.9831,0.0,3.8881,3.9668,3.91,3.9023,4.0148,4.0279,4.0279,4.0279,4.0279,4.0279,4.0279,4.0279,4.0279,4.0279,4.0279,4.0279,4.0398,4.0409,4.0658,4.1175,4.1035,4.1035,4.1175,4.1911,4.3016,4.4139,4.5232,4.6453,4.769,4.8055,4.8185,4.8185,4.8185,4.8185,4.8185,4.8185,4.8185,4.8185,4.8185,4.8185,4.8185,4.1057,4.1337,4.1306,3.9974,3.996,3.9666,3.8413,3.739,3.6764,3.6619,3.614,3.5636,3.5636,3.5636,3.5636,3.5636,3.4286,3.3614,3.3614,3.2386,3.1568,3.1568,3.1568,3.1568,3.1568,3.1568,3.1568,3.1568,3.2927,3.3614,3.3614,3.4964,3.5636,3.5636,3.5636,3.5636,3.5636,3.5636,3.5772,3.5772,3.5772,3.5772,3.5772,3.5636,3.5636,3.5636,3.5636,3.5636,3.5772,3.5636,3.6604,3.7832,3.7842,3.8914,4.0007,4.0279,4.0279,4.0279,4.0279,4.0279,4.0279,4.0279,4.0279,4.0279,4.0279,4.0279,4.0279,4.0279,4.0279,4.0279,4.0279,4.0279,3.9831,3.8488,0.0,0.0,3.8444,3.9329,4.0159,4.0268,4.0279,4.0279,4.0279,4.0279,4.0279,4.0279,4.0279,4.0279,4.0279,4.0279,4.0398,4.0777,4.0766,4.0777,4.0906,4.1175,4.1175,4.0906,4.0895,4.1527,4.2535,4.3743,4.5086,4.6465,4.769,4.8185,4.8185,4.8185,4.8185,4.8185,4.8185,4.8185,4.8185,4.8185,4.8185,4.8185,4.0583,4.0998,4.1342,4.1181,4.1053,4.108,4.0878,3.9801,3.874,3.8046,3.74,3.6739,3.6044,3.5908,3.5908,3.5908,3.5364,3.51,3.51,3.4552,3.3466,3.17,3.1568,3.1568,3.1568,3.2526,3.2936,3.2936,3.4286,3.51,3.51,3.5636,3.5908,3.5908,3.5908,3.5908,3.5908,3.6874,3.7287,3.7287,3.7287,3.7287,3.7143,3.6189,3.5908,3.5908,3.5908,3.6459,3.7143,3.6179,3.6874,3.8109,3.8109,3.8517,3.9057,4.0007,4.0279,4.0279,4.0279,4.0279,4.0279,4.0279,4.0279,4.0279,4.0279,4.0279,4.0279,4.0279,4.0279,4.0279,4.0279,4.0279,4.0094,3.9548,0.0,4.0083,3.9526,3.993,4.0279,4.0279,4.0279,4.0279,4.0279,4.0279,4.0279,4.0279,4.0279,4.0279,4.0279,4.0279,4.0398,4.0528,4.0528,4.0647,4.0766,4.0658,4.0658,4.0528,4.0528,4.1153,4.2281,4.3618,4.4964,4.6225,4.7573,4.8185,4.8185,4.8185,4.8185,4.8185,4.8185,4.8185,4.8185,4.8185,4.8185,4.8185,4.0434,4.0893,4.1422,4.1951,4.2075,4.2142,4.2627,4.1667,4.0625,3.9921,3.9156,3.8364,3.7411,3.7266,3.7277,3.7143,3.6729,3.6459,3.6459,3.6054,3.4973,3.3067,3.2919,3.2919,3.2919,3.3882,3.4424,3.4424,3.5918,3.6594,3.6594,3.6998,3.7266,3.7266,3.7266,3.7266,3.7411,3.8374,3.8782,3.8782,3.8782,3.8782,3.865,3.7678,3.7266,3.7266,3.7266,3.7955,3.865,3.7678,3.7955,3.8782,3.8782,3.8782,3.9057,4.0007,4.0279,4.0279,4.0279,4.0279,4.0279,4.0279,4.0279,4.0279,4.0279,4.0279,4.0279,4.0279,4.0279,4.0279,4.0279,4.0279,4.0279,4.0279,4.0279,4.0279,4.0279,4.0279,4.0279,4.0279,4.0279,4.0279,4.0279,4.0279,4.0279,4.0279,4.0279,4.0279,4.0279,4.0279,4.0279,4.0279,4.0149,4.0268,4.0647,4.0398,4.0279,4.0279,4.0279,4.0777,4.1783,4.3482,4.4707,4.5718,4.7442,4.8185,4.8185,4.8185,4.8185,4.8185,4.8185,4.8185,4.8185,4.8185,4.8185,4.8185,4.0893,4.1433,4.1974,4.2468,4.2973,4.3314,4.3314,4.2673,4.2293,4.2293,4.1678,4.1046,4.0409,4.0279,4.0149,3.9757,3.8395,3.7575,3.7575,3.6219,3.5529,3.5908,3.5908,3.5908,3.5908,3.5908,3.5908,3.5908,3.7421,3.8109,3.8109,3.9604,4.0279,4.0279,4.0279,4.0279,4.0279,4.0279,4.0279,4.0279,4.0279,4.0279,4.0279,4.0279,4.0279,4.0279,4.0279,4.0279,4.0279,4.0279,4.0279,4.0279,4.0279,4.0279,4.0279,4.0279,4.0279,4.0279,4.0279,4.0279,4.0279,4.0279,4.0279,4.0279,4.0279,4.0279,4.0279,4.0279,4.0279,4.0279,4.0279,4.0279,4.0279,4.0279,4.0279,4.0279,4.0279,4.0279,4.0279,4.0279,4.0279,4.0279,4.0279,4.0279,4.0279,4.0279,4.0279,4.0279,4.0279,4.0279,4.0279,4.0279,3.9888,3.9888,4.0279,4.0279,4.0279,4.0279,4.0279,4.0279,4.0398,4.2993,4.4214,4.4338,4.7061,4.8185,4.8185,4.8185,4.8185,4.8185,4.8185,4.8185,4.8185,4.8185,4.8185,4.8185,4.031,4.071,4.123,4.1727,4.2235,4.2581,4.2581,4.2061,4.1678,4.1922,4.1421,4.0906,4.1046,4.1046,4.0917,4.0517,4.0105,3.9583,3.9067,3.8395,3.8119,3.8252,3.6739,3.5908,3.5908,3.6874,3.7421,3.7421,3.8914,3.9604,3.9604,4.0138,4.0279,4.0279,4.0279,4.0279,4.0279,4.0279,4.0279,4.0279,4.0279,4.0279,4.0279,4.0279,4.0279,4.0279,4.0279,4.0279,4.0279,4.0279,4.0279,4.0279,4.0279,4.0279,4.0279,4.0279,4.0279,4.0279,4.0279,4.0279,4.0279,4.0279,4.0279,4.0279,4.0279,4.0279,4.0279,4.0279,4.0279,4.0279,4.0279,4.0279,4.0279,4.0279,4.0279,4.0279,4.0279,4.0279,4.0279,4.0279,4.0279,4.0279,4.0279,4.0279,4.0279,4.0279,4.0279,4.0279,4.0279,4.0279,4.0149,3.9888,4.0018,4.0018,3.9888,3.9888,4.0018,4.0279,4.0279,4.0279,4.0398,4.2993,4.4214,4.4338,4.7061,4.8185,4.8185,4.8185,4.8185,4.8185,4.8185,4.8185,4.8185,4.8185,4.8185,4.8185,4.0226,4.0605,4.1042,4.1753,4.2132,4.2339,4.2339,4.1956,4.1817,4.1934,4.1678,4.1421,4.1304,4.1304,4.1175,4.0647,4.0528,4.0268,4.0018,3.9483,3.922,3.9352,3.7975,3.7153,3.7153,3.8242,3.8793,3.8793,3.9746,4.0279,4.0279,4.0279,4.0279,4.0279,4.0279,4.0279,4.0279,4.0279,4.0279,4.0279,4.0279,4.0279,4.0279,4.0279,4.0279,4.0279,4.0279,4.0279,4.0279,4.0279,4.0279,4.0279,4.0279,4.0279,4.0279,4.0279,4.0279,4.0279,4.0279,4.0279,4.0279,4.0279,4.0279,4.0279,4.0279,4.0279,4.0279,4.0279,4.0279,4.0279,4.0279,4.0279,4.0279,4.0279,4.0279,4.0279,4.0279,4.0279,4.0279,4.0279,4.0279,4.0279,4.0279,4.0279,4.0279,4.0018,4.0018,4.0007,3.9877,3.9877,3.9746,3.9483,3.9746,3.9757,3.9757,3.9757,3.9888,4.0279,4.0279,4.0279,4.0398,4.2993,4.4214,4.4338,4.7061,4.8185,4.8185,4.8185,4.8185,4.8185,4.8185,4.8185,4.8185,4.8185,4.8185,4.8185,4.0617,4.0823,4.1145,4.2155,4.2339,4.2339,4.2339,4.2339,4.2339,4.2339,4.2339,4.2084,4.1433,4.1433,4.1046,4.0409,3.9888,3.9757,4.0279,3.9615,3.9352,3.9625,3.9352,3.9088,3.9088,3.9483,3.9625,3.9625,4.0018,4.0149,4.0149,4.0149,4.0279,4.0279,4.0279,4.0279,4.0279,4.0279,4.0279,4.0279,4.0279,4.0279,4.0279,4.0279,4.0279,4.0279,4.0279,4.0279,4.0279,4.0279,4.0279,4.0279,4.0279,4.0279,4.0279,4.0279,4.0279,4.0279,4.0279,4.0279,4.0279,4.0279,4.0279,4.0279,4.0279,4.0279,4.0279,4.0279,4.0279,4.0279,4.0279,4.0279,4.0279,4.0279,4.0279,4.0279,4.0279,4.0279,4.0279,4.0279,4.0279,4.0149,4.0149,4.0149,4.0018,3.9625,3.9625,3.9483,3.922,3.922,3.922,3.922,3.922,3.9352,3.9625,3.9625,3.9888,4.0279,4.0279,4.0279,4.0398,4.2993,4.4214,4.4338,4.7061,4.8185,4.8185,4.8185,4.8185,4.8185,4.8185,4.8185,4.8185,4.8185,4.8185,4.8185,4.0617,4.0823,4.1145,4.2155,4.2339,4.2339,4.2339,4.2339,4.2339,4.2339,4.2339,4.2212,4.2084,4.2084,4.1689,4.0777,3.9866,3.9483,3.9757,3.921,3.8814,3.8946,3.857,3.8447,3.8447,3.8967,3.9352,3.9352,3.9352,3.9483,3.9483,3.9483,3.9615,3.9888,3.9888,4.0018,4.0279,4.0279,4.0279,4.0279,4.0279,4.0279,4.0279,4.0279,4.0279,4.0279,4.0279,4.0279,4.0279,4.0279,4.0279,4.0279,4.0279,4.0279,4.0279,4.0279,4.0279,4.0279,4.0279,4.0279,4.0279,4.0279,4.0279,4.0279,4.0279,4.0279,4.0279,4.0279,4.0279,4.0279,4.0279,4.0279,4.0279,4.0279,4.0279,4.0279,4.0279,4.0018,3.9888,3.9888,3.9615,3.9483,3.9483,3.9483,3.9352,3.9352,3.9352,3.922,3.922,3.922,3.9078,3.8814,3.9078,3.9078,3.8946,3.9483,3.9888,4.0279,4.0279,4.0279,4.0398,4.2993,4.4214,4.4338,4.7061,4.8185,4.8185,4.8185,4.8185,4.8185,4.8185,4.8185,4.8185,4.8185,4.8185,4.8185,4.0617,4.0823,4.1145,4.2155,4.2339,4.2339,4.2339,4.2339,4.2339,4.2339,4.2339,4.2339,4.2339,4.2339,4.1945,4.0895,4.0247,3.9866,3.9757,3.9352,3.922,3.922,3.8835,3.8702,3.8702,3.8824,3.8946,3.8946,3.9088,3.922,3.922,3.922,3.9352,3.9483,3.9483,3.9615,3.9746,3.9746,3.9746,3.9746,3.9746,3.9746,3.9746,4.0018,3.9877,3.9877,4.0149,4.0149,4.0018,3.9877,3.9746,3.9746,3.9746,3.9746,3.9757,4.0018,4.0018,4.0018,4.0279,4.0279,4.0279,4.0279,4.0279,4.0279,4.0279,4.0279,4.0279,4.0279,4.0149,4.0018,4.0279,4.0007,3.9877,4.0018,3.9877,3.9746,3.9746,3.9615,3.9483,3.9483,3.9352,3.922,3.922,3.922,3.9078,3.8946,3.8946,3.8956,3.8702,3.8702,3.8702,3.8437,3.8824,3.8946,3.8681,3.922,3.9615,3.9746,4.0149,4.0279,4.0398,4.2993,4.4214,4.4338,4.7061,4.8185,4.8185,4.8185,4.8185,4.8185,4.8185,4.8185,4.8185,4.8185,4.8185,4.8185,4.0617,4.0823,4.1145,4.2155,4.2339,4.2339,4.2339,4.2339,4.2339,4.2339,4.2339,4.2339,4.2339,4.2212,4.1817,4.1035,4.0895,4.0647,3.9877,3.9877,3.9877,3.9757,3.9352,3.922,3.922,3.8946,3.8814,3.8681,3.8956,3.9088,3.9088,3.9088,3.9088,3.9078,3.9078,3.9088,3.922,3.922,3.922,3.922,3.922,3.922,3.922,3.9483,3.9483,3.922,3.9877,3.9888,3.9625,3.9352,3.922,3.922,3.922,3.922,3.922,3.9483,3.9615,3.9757,4.0018,4.0149,4.0149,4.0149,4.0149,4.0149,4.0149,4.0279,4.0279,4.0149,3.9888,3.9757,4.0007,3.9615,3.9352,3.9625,3.9352,3.922,3.922,3.9088,3.9078,3.9078,3.9088,3.9088,3.9088,3.9088,3.8956,3.8692,3.8549,3.8426,3.8181,3.8181,3.8181,3.8181,3.8426,3.8549,3.8549,3.8956,3.9078,3.9088,3.9877,4.0149,4.0268,4.2741,4.3967,4.4338,4.6824,4.7938,4.8185,4.8185,4.8185,4.8185,4.8185,4.8185,4.8185,4.8185,4.8068,4.8055,4.0617,4.0823,4.1145,4.2155,4.2339,4.2339,4.2339,4.2339,4.2339,4.2339,4.2339,4.2339,4.2339,4.1817,4.1561,4.1678,4.1433,4.1046,4.0647,4.0647,4.0398,3.9757,3.9352,3.922,3.922,3.922,3.8946,3.8681,3.8437,3.8314,3.8314,3.8314,3.8437,3.8814,3.8814,3.8946,3.922,3.922,3.922,3.922,3.922,3.922,3.922,3.922,3.922,3.922,3.9352,3.9352,3.922,3.922,3.922,3.922,3.922,3.922,3.922,3.922,3.922,3.922,3.9352,3.9352,3.9352,3.9352,3.9352,3.9483,3.9757,4.0018,4.0149,3.9888,3.9757,3.9625,3.9352,3.922,3.922,3.922,3.922,3.922,3.922,3.8946,3.8814,3.8814,3.8559,3.8314,3.8314,3.8314,3.8314,3.8314,3.8314,3.8314,3.8181,3.8181,3.8181,3.8181,3.8181,3.8314,3.8314,3.8559,3.8814,3.8814,3.9483,3.9757,3.9888,4.1772,4.313,4.4338,4.5839,4.7087,4.8185,4.8185,4.8185,4.8185,4.8185,4.8185,4.8185,4.7821,4.7821,4.769,4.0617,4.0823,4.1145,4.2155,4.2339,4.2339,4.2339,4.2339,4.2339,4.2339,4.2339,4.2339,4.2339,4.2084,4.1817,4.155,4.155,4.1421,4.0766,4.0647,4.0528,4.0257,3.9746,3.9615,3.9746,3.9615,3.9352,3.922,3.8692,3.8426,3.8426,3.8314,3.8314,3.8437,3.8437,3.857,3.8702,3.8702,3.8702,3.8702,3.8702,3.8702,3.8702,3.8814,3.8824,3.8702,3.8702,3.8956,3.9462,3.921,3.922,3.922,3.922,3.8956,3.8702,3.8824,3.8946,3.8946,3.9088,3.922,3.922,3.922,3.922,3.922,3.9352,3.9615,3.9746,4.0018,3.9757,3.9483,3.9483,3.8967,3.8692,3.8946,3.8824,3.8702,3.8702,3.857,3.8437,3.8437,3.8314,3.8181,3.8181,3.8181,3.8181,3.8181,3.8181,3.8181,3.8181,3.8181,3.8181,3.8181,3.8181,3.8181,3.8181,3.8304,3.8437,3.8437,3.9724,4.0495,4.0862,4.2385,4.3879,4.5342,4.6585,4.7455,4.8185,4.8185,4.8185,4.8185,4.8185,4.8185,4.8185,4.8055,4.7821,4.769]},{"header":{"parameterUnit":"m.s-1","parameterCategory":1,"la1":30.6,"la2":28.766,"lo1":-90.7593,"lo2":-88.6598,"dy":0.0162,"dx":0.0183,"nx":116,"ny":114,"refTime":"2023-04-24T18:00:00:Z","depth":0,"parameterNumber":3,"parameterNumberName":"V-component_of_WINDS"},"data":[0.0,0.0,0.0,0.0,0.0,0.0,0.0,0.0,0.0,0.0,0.0,0.0,0.0,0.0,0.0,0.0,0.0,0.0,0.0,0.0,0.0,0.0,0.0,0.0,0.0,0.0,0.0,0.0,0.0,0.0,0.0,0.0,0.0,0.0,0.0,0.0,0.0,0.0,0.0,0.0,0.0,0.0,0.0,0.0,0.0,0.0,0.0,0.0,0.0,0.0,0.0,0.0,0.0,0.0,0.0,0.0,0.0,0.0,0.0,0.0,0.0,0.0,0.0,0.0,0.0,0.0,0.0,0.0,0.0,0.0,0.0,0.0,0.0,0.0,0.0,0.0,0.0,0.0,0.0,0.0,0.0,0.0,0.0,0.0,0.0,0.0,0.0,0.0,0.0,0.0,0.0,0.0,0.0,0.0,0.0,0.0,0.0,0.0,0.0,0.0,0.0,0.0,0.0,0.0,0.0,0.0,0.0,0.0,0.0,0.0,0.0,0.0,0.0,0.0,0.0,0.0,0.0,0.0,0.0,0.0,0.0,0.0,0.0,0.0,0.0,0.0,0.0,0.0,0.0,0.0,0.0,0.0,0.0,0.0,0.0,0.0,0.0,0.0,0.0,0.0,0.0,0.0,0.0,0.0,0.0,0.0,0.0,0.0,0.0,0.0,0.0,0.0,0.0,0.0,0.0,0.0,0.0,0.0,0.0,0.0,0.0,0.0,0.0,0.0,0.0,0.0,0.0,0.0,0.0,0.0,0.0,0.0,0.0,0.0,0.0,0.0,0.0,0.0,0.0,0.0,0.0,0.0,0.0,0.0,0.0,0.0,0.0,0.0,0.0,0.0,0.0,0.0,0.0,0.0,0.0,0.0,0.0,0.0,0.0,0.0,0.0,0.0,0.0,0.0,0.0,0.0,0.0,0.0,0.0,0.0,0.0,0.0,0.0,0.0,0.0,0.0,0.0,0.0,0.0,0.0,0.0,0.0,0.0,0.0,0.0,0.0,0.0,0.0,0.0,0.0,0.0,0.0,0.0,0.0,0.0,0.0,0.0,0.0,0.0,0.0,0.0,0.0,0.0,0.0,0.0,0.0,0.0,0.0,0.0,0.0,0.0,0.0,0.0,0.0,0.0,0.0,0.0,0.0,0.0,0.0,0.0,0.0,0.0,0.0,0.0,0.0,0.0,0.0,0.0,0.0,0.0,0.0,0.0,0.0,0.0,0.0,0.0,0.0,0.0,0.0,0.0,0.0,0.0,0.0,0.0,0.0,0.0,0.0,0.0,0.0,0.0,0.0,0.0,0.0,0.0,0.0,0.0,0.0,0.0,0.0,0.0,0.0,0.0,0.0,0.0,0.0,0.0,0.0,0.0,0.0,0.0,0.0,0.0,0.0,0.0,0.0,0.0,0.0,0.0,0.0,0.0,0.0,0.0,0.0,0.0,0.0,0.0,0.0,0.0,0.0,0.0,0.0,0.0,0.0,0.0,0.0,0.0,0.0,0.0,0.0,0.0,0.0,0.0,0.0,0.0,0.0,0.0,0.0,0.0,0.0,0.0,0.0,0.0,0.0,0.0,0.0,0.0,0.0,0.0,0.0,0.0,0.0,0.0,0.0,0.0,0.0,0.0,0.0,0.0,0.0,0.0,0.0,0.0,0.0,0.0,0.0,0.0,0.0,0.0,0.0,0.0,0.0,0.0,0.0,0.0,0.0,0.0,0.0,0.0,0.0,0.0,0.0,0.0,0.0,0.0,0.0,0.0,0.0,0.0,0.0,0.0,0.0,0.0,0.0,0.0,0.0,0.0,0.0,0.0,0.0,0.0,0.0,0.0,0.0,0.0,0.0,0.0,0.0,0.0,0.0,0.0,0.0,0.0,0.0,0.0,0.0,0.0,0.0,0.0,0.0,0.0,0.0,0.0,0.0,0.0,0.0,0.0,0.0,0.0,0.0,0.0,0.0,0.0,0.0,0.0,0.0,0.0,0.0,0.0,0.0,0.0,0.0,0.0,0.0,0.0,0.0,0.0,0.0,0.0,0.0,0.0,0.0,0.0,0.0,0.0,0.0,0.0,0.0,0.0,0.0,0.0,0.0,0.0,0.0,0.0,0.0,0.0,0.0,0.0,0.0,0.0,0.0,0.0,0.0,0.0,0.0,0.0,0.0,0.0,0.0,0.0,0.0,0.0,0.0,0.0,0.0,0.0,0.0,0.0,0.0,0.0,0.0,0.0,0.0,0.0,0.0,0.0,0.0,0.0,0.0,0.0,0.0,0.0,0.0,0.0,0.0,0.0,0.0,0.0,0.0,0.0,0.0,0.0,0.0,0.0,0.0,0.0,0.0,0.0,0.0,0.0,0.0,0.0,0.0,0.0,0.0,0.0,0.0,0.0,0.0,0.0,0.0,0.0,0.0,0.0,0.0,0.0,0.0,0.0,0.0,0.0,0.0,0.0,0.0,0.0,0.0,0.0,0.0,0.0,0.0,0.0,0.0,0.0,0.0,0.0,0.0,0.0,0.0,0.0,0.0,0.0,0.0,0.0,0.0,0.0,0.0,0.0,0.0,0.0,0.0,0.0,0.0,0.0,0.0,0.0,0.0,0.0,0.0,0.0,0.0,0.0,0.0,0.0,0.0,0.0,0.0,0.0,0.0,0.0,0.0,0.0,0.0,0.0,0.0,0.0,0.0,0.0,0.0,0.0,0.0,0.0,0.0,0.0,0.0,0.0,0.0,0.0,0.0,0.0,0.0,0.0,0.0,0.0,0.0,0.0,0.0,0.0,0.0,0.0,0.0,0.0,0.0,0.0,0.0,0.0,0.0,0.0,0.0,0.0,0.0,0.0,0.0,0.0,0.0,0.0,0.0,0.0,0.0,0.0,0.0,0.0,0.0,0.0,0.0,0.0,0.0,0.0,0.0,0.0,0.0,0.0,0.0,0.0,0.0,0.0,0.0,0.0,0.0,0.0,0.0,0.0,0.0,0.0,0.0,0.0,0.0,0.0,0.0,0.0,0.0,0.0,0.0,0.0,0.0,0.0,0.0,0.0,0.0,0.0,0.0,0.0,0.0,0.0,0.0,0.0,0.0,0.0,0.0,0.0,0.0,0.0,0.0,0.0,0.0,0.0,0.0,0.0,0.0,0.0,0.0,0.0,0.0,0.0,0.0,0.0,0.0,0.0,0.0,0.0,0.0,0.0,0.0,0.0,0.0,0.0,0.0,0.0,0.0,0.0,0.0,0.0,0.0,0.0,0.0,0.0,0.0,0.0,0.0,0.0,0.0,0.0,0.0,0.0,0.0,0.0,0.0,0.0,0.0,0.0,0.0,0.0,0.0,0.0,0.0,0.0,0.0,0.0,0.0,0.0,0.0,0.0,0.0,0.0,0.0,0.0,0.0,0.0,0.0,0.0,0.0,0.0,0.0,0.0,0.0,0.0,0.0,0.0,0.0,0.0,0.0,0.0,0.0,0.0,0.0,0.0,0.0,0.0,0.0,0.0,0.0,0.0,0.0,0.0,0.0,0.0,0.0,0.0,0.0,0.0,0.0,0.0,0.0,0.0,0.0,0.0,0.0,0.0,0.0,0.0,0.0,0.0,0.0,0.0,0.0,0.0,0.0,0.0,0.0,0.0,0.0,0.0,0.0,0.0,0.0,0.0,0.0,0.0,0.0,0.0,0.0,0.0,0.0,0.0,0.0,0.0,0.0,0.0,0.0,0.0,0.0,0.0,0.0,0.0,0.0,0.0,0.0,0.0,0.0,0.0,0.0,0.0,0.0,0.0,0.0,0.0,0.0,0.0,0.0,0.0,0.0,0.0,0.0,0.0,0.0,0.0,0.0,0.0,0.0,0.0,0.0,0.0,0.0,0.0,0.0,0.0,0.0,0.0,0.0,0.0,0.0,0.0,0.0,0.0,0.0,0.0,0.0,0.0,0.0,0.0,0.0,0.0,0.0,0.0,0.0,0.0,0.0,0.0,0.0,0.0,0.0,0.0,0.0,0.0,0.0,0.0,0.0,0.0,0.0,0.0,0.0,0.0,0.0,0.0,0.0,0.0,0.0,0.0,0.0,0.0,0.0,0.0,0.0,0.0,0.0,0.0,0.0,0.0,0.0,0.0,0.0,0.0,0.0,0.0,0.0,0.0,0.0,0.0,0.0,0.0,0.0,0.0,0.0,0.0,0.0,0.0,0.0,0.0,0.0,0.0,0.0,0.0,0.0,0.0,0.0,0.0,0.0,0.0,0.0,0.0,0.0,0.0,0.0,0.0,0.0,0.0,0.0,0.0,0.0,0.0,0.0,0.0,0.0,0.0,0.0,0.0,0.0,0.0,0.0,0.0,0.0,0.0,0.0,0.0,0.0,0.0,0.0,0.0,0.0,0.0,0.0,0.0,0.0,0.0,0.0,0.0,0.0,0.0,0.0,0.0,0.0,0.0,0.0,0.0,0.0,0.0,0.0,0.0,0.0,0.0,0.0,0.0,0.0,0.0,0.0,0.0,0.0,0.0,0.0,0.0,0.0,0.0,0.0,0.0,0.0,0.0,0.0,0.0,0.0,0.0,0.0,0.0,0.0,0.0,0.0,0.0,0.0,0.0,0.0,0.0,0.0,0.0,0.0,0.0,0.0,0.0,0.0,0.0,0.0,0.0,0.0,0.0,0.0,0.0,0.0,0.0,0.0,0.0,0.0,0.0,0.0,0.0,0.0,0.0,0.0,0.0,0.0,0.0,0.0,0.0,0.0,0.0,0.0,0.0,0.0,0.0,0.0,0.0,0.0,0.0,0.0,0.0,0.0,0.0,0.0,0.0,0.0,0.0,0.0,0.0,0.0,0.0,0.0,0.0,0.0,0.0,0.0,0.0,0.0,0.0,0.0,0.0,0.0,0.0,0.0,0.0,0.0,0.0,0.0,0.0,0.0,0.0,0.0,0.0,0.0,0.0,0.0,0.0,0.0,0.0,0.0,0.0,0.0,0.0,0.0,0.0,0.0,0.0,0.0,0.0,0.0,0.0,0.0,0.0,0.0,0.0,0.0,0.0,0.0,0.0,0.0,0.0,0.0,0.0,0.0,0.0,0.0,0.0,0.0,0.0,0.0,0.0,0.0,0.0,0.0,0.0,0.0,0.0,0.0,0.0,0.0,0.0,0.0,0.0,0.0,0.0,0.0,0.0,0.0,0.0,0.0,0.0,0.0,0.0,0.0,0.0,0.0,0.0,0.0,0.0,0.0,0.0,0.0,0.0,0.0,0.0,0.0,0.0,0.0,0.0,0.0,0.0,0.0,0.0,0.0,0.0,0.0,0.0,0.0,0.0,0.0,0.0,0.0,0.0,0.0,0.0,0.0,0.0,0.0,0.0,0.0,0.0,0.0,0.0,0.0,0.0,0.0,0.0,0.0,0.0,0.0,0.0,0.0,0.0,0.0,0.0,0.0,0.0,0.0,0.0,0.0,0.0,0.0,0.0,0.0,0.0,0.0,0.0,0.0,0.0,0.0,0.0,0.0,0.0,0.0,0.0,0.0,0.0,0.0,0.0,0.0,0.0,0.0,0.0,0.0,0.0,0.0,0.0,0.0,0.0,0.0,0.0,0.0,0.0,0.0,0.0,0.0,0.0,0.0,0.0,0.0,0.0,0.0,0.0,0.0,0.0,0.0,0.0,0.0,0.0,0.0,0.0,0.0,0.0,0.0,0.0,0.0,0.0,0.0,0.0,0.0,0.0,0.0,0.0,0.0,0.0,0.0,0.0,0.0,0.0,0.0,0.0,0.0,0.0,0.0,0.0,0.0,0.0,0.0,0.0,0.0,0.0,0.0,0.0,0.0,0.0,0.0,0.0,0.0,0.0,0.0,0.0,0.0,0.0,0.0,0.0,0.0,0.0,0.0,0.0,0.0,0.0,0.0,0.0,0.0,0.0,0.0,0.0,0.0,0.0,0.0,0.0,0.0,0.0,0.0,0.0,0.0,0.0,0.0,0.0,0.0,0.0,0.0,0.0,0.0,0.0,0.0,0.0,0.0,0.0,0.0,0.0,0.0,0.0,0.0,0.0,0.0,0.0,0.0,0.0,0.0,0.0,0.0,0.0,0.0,0.0,0.0,0.0,0.0,0.0,0.0,-5.988,0.0,0.0,0.0,0.0,0.0,0.0,0.0,0.0,0.0,0.0,0.0,0.0,0.0,0.0,0.0,0.0,0.0,0.0,0.0,0.0,0.0,0.0,0.0,0.0,0.0,0.0,0.0,0.0,0.0,0.0,0.0,0.0,0.0,0.0,0.0,0.0,0.0,0.0,0.0,0.0,0.0,0.0,0.0,0.0,0.0,0.0,0.0,0.0,0.0,0.0,0.0,0.0,0.0,0.0,0.0,0.0,0.0,0.0,0.0,0.0,0.0,0.0,0.0,0.0,0.0,0.0,0.0,0.0,0.0,0.0,0.0,0.0,0.0,0.0,0.0,0.0,0.0,0.0,0.0,0.0,0.0,0.0,0.0,0.0,0.0,0.0,0.0,0.0,0.0,0.0,0.0,0.0,0.0,0.0,0.0,0.0,0.0,0.0,0.0,0.0,0.0,0.0,0.0,0.0,0.0,0.0,0.0,0.0,0.0,0.0,0.0,0.0,0.0,0.0,0.0,0.0,-6.0845,0.0,0.0,0.0,0.0,0.0,0.0,0.0,0.0,0.0,0.0,0.0,0.0,0.0,0.0,0.0,0.0,0.0,0.0,0.0,0.0,0.0,0.0,0.0,0.0,0.0,0.0,0.0,0.0,0.0,0.0,0.0,0.0,0.0,0.0,0.0,0.0,0.0,0.0,0.0,0.0,0.0,0.0,0.0,0.0,0.0,0.0,0.0,0.0,0.0,0.0,0.0,0.0,0.0,0.0,0.0,0.0,0.0,0.0,0.0,0.0,0.0,0.0,0.0,0.0,0.0,0.0,0.0,0.0,0.0,0.0,0.0,0.0,0.0,0.0,0.0,0.0,0.0,0.0,0.0,0.0,0.0,0.0,0.0,0.0,0.0,0.0,0.0,0.0,0.0,0.0,0.0,0.0,0.0,0.0,0.0,0.0,0.0,0.0,0.0,0.0,0.0,0.0,0.0,0.0,0.0,0.0,0.0,0.0,-6.2075,-6.2599,-6.2274,-6.3179,-6.4048,-6.4782,-6.3566,-6.3584,-6.4182,-6.2068,0.0,0.0,0.0,0.0,0.0,0.0,0.0,0.0,0.0,0.0,0.0,0.0,0.0,0.0,0.0,0.0,0.0,0.0,0.0,0.0,0.0,0.0,0.0,0.0,0.0,0.0,0.0,0.0,0.0,0.0,0.0,0.0,0.0,0.0,0.0,0.0,0.0,0.0,0.0,0.0,0.0,0.0,0.0,0.0,0.0,0.0,0.0,0.0,0.0,0.0,0.0,0.0,0.0,0.0,0.0,0.0,0.0,0.0,0.0,0.0,0.0,0.0,0.0,0.0,0.0,0.0,0.0,0.0,0.0,0.0,0.0,0.0,0.0,0.0,0.0,0.0,0.0,0.0,0.0,0.0,0.0,0.0,0.0,0.0,0.0,0.0,-5.8952,-5.9042,0.0,0.0,0.0,0.0,0.0,0.0,0.0,0.0,0.0,0.0,0.0,0.0,0.0,-5.7525,-5.7721,-6.0558,-6.2229,-6.2691,-6.4993,-6.6256,-6.6665,-6.6826,-6.6883,-6.6921,-6.7252,0.0,-6.5435,-6.5029,0.0,0.0,0.0,0.0,0.0,0.0,0.0,0.0,0.0,0.0,0.0,0.0,0.0,0.0,0.0,0.0,0.0,0.0,0.0,0.0,0.0,0.0,0.0,0.0,0.0,0.0,0.0,0.0,0.0,0.0,0.0,0.0,0.0,0.0,0.0,0.0,0.0,0.0,0.0,0.0,0.0,0.0,0.0,0.0,-5.3035,-5.2386,0.0,0.0,0.0,0.0,0.0,0.0,0.0,0.0,0.0,0.0,0.0,0.0,0.0,0.0,0.0,0.0,0.0,0.0,0.0,0.0,0.0,0.0,0.0,0.0,0.0,0.0,0.0,0.0,0.0,0.0,0.0,0.0,0.0,0.0,0.0,0.0,0.0,0.0,0.0,-5.7981,-5.8319,-5.8374,-5.7711,-5.6994,0.0,0.0,0.0,0.0,0.0,0.0,0.0,0.0,0.0,-5.831,-5.9148,-6.0201,-6.1521,-6.3669,-6.4906,-6.5159,-6.6865,-6.7575,-6.7504,-6.8111,-6.8161,-6.7804,-6.8284,-6.8041,-6.7298,-6.6369,-6.5057,-6.3494,0.0,0.0,0.0,0.0,-6.1553,-6.0708,0.0,0.0,0.0,0.0,0.0,0.0,0.0,0.0,0.0,0.0,0.0,0.0,0.0,0.0,0.0,-5.3715,0.0,0.0,0.0,0.0,0.0,0.0,0.0,0.0,0.0,0.0,0.0,0.0,0.0,0.0,0.0,0.0,0.0,0.0,0.0,0.0,-5.3457,-5.3381,-5.2878,0.0,0.0,0.0,0.0,0.0,0.0,0.0,0.0,0.0,0.0,0.0,0.0,0.0,0.0,0.0,0.0,0.0,0.0,0.0,0.0,0.0,0.0,0.0,0.0,0.0,0.0,0.0,0.0,0.0,0.0,0.0,0.0,0.0,0.0,0.0,0.0,0.0,0.0,-5.7959,-5.808,-5.7781,-5.7566,-5.7082,0.0,0.0,0.0,0.0,0.0,0.0,-5.7007,-5.7186,-5.8274,-6.0451,-6.1646,-6.3048,-6.4803,-6.622,-6.7006,-6.7175,-6.801,-6.8229,-6.7889,-6.8651,-6.8763,-6.8334,-6.8583,-6.8668,-6.8557,-6.7421,-6.6526,-6.5727,-6.4588,-6.34,-6.2468,-6.3827,-6.3135,-6.1931,0.0,0.0,0.0,0.0,0.0,0.0,0.0,0.0,0.0,0.0,0.0,0.0,0.0,0.0,-5.2761,-5.2852,-5.2967,-5.2999,0.0,0.0,0.0,0.0,0.0,0.0,0.0,0.0,0.0,0.0,0.0,0.0,0.0,0.0,0.0,0.0,0.0,0.0,0.0,-5.4295,-5.3544,-5.2767,0.0,0.0,0.0,0.0,0.0,0.0,0.0,0.0,0.0,0.0,0.0,0.0,0.0,0.0,0.0,0.0,0.0,0.0,0.0,0.0,0.0,0.0,0.0,0.0,0.0,0.0,0.0,0.0,0.0,0.0,0.0,0.0,0.0,0.0,0.0,0.0,0.0,0.0,0.0,-5.7757,-5.8863,0.0,0.0,0.0,0.0,-5.7471,-5.6847,-5.7079,-5.8524,-5.9327,-6.0487,-6.211,-6.4176,-6.5374,-6.5482,-6.6793,-6.7734,-6.8346,-6.8394,-6.8604,-6.8919,-6.8964,-6.8892,-6.8668,-6.8716,-6.8621,-6.8506,-6.8431,-6.7001,-6.4865,-6.4791,-6.3323,-6.1583,-6.4033,-6.486,-6.5165,0.0,0.0,0.0,0.0,0.0,0.0,0.0,0.0,0.0,0.0,0.0,0.0,0.0,-5.4117,-5.4775,-5.5814,-5.5858,-5.5468,-5.4537,0.0,0.0,0.0,0.0,0.0,0.0,0.0,0.0,0.0,0.0,0.0,0.0,0.0,0.0,0.0,0.0,0.0,0.0,-5.5777,-5.4953,-5.377,-5.3059,-5.1574,0.0,0.0,0.0,0.0,0.0,0.0,0.0,0.0,0.0,0.0,0.0,0.0,0.0,0.0,0.0,0.0,0.0,0.0,0.0,0.0,0.0,0.0,0.0,0.0,0.0,0.0,0.0,0.0,0.0,0.0,0.0,0.0,0.0,0.0,0.0,0.0,0.0,-5.8435,-5.8809,0.0,-5.806,-5.8185,-5.8461,-5.879,-5.9547,-6.0576,-6.1984,-6.2311,-6.3202,-6.4821,-6.5624,-6.6281,-6.6756,-6.7657,-6.8179,-6.8394,-6.8651,-6.8855,-6.9027,-6.8865,-6.8791,-6.8716,-6.8621,-6.8554,-6.8506,-6.8506,-6.7986,-6.7187,-6.7187,-6.6714,-6.6156,-6.7077,-6.7058,-6.6741,0.0,0.0,0.0,0.0,0.0,0.0,0.0,0.0,0.0,0.0,0.0,-5.2493,-5.5147,-5.5686,-5.6291,-5.7346,-5.7455,-5.7,-5.6088,0.0,0.0,0.0,0.0,0.0,0.0,0.0,0.0,0.0,0.0,0.0,0.0,0.0,0.0,0.0,0.0,0.0,0.0,-5.6546,-5.6009,-5.5023,-5.4723,-5.3441,-5.1676,0.0,0.0,0.0,0.0,0.0,0.0,0.0,0.0,0.0,0.0,0.0,0.0,0.0,0.0,0.0,0.0,0.0,0.0,0.0,0.0,0.0,0.0,0.0,0.0,0.0,0.0,0.0,0.0,0.0,0.0,0.0,0.0,0.0,0.0,0.0,-5.9755,-5.8697,-5.9474,-5.9745,-5.897,-5.9601,-6.0214,-6.0547,-6.1836,-6.2978,-6.3851,-6.4383,-6.5224,-6.6256,-6.6706,-6.7233,-6.7786,-6.8297,-6.8623,-6.8651,-6.89,-6.8983,-6.8956,-6.8838,-6.8716,-6.8621,-6.8554,-6.8506,-6.8506,-6.8506,-6.8673,-6.8896,-6.8617,-6.8554,-6.8687,-6.9014,-6.8772,-6.8362,0.0,0.0,0.0,0.0,0.0,0.0,0.0,0.0,0.0,0.0,0.0,0.0,-5.5103,-5.6412,-5.7188,-5.7206,-5.7356,-5.7437,-5.7528,-5.6163,0.0,0.0,0.0,0.0,0.0,0.0,0.0,0.0,0.0,0.0,0.0,0.0,0.0,0.0,0.0,0.0,0.0,0.0,-5.66,-5.6456,-5.5107,-5.508,-5.5469,0.0,0.0,0.0,0.0,0.0,0.0,0.0,0.0,0.0,0.0,0.0,0.0,0.0,0.0,0.0,0.0,0.0,0.0,0.0,0.0,0.0,0.0,0.0,0.0,0.0,0.0,0.0,0.0,0.0,0.0,0.0,0.0,0.0,-5.7958,-5.9457,-6.0211,-5.8722,-6.0985,-6.2383,-6.1594,-6.2218,-6.2713,-6.2781,-6.3498,-6.3957,-6.4012,-6.5515,-6.6378,-6.6397,-6.7585,-6.8297,-6.8394,-6.8726,-6.8975,-6.9178,-6.9072,-6.8956,-6.8902,-6.8902,-6.8763,-6.8506,-6.8506,-6.8506,-6.8506,-6.8543,-6.9007,-6.9639,-6.8859,-6.8561,-6.8691,-6.9599,-6.9927,-7.0038,0.0,0.0,0.0,0.0,0.0,0.0,0.0,0.0,0.0,0.0,0.0,0.0,-5.6635,-5.7423,-5.7649,-5.7388,-5.7388,-5.6994,-5.6081,0.0,0.0,0.0,0.0,0.0,0.0,0.0,0.0,0.0,0.0,0.0,0.0,0.0,0.0,0.0,0.0,0.0,0.0,0.0,-5.66,-5.6546,-5.6379,-5.6154,-5.5757,0.0,0.0,0.0,0.0,0.0,0.0,0.0,0.0,0.0,0.0,0.0,0.0,0.0,0.0,0.0,0.0,0.0,0.0,0.0,0.0,0.0,0.0,0.0,0.0,0.0,0.0,0.0,0.0,0.0,0.0,0.0,0.0,-6.0263,-5.9871,-6.1165,-6.2,-6.156,-6.2242,-6.2603,-6.2383,-6.2567,-6.3082,-6.4076,-6.4364,-6.5171,-6.6784,-6.7224,-6.7636,-6.8232,-6.8577,-6.8726,-6.8772,-6.8838,-6.8948,-6.8975,-6.8838,-6.8791,-6.8763,-6.865,-6.8554,-6.8506,-6.8506,-6.8506,-6.8561,-6.9137,-6.9509,-6.9694,-6.9472,-6.975,-7.0289,-7.0543,-7.0636,-7.0655,0.0,0.0,0.0,0.0,0.0,0.0,0.0,0.0,0.0,0.0,0.0,0.0,-5.7302,-5.7745,-5.7697,-5.7356,-5.6479,-5.5804,-5.5341,0.0,0.0,0.0,0.0,0.0,0.0,0.0,0.0,0.0,0.0,0.0,0.0,0.0,0.0,0.0,0.0,0.0,0.0,0.0,-5.66,-5.6707,-5.6847,-5.7095,-5.7273,-5.6536,-5.6289,-5.6327,-5.5419,-5.4829,-5.4418,-5.4401,0.0,0.0,0.0,0.0,0.0,0.0,0.0,0.0,0.0,0.0,0.0,0.0,0.0,0.0,0.0,0.0,0.0,0.0,0.0,0.0,0.0,0.0,0.0,0.0,-6.0646,-6.1687,-6.1875,-6.2549,-6.3055,-6.3055,-6.3243,-6.3511,-6.3863,-6.3882,-6.4345,-6.5515,-6.5844,-6.6568,-6.786,-6.8147,-6.847,-6.8937,-6.8856,-6.8856,-6.8902,-6.881,-6.881,-6.8902,-6.8763,-6.8716,-6.8716,-6.8621,-6.8554,-6.8524,-6.8907,-6.9104,-6.916,-7.0027,-7.0586,0.0,0.0,0.0,0.0,0.0,-7.1814,-7.2193,0.0,0.0,0.0,0.0,0.0,0.0,0.0,0.0,0.0,0.0,0.0,0.0,-5.7207,-5.7534,-5.7431,-5.6953,-5.5116,-5.42,0.0,0.0,0.0,0.0,0.0,0.0,0.0,0.0,0.0,0.0,0.0,0.0,0.0,0.0,0.0,0.0,0.0,0.0,0.0,0.0,-5.6546,-5.6742,-5.6902,-5.7944,-5.924,-5.7657,-5.8071,-5.9275,-5.7529,-5.6811,-5.665,-5.665,0.0,0.0,0.0,0.0,0.0,0.0,0.0,0.0,0.0,0.0,0.0,0.0,0.0,0.0,0.0,0.0,0.0,0.0,0.0,0.0,0.0,0.0,0.0,0.0,-6.2697,-6.358,-6.358,-6.3673,-6.3691,-6.3598,-6.4075,-6.4716,-6.5429,-6.5598,-6.5993,-6.6856,-6.7442,-6.7804,-6.7897,0.0,0.0,0.0,0.0,-6.8716,-6.8856,-6.8621,-6.8621,-6.8856,-6.8716,-6.8668,-6.8668,-6.8668,-6.8658,-6.8673,-6.9543,-6.9945,-7.0142,-7.1059,-7.1966,-7.2608,-7.1647,-7.1249,-7.1342,-7.2187,-7.3131,-7.3942,0.0,0.0,0.0,0.0,0.0,0.0,0.0,0.0,0.0,0.0,0.0,0.0,-5.666,-5.7338,-5.6976,-5.5395,-5.448,0.0,0.0,0.0,0.0,0.0,0.0,0.0,0.0,0.0,0.0,0.0,0.0,0.0,0.0,0.0,0.0,0.0,0.0,0.0,0.0,-5.6401,-5.6455,-5.6545,-5.7298,-5.8376,-5.9526,-5.897,-5.9743,-6.1073,-6.0425,-5.9362,-5.8274,-5.8274,-5.7435,-5.6508,-5.715,0.0,0.0,0.0,0.0,0.0,0.0,0.0,0.0,0.0,0.0,0.0,0.0,0.0,0.0,0.0,0.0,0.0,0.0,0.0,0.0,-6.1603,-6.3091,-6.4143,-6.4143,-6.4706,-6.4874,-6.4218,-6.4807,-6.5336,-6.5486,-6.6041,-6.6729,-6.7554,-6.7628,-6.7976,-6.8668,-6.8717,-6.8763,-6.8763,-6.8621,-6.8554,-6.8573,-6.8524,-6.8524,-6.8573,0.0,0.0,-6.8554,-6.8554,-6.8956,-6.9618,-6.9815,-7.031,-7.1077,-7.1984,-7.2825,-7.3553,-7.3355,-7.323,-7.3249,-7.3367,-7.3516,-7.3647,0.0,0.0,0.0,0.0,0.0,0.0,0.0,0.0,0.0,0.0,0.0,0.0,0.0,-5.5166,-5.4948,-5.3899,0.0,0.0,0.0,0.0,0.0,0.0,0.0,0.0,0.0,0.0,0.0,0.0,0.0,0.0,0.0,0.0,0.0,0.0,0.0,0.0,0.0,-5.6401,-5.6455,-5.6563,-5.7514,-5.852,-5.9439,-5.958,-6.0421,-6.1386,-6.1152,-6.0576,-5.9916,-5.9916,-5.9398,-5.8756,-5.8756,-5.8488,-5.7846,0.0,0.0,0.0,0.0,0.0,0.0,0.0,0.0,0.0,0.0,0.0,0.0,0.0,0.0,-5.8967,0.0,0.0,-6.1815,-6.2855,-6.4078,-6.4904,-6.4904,-6.5617,-6.5843,-6.4998,-6.5636,-6.6312,-6.6706,-6.7035,-6.7573,-6.846,-6.8294,-6.8362,-6.8884,-6.8716,-6.8621,-6.8716,-6.8554,-6.8506,-6.8621,-6.8506,-6.8506,-6.8506,-6.8506,-6.8506,-6.8524,-6.8982,-6.9469,-6.9927,-7.0928,-7.1621,-7.2098,-7.3006,-7.3653,-7.4009,-7.4009,-7.3961,-7.3894,-7.3747,-7.3747,-7.3796,0.0,0.0,0.0,0.0,0.0,0.0,0.0,0.0,0.0,0.0,0.0,0.0,-5.2589,-5.2846,-5.2639,0.0,0.0,0.0,0.0,0.0,0.0,0.0,0.0,0.0,0.0,0.0,0.0,0.0,0.0,0.0,0.0,0.0,0.0,0.0,0.0,0.0,0.0,-5.6401,-5.6437,-5.6617,-5.7729,-5.8501,-5.9183,-6.0003,-6.0697,-6.1252,-6.1152,-6.1093,-6.1093,-6.1093,-6.1093,-6.0986,-6.0344,-5.9933,-5.9131,-5.6276,-5.6133,0.0,0.0,0.0,0.0,0.0,0.0,0.0,0.0,0.0,-5.7469,-5.9797,-5.976,-5.9929,-6.1919,-6.2407,-6.2951,-6.4303,-6.5223,-6.5749,-6.5749,-6.6481,-6.6762,-6.6068,-6.6612,-6.7288,-6.7945,-6.8004,-6.836,-6.9103,-6.8884,-6.881,-6.8902,-6.8716,-6.8621,-6.8763,-6.8602,-6.8621,-6.8716,-6.8602,-6.8524,-6.8506,-6.8506,-6.8599,-6.8814,-6.9543,-7.0124,-7.0563,-7.2314,-7.3063,-7.3119,-7.3888,-7.4197,-7.4197,-7.4197,-7.4104,-7.399,-7.3912,-7.3912,-7.399,0.0,0.0,0.0,0.0,0.0,0.0,0.0,0.0,0.0,0.0,0.0,0.0,0.0,0.0,0.0,0.0,0.0,0.0,0.0,0.0,0.0,0.0,0.0,0.0,0.0,0.0,0.0,0.0,0.0,0.0,0.0,0.0,0.0,0.0,0.0,0.0,0.0,-5.6401,-5.6401,-5.658,-5.8063,-5.8706,-5.8938,-6.0397,-6.114,-6.1252,-6.1152,-6.1093,-6.1093,-6.1093,-6.1093,-6.1075,-6.0986,-5.9987,-5.8524,-5.6775,0.0,-5.4028,-5.219,-5.3306,0.0,-5.7235,-5.8073,-5.9309,0.0,0.0,-6.1599,-6.3364,-6.3665,-6.3683,-6.3965,-6.4603,-6.5148,-6.5336,-6.6087,-6.6631,-6.6631,-6.7344,-6.7833,-6.7739,-6.7814,-6.7908,-6.7983,-6.851,-6.8915,-6.9009,-6.8929,-6.8856,-6.8902,-6.8856,-6.8856,-6.8856,-6.8856,-6.881,-6.8716,-6.8716,-6.8621,-6.8506,-6.8506,-6.8926,-6.9759,-6.9852,-7.0835,-7.2548,-7.3579,-7.4019,-7.4066,-7.4178,-7.4197,-7.4197,-7.4197,-7.4104,-7.399,-7.399,-7.399,-7.399,0.0,0.0,0.0,0.0,0.0,0.0,0.0,0.0,0.0,0.0,0.0,0.0,0.0,0.0,0.0,0.0,0.0,0.0,0.0,0.0,0.0,0.0,0.0,0.0,0.0,0.0,0.0,0.0,0.0,0.0,0.0,0.0,0.0,0.0,0.0,0.0,-5.6401,-5.6401,-5.6668,-5.7186,-5.8405,-5.9063,-5.9541,-6.0782,-6.0621,-5.9777,-5.9719,-5.9719,0.0,0.0,-5.9719,-5.9719,-5.9719,-5.9255,-5.8149,-5.5223,-5.4527,0.0,-5.5045,0.0,0.0,0.0,-5.9421,-6.0152,-6.2323,-6.2294,-6.2275,-6.3946,-6.466,-6.4998,-6.4998,-6.5692,-6.6256,0.0,-6.695,-6.7495,-6.7495,-6.8189,-6.8715,-6.8715,-6.8715,-6.8715,-6.8715,-6.8866,-6.9009,-6.9116,-6.8975,-6.8902,-6.8956,-6.8929,-6.8902,-6.8956,-6.8838,-6.881,-6.881,-6.8763,-6.8668,-6.8621,-6.9182,-6.962,-7.0069,-7.1088,-7.2333,-7.3616,-7.4001,-7.4151,-7.4104,-7.4104,-7.4104,-7.4104,-7.4104,-7.4104,-7.4104,-7.4104,-7.4056,-7.399,0.0,0.0,0.0,0.0,0.0,0.0,0.0,0.0,0.0,0.0,0.0,0.0,0.0,0.0,0.0,0.0,0.0,0.0,0.0,0.0,0.0,0.0,0.0,0.0,0.0,0.0,0.0,0.0,0.0,0.0,0.0,0.0,0.0,0.0,0.0,0.0,-5.6401,-5.6401,-5.6847,-5.765,-5.8548,-5.9334,-5.9933,-6.0174,-5.9531,-5.8435,-5.8649,-5.8452,0.0,0.0,-5.7935,-5.7757,-5.7757,-5.7311,-5.6222,-5.3385,-5.3189,-5.4259,-5.5865,0.0,0.0,-5.9429,-6.0457,-6.118,-6.2323,-6.2623,-6.3035,-6.4678,-6.5448,-6.5861,-6.5861,-6.6556,-6.7119,-6.7119,-6.7814,-6.834,-6.834,-6.8846,-6.9222,-6.9222,-6.9222,-6.9222,-6.9222,-6.9116,-6.9116,-6.9203,-6.9065,-6.9001,-6.9072,-6.902,-6.9001,-6.9072,-6.8911,-6.8884,-6.8929,-6.8838,-6.8903,-6.9099,-6.9771,-7.0387,-7.0873,-7.2454,-7.3541,-7.4197,-7.4197,-7.4151,-7.4056,-7.4056,-7.4056,-7.4056,-7.4056,-7.4104,-7.4151,-7.4216,-7.4151,-7.4056,0.0,0.0,0.0,0.0,0.0,0.0,0.0,0.0,0.0,0.0,0.0,0.0,0.0,0.0,0.0,0.0,0.0,0.0,0.0,0.0,0.0,0.0,0.0,0.0,0.0,0.0,0.0,0.0,0.0,0.0,0.0,0.0,0.0,0.0,0.0,0.0,-5.6401,-5.6401,-5.6847,-5.765,-5.8417,-5.9202,-5.9755,-5.8256,-5.7667,-5.7721,-5.8452,0.0,0.0,0.0,-5.5955,-5.5312,-5.5312,-5.3742,0.0,-5.1762,-5.1226,0.0,0.0,0.0,-5.7547,-5.9142,-6.1116,-6.2972,-6.4309,-6.4632,-6.5028,-6.6416,-6.6725,-6.6744,-6.6744,-6.742,-6.7964,-6.7964,-6.864,-6.9184,-6.9184,-6.9203,-6.9222,-6.9222,-6.9222,-6.9222,0.0,-6.9222,-6.9222,-6.9222,-6.9203,-6.9178,-6.9203,-6.9178,-6.9178,-6.9203,-6.9178,-6.9116,-6.9027,-6.8964,-6.933,-7.006,-7.0079,-7.1032,-7.2735,-7.3738,-7.4178,-7.4197,-7.4197,-7.4216,-7.4197,-7.4197,-7.4197,-7.4197,-7.4197,-7.4104,-7.4038,-7.4151,-7.4216,-7.4197,0.0,0.0,0.0,0.0,0.0,0.0,0.0,0.0,0.0,0.0,0.0,0.0,0.0,0.0,0.0,0.0,0.0,0.0,0.0,0.0,0.0,0.0,0.0,0.0,0.0,0.0,0.0,0.0,0.0,0.0,0.0,0.0,0.0,0.0,0.0,-5.6401,-5.6418,-5.6954,-5.7632,-5.8417,-5.9202,-5.9666,-5.9791,-5.8852,-5.753,-5.6116,0.0,0.0,0.0,0.0,0.0,0.0,-5.3653,-5.2761,-5.1476,-5.0423,-5.1048,-5.2422,0.0,0.0,-5.8771,-6.1245,-6.244,-6.3308,-6.4595,-6.5194,-6.5636,-6.6089,-6.5633,-6.5129,-6.5129,-6.5786,-6.6349,-6.6349,-6.7964,-6.9222,-6.9222,-6.9222,-6.9222,-6.9222,-6.9222,0.0,0.0,0.0,0.0,-6.9222,-6.9222,-6.9222,-6.9222,-6.9222,-6.9222,-6.9222,-6.9116,-6.9072,-6.9009,-6.957,-7.0001,-7.0255,-7.1433,-7.2585,-7.3757,-7.4085,-7.4197,-7.4197,-7.4197,-7.4151,-7.4056,-7.4056,-7.4056,-7.4056,-7.4056,-7.4104,-7.4151,-7.4197,-7.4197,-7.4197,0.0,0.0,0.0,0.0,0.0,0.0,0.0,0.0,0.0,0.0,0.0,0.0,0.0,0.0,0.0,0.0,0.0,0.0,0.0,0.0,0.0,0.0,0.0,0.0,0.0,0.0,0.0,0.0,0.0,0.0,0.0,0.0,0.0,0.0,0.0,-5.6014,-5.6049,-5.6374,-5.7028,-5.7947,-5.8178,-5.8637,-5.8899,-5.7423,-5.5901,0.0,0.0,0.0,0.0,0.0,0.0,0.0,-5.124,-5.0852,-5.0405,-5.0227,-5.1458,-5.3403,-5.5812,-5.7774,-5.9759,-6.2551,-6.3185,-6.3556,-6.4877,-6.5469,-6.5939,-6.6646,-6.5538,-6.4491,-6.4675,-6.5148,-6.5204,-6.4322,-6.6274,-6.7889,-6.7889,-6.7889,-6.8227,-6.9109,-6.9222,-6.9222,0.0,0.0,0.0,-6.9222,-6.9222,-6.9222,-6.9222,-6.9222,-6.9222,-6.9222,-6.9116,-6.9222,-6.9522,-7.0065,-7.0672,-7.1272,-7.2668,-7.3653,-7.4197,-7.4197,-7.4197,-7.4197,-7.4197,-7.4151,-7.4038,-7.3826,-7.3875,-7.4056,-7.3826,-7.3923,-7.4197,-7.4197,-7.4197,-7.4197,0.0,0.0,0.0,0.0,0.0,0.0,0.0,0.0,0.0,0.0,0.0,0.0,0.0,0.0,0.0,0.0,0.0,0.0,0.0,0.0,0.0,0.0,0.0,0.0,0.0,0.0,0.0,0.0,0.0,0.0,0.0,0.0,0.0,0.0,0.0,-5.5297,-5.5273,-5.4651,-5.5209,-5.6438,-5.5742,-5.625,-5.7132,-5.4255,0.0,0.0,0.0,0.0,0.0,0.0,0.0,0.0,0.0,0.0,-4.8978,-5.1226,-5.2511,-5.4045,-5.7774,-5.9434,-6.0629,-6.2877,-6.3448,-6.3829,-6.5181,-6.5537,-6.606,-6.7852,-6.6229,-6.4603,0.0,0.0,-6.4488,-6.2181,-6.3984,-6.5692,-6.5692,-6.5692,-6.6575,0.0,0.0,0.0,0.0,0.0,0.0,-6.9222,0.0,-6.9222,-6.9222,-6.9222,-6.9222,-6.9222,-6.9259,-6.9673,-7.048,-7.0574,-7.14,-7.2977,-7.3803,-7.4197,-7.4197,-7.4197,-7.4197,-7.4197,-7.4197,-7.4197,-7.4151,-7.3572,-7.3691,-7.4151,-7.3522,-7.3641,-7.4151,-7.4104,-7.4085,-7.4085,0.0,0.0,0.0,0.0,0.0,0.0,0.0,0.0,0.0,0.0,0.0,0.0,0.0,0.0,0.0,0.0,0.0,0.0,0.0,0.0,0.0,0.0,0.0,0.0,0.0,0.0,0.0,0.0,0.0,0.0,0.0,0.0,0.0,0.0,-5.3223,-5.3554,-5.4231,-5.4069,-5.4582,-5.5461,0.0,-5.5653,-5.5342,0.0,0.0,0.0,0.0,0.0,0.0,0.0,0.0,0.0,0.0,-5.2939,-5.3528,-5.4135,-5.6133,-5.8328,-5.9327,-6.1022,-6.2788,-6.4002,-6.4305,-6.4564,-6.5475,-6.6049,-6.6292,-6.5907,-6.3518,-6.131,0.0,0.0,0.0,-6.1842,-6.5429,0.0,-6.8264,-6.8264,0.0,-6.9128,0.0,-6.9222,-6.9222,-6.9222,0.0,0.0,-6.9222,-6.9222,-6.9222,-6.9222,-6.9222,-6.9222,-6.9842,-7.0273,-7.0499,-7.1681,-7.2827,-7.3878,-7.4103,-7.4197,-7.4197,-7.4197,-7.4197,-7.4197,-7.4197,-7.4197,-7.4197,-7.4038,-7.4038,-7.4151,-7.3522,-7.3401,-7.3452,-7.296,-7.2779,-7.2779,0.0,0.0,0.0,0.0,0.0,0.0,0.0,0.0,0.0,0.0,0.0,0.0,0.0,0.0,0.0,0.0,0.0,0.0,0.0,0.0,0.0,0.0,0.0,0.0,0.0,0.0,0.0,0.0,0.0,0.0,0.0,0.0,0.0,0.0,-5.1399,-5.1735,-5.227,0.0,0.0,0.0,0.0,0.0,0.0,0.0,0.0,0.0,0.0,0.0,0.0,0.0,0.0,-5.2921,-5.4152,-5.4848,-5.5401,-5.6436,0.0,-6.013,-6.1165,-6.2663,-6.4126,-6.4929,-6.5143,-6.4983,-6.4394,-6.4542,-6.4437,-6.3383,-6.0879,0.0,0.0,0.0,0.0,0.0,0.0,0.0,-6.7184,-6.7247,-6.7747,0.0,-6.9222,0.0,-6.9222,-6.9222,-6.9222,0.0,-6.9222,-6.9222,-6.9222,-6.956,-6.9785,-6.9785,-7.0592,-7.1193,-7.155,-7.2827,-7.3728,-7.4197,-7.4197,-7.4197,-7.4197,-7.4197,-7.4197,-7.4216,0.0,-7.3808,-7.374,-7.3209,-7.3156,-7.3313,-7.2687,-7.2632,-7.2797,-7.2426,-7.2294,-7.2294,0.0,0.0,0.0,0.0,0.0,0.0,0.0,0.0,0.0,0.0,0.0,0.0,0.0,0.0,0.0,0.0,0.0,0.0,0.0,0.0,0.0,0.0,0.0,0.0,0.0,0.0,0.0,0.0,0.0,0.0,0.0,0.0,0.0,0.0,0.0,0.0,0.0,0.0,0.0,0.0,0.0,0.0,0.0,0.0,0.0,0.0,0.0,0.0,0.0,0.0,-5.5526,-5.467,-5.5669,-5.599,-5.6383,-5.8435,-5.9666,-6.0808,-6.2842,-6.4073,-6.4947,-6.5625,-6.5804,-6.5197,-6.2824,-6.2289,-6.1932,-6.072,0.0,-5.7229,-5.8036,0.0,-6.0228,-5.7981,0.0,-6.4117,-6.4956,-6.5059,-6.6045,-6.8638,-6.8945,-6.8945,-6.8945,-6.8945,-6.8945,-6.8945,-6.9057,-6.9222,-6.9372,-7.0086,-7.0592,-7.0799,-7.1512,-7.2263,-7.3052,-7.3822,-7.4197,-7.4197,-7.4104,-7.4085,-7.4085,-7.3971,-7.3971,-7.3905,-7.3401,-7.3175,-7.3104,-7.1998,-7.186,-7.2236,-7.1635,-7.1757,-7.2178,-7.2061,-7.208,-7.208,0.0,0.0,0.0,0.0,0.0,0.0,0.0,0.0,0.0,0.0,-4.4316,-4.4855,0.0,0.0,0.0,0.0,0.0,0.0,0.0,0.0,0.0,0.0,0.0,0.0,0.0,0.0,0.0,0.0,0.0,0.0,0.0,0.0,0.0,0.0,0.0,0.0,0.0,0.0,0.0,0.0,0.0,0.0,0.0,0.0,0.0,0.0,0.0,0.0,0.0,0.0,-5.6038,-5.7476,-5.9588,-6.0232,-6.0322,-6.0733,-6.1783,-6.2877,-6.3288,-6.4465,-6.5625,-6.5768,-6.5804,-6.5197,-6.2824,-6.2289,0.0,0.0,0.0,-5.6415,-5.6098,-5.7123,0.0,-5.9567,0.0,0.0,0.0,0.0,-6.7203,0.0,0.0,0.0,0.0,0.0,0.0,0.0,0.0,-6.923,-7.021,-7.0424,-7.1099,-7.2432,-7.262,-7.3108,-7.3972,-7.4122,-7.4197,-7.4197,-7.3691,-7.3471,-7.3471,-7.2906,-7.265,-7.2595,-7.2539,0.0,-7.2483,-7.2255,-7.2178,-7.2236,-7.1635,-7.1467,-7.1467,-7.1009,-7.0781,-7.0781,0.0,0.0,0.0,0.0,0.0,0.0,0.0,-4.3628,-4.3628,-4.3628,-4.3848,-4.4276,-4.4801,-4.491,-4.5018,0.0,0.0,0.0,0.0,0.0,0.0,0.0,0.0,0.0,0.0,0.0,0.0,0.0,0.0,0.0,0.0,0.0,0.0,0.0,0.0,0.0,0.0,0.0,0.0,0.0,0.0,0.0,0.0,0.0,0.0,0.0,0.0,0.0,0.0,0.0,-5.5336,-5.7836,-5.9637,-6.0192,-6.0317,-6.0782,-6.1946,-6.3253,-6.3578,-6.4741,-6.5895,-6.5895,-6.585,-6.4858,-6.1254,0.0,0.0,0.0,0.0,-5.5165,-5.508,0.0,0.0,0.0,0.0,0.0,0.0,0.0,0.0,0.0,0.0,0.0,0.0,0.0,0.0,0.0,0.0,-6.8949,-6.9552,-7.0369,-7.1371,-7.2541,-7.2578,-7.2782,-7.319,-7.319,-7.319,-7.319,-7.2906,-7.2797,-7.2797,-7.2426,-7.2294,-7.2294,-7.1961,-7.186,-7.18,-7.1511,-7.1341,-7.1341,-7.1074,-7.0896,-7.0913,-7.0615,-7.0496,-7.0496,0.0,0.0,0.0,0.0,0.0,0.0,0.0,-4.3628,-4.3628,-4.3628,-4.3628,-4.3789,-4.4293,-4.4276,-4.4485,0.0,0.0,0.0,0.0,0.0,0.0,0.0,0.0,0.0,0.0,0.0,0.0,0.0,0.0,0.0,0.0,0.0,0.0,0.0,0.0,0.0,0.0,0.0,0.0,0.0,0.0,0.0,0.0,0.0,0.0,0.0,0.0,0.0,0.0,0.0,-5.3791,-5.5956,-5.7204,-5.8097,-5.8894,-5.9618,-6.0917,-6.2369,-6.3208,-6.4582,-6.5796,-6.5796,-6.5895,-6.4679,-5.9866,-5.9277,0.0,0.0,-5.3903,-5.406,-5.4301,0.0,0.0,0.0,0.0,0.0,0.0,0.0,0.0,0.0,0.0,0.0,0.0,0.0,0.0,0.0,0.0,0.0,-6.9192,-7.0624,-7.167,-7.2275,-7.2369,-7.2351,-7.2294,-7.2294,-7.2294,-7.2294,-7.2197,-7.2138,-7.208,-7.1961,-7.1902,-7.1902,-7.1404,-7.1185,-7.1185,-7.0682,-7.0496,-7.0496,-7.0496,-7.0496,-7.0496,-7.0496,-7.0496,-7.0496,0.0,0.0,0.0,0.0,0.0,0.0,0.0,-4.3628,-4.3628,-4.3628,-4.3628,-4.3628,-4.3671,-4.3671,-4.3671,0.0,0.0,0.0,0.0,0.0,0.0,0.0,0.0,0.0,0.0,0.0,0.0,0.0,0.0,0.0,0.0,0.0,0.0,0.0,0.0,0.0,0.0,0.0,0.0,0.0,0.0,0.0,0.0,0.0,0.0,0.0,0.0,0.0,0.0,0.0,0.0,-5.1196,-5.2049,-5.4614,-5.7422,-5.7566,0.0,0.0,-6.1617,-6.3594,-6.526,-6.526,-6.575,-6.4986,-6.0057,0.0,0.0,-5.3848,-5.3528,-5.3813,-5.3151,0.0,0.0,0.0,0.0,0.0,0.0,0.0,0.0,0.0,0.0,0.0,0.0,0.0,0.0,0.0,0.0,0.0,-7.0804,-7.1893,-7.2428,-7.2294,-7.2463,-7.2501,-7.2294,-7.2294,-7.2294,-7.2294,-7.1739,-7.1467,-7.1467,-7.0896,-7.0682,-7.0664,-7.0615,-7.0547,0.0,-7.0496,-7.0496,-7.0496,-7.0496,-7.0496,-7.0496,-7.0496,-7.0496,-7.0496,0.0,0.0,0.0,0.0,0.0,0.0,-4.3628,-4.3628,-4.3628,-4.3628,-4.3628,-4.3628,-4.3628,-4.3628,-4.3628,-4.3628,0.0,0.0,0.0,0.0,0.0,0.0,0.0,0.0,0.0,0.0,0.0,0.0,0.0,0.0,0.0,0.0,0.0,0.0,0.0,0.0,0.0,0.0,0.0,0.0,0.0,0.0,0.0,0.0,0.0,0.0,0.0,0.0,0.0,0.0,0.0,0.0,-4.9924,-5.144,0.0,0.0,-5.6802,-5.8401,-6.1168,-6.2956,-6.4089,-6.4564,-6.3767,-6.2139,-5.9159,0.0,0.0,-5.3698,-5.3289,-5.3363,-5.3041,-5.2794,0.0,0.0,0.0,0.0,0.0,0.0,0.0,0.0,0.0,0.0,0.0,0.0,0.0,0.0,0.0,0.0,-7.0716,-7.1151,-7.1313,-7.1232,-7.1313,-7.1313,-7.1232,-7.1232,-7.1232,-7.1232,-7.0943,-7.0847,-7.0847,-7.0615,-7.0496,-7.0496,-7.0496,-7.0496,0.0,-7.0496,-7.0496,-7.0496,-7.0496,-7.0496,-7.0496,-7.0496,-7.0496,-7.0496,0.0,0.0,0.0,0.0,0.0,-4.3628,-4.3628,-4.3628,-4.3628,-4.3628,-4.3628,-4.3628,-4.3628,-4.3628,-4.3628,-4.3628,-4.3628,0.0,0.0,0.0,0.0,0.0,0.0,0.0,0.0,0.0,0.0,0.0,0.0,0.0,0.0,0.0,-4.6905,-4.5557,0.0,0.0,0.0,0.0,0.0,0.0,0.0,0.0,0.0,0.0,0.0,0.0,0.0,0.0,0.0,0.0,0.0,0.0,0.0,0.0,0.0,0.0,-5.4715,-5.6608,-5.9271,-6.1467,-6.3084,-6.3554,-6.2264,-6.0334,0.0,0.0,0.0,-5.3026,-5.2791,-5.2848,-5.2734,-5.238,-5.2205,0.0,0.0,-5.4884,0.0,0.0,0.0,0.0,0.0,0.0,0.0,0.0,0.0,0.0,0.0,0.0,-7.0496,-7.0496,-7.0496,-7.0496,-7.0582,-7.0582,-7.0496,-7.0496,-7.0496,-7.0496,-7.0582,-7.0582,-7.0582,-7.0582,-7.0582,-7.0582,-7.0514,-7.0496,0.0,-7.0496,-7.0496,-7.0496,-7.0496,-7.0496,-7.0496,-7.0496,-7.0496,-7.0496,0.0,0.0,0.0,0.0,0.0,0.0,-4.3628,-4.3628,-4.3628,-4.3628,-4.3628,-4.3628,-4.3628,-4.3628,-4.3628,-4.3628,-4.3628,0.0,0.0,0.0,0.0,0.0,0.0,0.0,0.0,0.0,0.0,0.0,0.0,0.0,0.0,0.0,0.0,-4.7195,0.0,0.0,0.0,0.0,0.0,0.0,0.0,0.0,0.0,0.0,0.0,0.0,0.0,0.0,0.0,0.0,0.0,0.0,0.0,0.0,0.0,0.0,-5.2034,-5.47,-5.5177,-5.8736,-6.2358,-6.214,-6.1658,-6.0575,0.0,0.0,0.0,-5.1635,-5.1847,-5.2324,-5.1951,-5.257,-5.277,-5.1883,-5.2368,-5.3457,-5.5009,0.0,0.0,0.0,0.0,0.0,0.0,0.0,0.0,0.0,0.0,0.0,-7.0496,-7.0496,-7.0496,-7.0496,-7.0718,-7.0736,-7.0496,-7.0496,-7.0496,-7.0496,-7.0736,-7.0803,-7.0803,-7.0803,-7.0803,-7.0803,-7.0582,-7.0496,0.0,-7.0496,-7.0496,-7.0496,-7.0496,-7.0496,-7.0496,-7.0496,-7.0496,-7.0496,0.0,0.0,0.0,0.0,0.0,0.0,0.0,-4.3628,-4.3628,-4.3628,-4.3628,-4.3628,-4.3628,-4.3628,-4.3628,-4.3628,-4.3628,0.0,0.0,0.0,0.0,0.0,0.0,0.0,0.0,0.0,0.0,0.0,0.0,0.0,0.0,0.0,0.0,0.0,-4.6962,0.0,0.0,0.0,0.0,0.0,0.0,0.0,0.0,0.0,0.0,0.0,0.0,0.0,0.0,0.0,0.0,0.0,0.0,0.0,0.0,0.0,0.0,0.0,-5.3676,-5.5238,-5.6333,-5.7281,-5.6338,-5.5025,-5.462,0.0,0.0,-5.0927,-5.098,-5.1085,-5.0964,-5.1405,-5.1685,-5.1263,-5.1785,-5.2541,-5.3474,0.0,0.0,0.0,0.0,0.0,0.0,0.0,0.0,0.0,0.0,0.0,-7.0496,-7.0496,-7.0496,-7.0496,-7.0582,-7.0582,-7.0496,-7.0496,-7.0496,-7.0496,-7.0718,-7.0803,-7.0803,-7.0901,-7.0901,-7.0803,-7.0718,-7.065,-7.0496,-7.0496,-7.0496,-7.0496,-7.0496,-7.0496,-7.0496,-7.0496,-7.0496,-7.0496,0.0,0.0,0.0,0.0,0.0,0.0,0.0,-4.3628,-4.3628,-4.3628,-4.3628,-4.3628,-4.3687,-4.3704,-4.3747,-4.3805,-4.3747,0.0,0.0,0.0,0.0,0.0,0.0,0.0,0.0,0.0,0.0,0.0,0.0,0.0,0.0,0.0,0.0,0.0,0.0,0.0,0.0,0.0,0.0,0.0,0.0,0.0,-5.0154,0.0,0.0,0.0,0.0,0.0,0.0,0.0,0.0,0.0,0.0,0.0,0.0,0.0,-4.8073,0.0,0.0,-5.2941,-5.3818,-5.4656,-5.3567,0.0,0.0,0.0,0.0,0.0,-5.0349,-5.0293,-5.046,-5.075,-5.0875,-5.0785,-5.1088,-5.1793,-5.305,0.0,0.0,0.0,0.0,0.0,0.0,0.0,0.0,0.0,0.0,0.0,-7.0496,-7.0496,-7.0496,-7.0496,-7.0496,-7.0496,-7.0496,-7.0496,-7.0496,-7.0496,-7.0718,-7.0803,-7.0901,-7.0931,-7.1015,-7.0985,-7.087,-7.0736,0.0,-7.0514,-7.0496,-7.0496,-7.0496,-7.0496,-7.0496,-7.0496,-7.0496,-7.0496,0.0,0.0,0.0,0.0,0.0,0.0,0.0,-4.3545,-4.3545,-4.3545,-4.3595,-4.3687,-4.3898,-4.3898,-4.3998,-4.4155,0.0,0.0,0.0,0.0,0.0,0.0,0.0,0.0,0.0,0.0,0.0,-4.3628,-4.3628,-4.3628,-4.3645,0.0,0.0,0.0,0.0,0.0,0.0,0.0,0.0,0.0,0.0,0.0,0.0,0.0,0.0,0.0,0.0,0.0,0.0,0.0,0.0,0.0,0.0,0.0,0.0,0.0,0.0,0.0,0.0,0.0,0.0,0.0,0.0,0.0,0.0,0.0,0.0,0.0,0.0,0.0,-5.0349,-5.0404,-5.0422,-5.0341,-5.0397,-5.1215,-5.3488,-5.467,0.0,0.0,0.0,0.0,0.0,0.0,0.0,0.0,0.0,0.0,-7.0496,-7.0496,-7.0496,-7.0496,-7.0496,-7.0496,-7.0496,-7.0496,-7.0496,-7.0496,-7.0718,-7.0852,-7.0997,-7.0997,-7.1063,0.0,-7.0937,-7.0803,-7.0736,-7.0582,-7.0496,-7.0514,-7.0496,-7.0496,-7.0514,-7.0496,-7.0514,-7.0496,0.0,0.0,0.0,0.0,0.0,0.0,0.0,0.0,0.0,0.0,-4.3398,-4.3839,-4.3898,-4.3998,-4.4253,0.0,0.0,0.0,0.0,0.0,0.0,0.0,0.0,0.0,0.0,0.0,0.0,-4.3628,-4.3628,-4.3628,-4.3628,-4.3794,0.0,0.0,0.0,0.0,0.0,0.0,0.0,0.0,0.0,0.0,0.0,0.0,0.0,0.0,-4.8765,-4.869,0.0,0.0,0.0,0.0,0.0,0.0,0.0,0.0,-4.8416,-4.7983,-4.8894,0.0,-4.9207,-4.9016,-4.9375,0.0,0.0,0.0,0.0,0.0,0.0,0.0,0.0,-4.9715,-5.0005,-4.9866,-5.0233,-5.1451,-5.4218,0.0,0.0,0.0,0.0,0.0,0.0,0.0,0.0,0.0,0.0,-7.065,-7.0496,-7.0496,-7.0496,-7.0496,-7.0496,-7.0496,-7.0496,-7.0496,-7.0496,-7.0496,-7.0718,-7.0803,-7.0852,-7.0931,-7.0949,-7.0919,-7.0803,-7.0718,-7.0582,-7.0514,-7.0496,-7.0496,-7.0132,-7.0202,-7.0428,-7.0132,-7.0202,-7.0496,0.0,0.0,0.0,0.0,0.0,0.0,0.0,0.0,0.0,0.0,0.0,0.0,0.0,0.0,0.0,0.0,0.0,0.0,0.0,0.0,0.0,0.0,0.0,0.0,0.0,0.0,0.0,0.0,0.0,-4.3628,0.0,0.0,0.0,-4.5235,-4.6374,0.0,0.0,0.0,0.0,0.0,-5.0757,0.0,0.0,0.0,0.0,0.0,-4.8824,-4.8753,0.0,-4.8894,-4.8956,-4.9001,0.0,0.0,0.0,0.0,-4.8494,-4.8003,-4.8409,-4.8084,-4.7726,-4.7955,-4.8152,-4.8231,0.0,0.0,0.0,0.0,0.0,0.0,0.0,0.0,0.0,-4.9581,-5.1363,-5.3701,0.0,0.0,0.0,0.0,0.0,0.0,0.0,0.0,0.0,0.0,0.0,-7.0061,-7.0166,-7.0496,-7.065,-7.065,-7.0582,-7.0496,-7.0496,-7.0496,-7.0496,-7.0496,-7.0582,-7.0736,-7.0803,-7.0919,-7.0901,-7.0901,-7.0803,-7.0736,-7.065,-7.0514,-7.0359,-7.0202,-6.9973,-6.9902,-6.9902,-6.967,-6.9902,-7.0202,0.0,0.0,0.0,0.0,0.0,0.0,0.0,0.0,0.0,0.0,0.0,0.0,0.0,0.0,0.0,0.0,0.0,0.0,0.0,0.0,0.0,0.0,0.0,0.0,0.0,0.0,0.0,0.0,0.0,0.0,0.0,0.0,-4.4986,-4.5847,-4.7334,0.0,0.0,0.0,0.0,0.0,-5.0524,0.0,0.0,0.0,0.0,0.0,0.0,0.0,0.0,-4.8877,-4.894,-4.9001,-4.9001,0.0,0.0,0.0,0.0,0.0,-4.796,-4.781,-4.7833,-4.8332,-4.7984,-4.767,0.0,0.0,0.0,0.0,0.0,0.0,0.0,0.0,0.0,0.0,0.0,0.0,0.0,0.0,0.0,0.0,0.0,0.0,0.0,0.0,0.0,0.0,0.0,-6.913,-6.9492,-7.0061,-7.0323,-7.0323,-7.0254,-7.0272,-7.0359,-7.0428,-7.0496,-7.0496,-7.0496,-7.0582,-7.0736,-7.0736,-7.0767,-7.0931,0.0,0.0,-7.0718,-7.0496,-7.0202,-6.9831,-6.9759,-6.9598,-6.9288,-6.9231,-6.9452,-6.9759,0.0,0.0,0.0,0.0,0.0,0.0,0.0,0.0,0.0,0.0,0.0,0.0,0.0,0.0,0.0,0.0,0.0,0.0,0.0,0.0,0.0,0.0,0.0,0.0,0.0,0.0,0.0,0.0,0.0,0.0,-4.3628,-4.3744,-4.4506,-4.5831,-4.6676,-4.7581,0.0,0.0,0.0,0.0,0.0,0.0,0.0,0.0,0.0,0.0,0.0,0.0,0.0,-4.8627,-4.8753,-4.9001,-4.9001,0.0,0.0,0.0,0.0,0.0,-4.8044,-4.8269,-4.7892,-4.7076,-4.7332,-4.7646,0.0,0.0,0.0,0.0,0.0,0.0,0.0,0.0,0.0,0.0,0.0,0.0,0.0,0.0,0.0,0.0,0.0,0.0,0.0,0.0,0.0,0.0,0.0,-6.8283,-6.8223,-6.8301,-6.8378,-6.8378,-6.8885,-6.9309,-6.9742,-7.0272,-7.0496,-7.0496,-7.0359,-7.0359,-7.0514,-7.0359,-7.0428,-7.0565,0.0,-7.0272,-7.0289,-7.0062,-6.9831,-6.9598,-6.9305,-6.9214,-6.9231,-6.8932,-6.9083,-6.9379,0.0,0.0,0.0,0.0,0.0,0.0,0.0,0.0,0.0,0.0,0.0,0.0,0.0,0.0,0.0,0.0,0.0,0.0,0.0,0.0,0.0,0.0,0.0,0.0,0.0,0.0,0.0,0.0,0.0,-4.3628,-4.3645,-4.4423,-4.5628,-4.7101,-4.745,-4.7863,-4.8356,0.0,0.0,0.0,0.0,0.0,0.0,0.0,0.0,0.0,0.0,0.0,0.0,0.0,-4.8815,-4.9001,-4.9001,0.0,0.0,0.0,0.0,0.0,-4.6625,-4.6932,-4.722,-4.7524,-4.8587,-4.9609,0.0,0.0,0.0,0.0,0.0,0.0,0.0,0.0,0.0,0.0,0.0,0.0,0.0,0.0,0.0,0.0,0.0,0.0,0.0,0.0,0.0,0.0,0.0,0.0,-6.7963,-6.799,-6.8051,-6.8051,-6.8223,-6.8472,-6.8659,-6.8978,-6.9455,-7.0202,-7.0062,-7.0062,-7.0202,-7.0289,-7.0341,-7.0341,0.0,-7.0132,-7.0044,-6.9973,-6.9759,-6.9379,-6.914,-6.8915,-6.8764,-6.8705,-6.8705,-6.8687,0.0,0.0,0.0,0.0,0.0,0.0,0.0,0.0,0.0,0.0,0.0,0.0,0.0,0.0,0.0,0.0,0.0,0.0,0.0,0.0,0.0,0.0,0.0,0.0,0.0,0.0,-4.3671,-4.3814,-4.3831,-4.3989,-4.4273,-4.5307,-4.6624,-4.8152,-4.8042,-4.8077,-4.8356,-4.8483,-4.8564,-4.8614,0.0,0.0,0.0,0.0,0.0,0.0,0.0,0.0,0.0,0.0,0.0,0.0,0.0,0.0,0.0,-4.8079,-4.7072,-4.6085,-4.5684,-4.6118,-4.6908,0.0,0.0,0.0,0.0,0.0,0.0,0.0,0.0,0.0,0.0,0.0,0.0,0.0,0.0,0.0,0.0,0.0,0.0,0.0,0.0,0.0,0.0,0.0,0.0,0.0,0.0,-6.6458,-6.7192,-6.7369,-6.7398,-6.7398,-6.7496,-6.7513,-6.7513,-6.7673,-6.8335,-6.9399,-6.9417,-6.949,-6.958,-6.9973,-7.0062,-6.9973,-6.9973,-6.9902,-6.9759,-6.9759,-6.9543,-6.9266,-6.8955,-6.8448,-6.7954,-6.8097,-6.8011,-6.7828,0.0,0.0,0.0,0.0,0.0,0.0,0.0,0.0,0.0,0.0,0.0,0.0,0.0,0.0,0.0,0.0,0.0,0.0,0.0,0.0,0.0,0.0,0.0,0.0,0.0,-4.3628,-4.3914,-4.4529,-4.4468,-4.5048,-4.6264,-4.5807,-4.6498,-4.8082,-4.7541,0.0,0.0,-4.8769,-4.8786,-4.8837,-4.9734,0.0,0.0,0.0,0.0,0.0,0.0,0.0,0.0,0.0,0.0,0.0,0.0,0.0,-4.853,-4.848,-4.7208,-4.5993,-4.6623,-4.7159,-4.7688,0.0,0.0,0.0,0.0,0.0,0.0,0.0,0.0,0.0,0.0,0.0,0.0,0.0,0.0,0.0,0.0,0.0,0.0,0.0,0.0,0.0,0.0,0.0,0.0,0.0,-6.5286,-6.4852,-6.4943,-6.4943,-6.4926,-6.4926,-6.5908,-6.639,-6.639,-6.7093,-6.7645,-6.8068,-6.812,-6.8198,-6.8447,-6.8898,-6.9231,-6.9379,-6.9379,-6.9379,-6.9379,-6.9432,-6.9302,-6.9055,-6.8647,-6.759,-6.6434,-6.6434,-6.6635,-6.6778,0.0,0.0,0.0,0.0,0.0,0.0,0.0,0.0,0.0,0.0,0.0,0.0,0.0,0.0,0.0,0.0,0.0,0.0,0.0,0.0,0.0,0.0,0.0,-4.4138,-4.3763,-4.3763,-4.4047,-4.4567,-4.493,-4.5834,-4.7165,-4.6962,-4.7598,-4.8933,0.0,0.0,0.0,-4.863,-4.8231,-4.7228,-4.8197,-4.7984,0.0,0.0,0.0,0.0,0.0,0.0,0.0,0.0,-4.7088,-4.777,-4.8101,-4.832,-4.8299,-4.7378,-4.6479,-4.5649,-4.5036,-4.6203,0.0,0.0,0.0,0.0,0.0,0.0,0.0,0.0,0.0,0.0,0.0,0.0,0.0,0.0,0.0,0.0,0.0,0.0,0.0,0.0,0.0,0.0,0.0,0.0,0.0,-6.5608,-6.505,-6.4868,-6.514,-6.4868,-6.4686,-6.4686,-6.5107,-6.5343,-6.5343,-6.5608,-6.5767,-6.5892,-6.6727,-6.7206,-6.7287,-6.769,-6.7866,-6.7901,-6.7866,-6.7787,-6.7679,-6.7696,-6.7713,-6.7621,-6.7574,-6.7154,-6.655,-6.6336,-6.6706,-6.715,0.0,0.0,0.0,0.0,0.0,0.0,0.0,0.0,0.0,0.0,0.0,0.0,0.0,0.0,0.0,0.0,0.0,0.0,0.0,0.0,0.0,0.0,0.0,-4.4367,-4.431,-4.431,-4.4485,-4.4949,-4.5925,-4.7051,-4.8137,-4.8221,-4.8761,0.0,0.0,0.0,0.0,0.0,-4.7351,-4.6235,-4.6982,-4.682,0.0,0.0,0.0,0.0,0.0,0.0,0.0,0.0,-4.6397,-4.7183,-4.7244,-4.7625,-4.7851,-4.6597,-4.6317,-4.6152,-4.516,-4.6386,0.0,0.0,0.0,0.0,0.0,0.0,0.0,0.0,0.0,0.0,0.0,0.0,0.0,0.0,0.0,0.0,0.0,0.0,0.0,0.0,0.0,0.0,0.0,-6.367,-6.4277,-6.5164,-6.4702,-6.461,-6.4976,-6.461,-6.4442,-6.4442,-6.461,-6.461,-6.4442,-6.461,-6.461,-6.4518,-6.5326,-6.5892,-6.6134,-6.6626,-6.681,-6.6694,-6.6727,-6.666,-6.6627,-6.6694,-6.6575,-6.6467,-6.6618,-6.6428,-6.6073,-6.5734,-6.608,-6.6612,0.0,0.0,0.0,0.0,0.0,0.0,0.0,0.0,0.0,0.0,0.0,0.0,0.0,0.0,0.0,0.0,0.0,0.0,0.0,0.0,0.0,0.0,0.0,-4.4759,-4.5108,-4.5108,-4.5303,-4.5716,-4.7582,-4.8765,-4.9287,-4.9517,0.0,0.0,0.0,0.0,0.0,0.0,-4.6274,-4.6274,-4.6274,-4.6274,-4.6274,0.0,0.0,0.0,0.0,0.0,0.0,0.0,-4.5446,-4.6124,-4.6229,-4.6686,-4.7045,-4.6296,-4.6841,-4.7654,-4.7654,-4.8046,0.0,0.0,0.0,0.0,0.0,0.0,0.0,0.0,0.0,0.0,0.0,0.0,0.0,0.0,0.0,0.0,0.0,0.0,0.0,0.0,0.0,0.0,-6.3143,-6.3222,-6.3589,-6.4571,-6.4272,-6.4007,-6.4007,-6.4007,-6.4007,-6.4007,-6.4442,-6.4426,-6.4007,-6.4442,-6.4442,-6.4007,-6.4007,-6.4333,-6.5,-6.573,-6.6095,-6.6095,-6.632,-6.6389,-6.6389,-6.6627,-6.643,-6.6022,-6.6022,-6.5559,-6.4811,-6.4143,-6.4334,-6.4817,0.0,0.0,0.0,0.0,0.0,0.0,0.0,0.0,0.0,0.0,0.0,0.0,0.0,0.0,0.0,0.0,0.0,0.0,0.0,0.0,0.0,0.0,0.0,0.0,0.0,0.0,-4.6213,-4.6098,-4.714,-4.8227,0.0,0.0,0.0,-4.9527,0.0,0.0,0.0,0.0,-4.5833,-4.5105,-4.5286,-4.498,-4.4394,0.0,0.0,0.0,0.0,0.0,0.0,0.0,0.0,0.0,-4.534,-4.6224,-4.6945,-4.5524,-4.5653,-4.5991,-4.4812,0.0,0.0,0.0,0.0,0.0,0.0,0.0,0.0,0.0,0.0,0.0,0.0,0.0,0.0,0.0,0.0,0.0,0.0,0.0,0.0,0.0,0.0,-6.1832,-6.1529,-6.2508,-6.3287,-6.341,-6.381,-6.4007,-6.4007,-6.4007,-6.4007,-6.4007,-6.4101,-6.4101,-6.4007,-6.4101,-6.4101,-6.4007,-6.4007,-6.4085,-6.4349,-6.4534,-6.461,-6.4627,-6.4702,-6.4686,-6.4686,-6.4777,-6.4725,-6.4598,-6.4896,-6.4836,-6.4639,-6.4218,-6.4691,-6.5229,0.0,0.0,0.0,0.0,0.0,0.0,0.0,0.0,0.0,0.0,0.0,0.0,0.0,0.0,0.0,0.0,0.0,0.0,0.0,0.0,0.0,0.0,0.0,0.0,0.0,-4.666,-4.7114,0.0,0.0,0.0,0.0,0.0,0.0,-4.9632,0.0,-4.7203,0.0,0.0,-4.4984,-4.4541,-4.4491,-4.4247,-4.3948,0.0,0.0,0.0,0.0,0.0,0.0,0.0,0.0,0.0,-4.4494,-4.5164,-4.6043,-4.5461,-4.5565,-4.5979,-4.6633,0.0,0.0,0.0,0.0,0.0,0.0,0.0,0.0,0.0,0.0,0.0,0.0,0.0,0.0,0.0,0.0,0.0,0.0,0.0,0.0,0.0,-6.102,-6.1234,-6.081,-6.1852,-6.2595,-6.2901,-6.3311,-6.37,-6.3991,-6.4007,-6.4007,-6.4007,-6.4007,-6.4007,-6.4007,-6.4007,-6.4007,-6.4007,-6.4007,-6.4007,-6.4007,-6.4007,-6.4007,-6.4007,-6.4007,-6.4007,-6.4007,-6.4007,-6.4007,-6.4056,-6.4287,-6.4417,-6.4513,-6.4127,-6.4465,-6.4961,0.0,0.0,0.0,0.0,0.0,0.0,0.0,0.0,0.0,0.0,0.0,0.0,0.0,0.0,0.0,0.0,0.0,0.0,0.0,0.0,0.0,0.0,0.0,0.0,0.0,0.0,0.0,0.0,0.0,0.0,0.0,0.0,-5.0445,-5.0081,0.0,-4.6867,0.0,0.0,-4.4047,-4.4558,-4.4006,-4.4064,-4.4446,-4.3948,0.0,0.0,0.0,0.0,0.0,0.0,0.0,0.0,-4.363,-4.3883,-4.4723,-4.5701,-4.6126,-4.7036,0.0,0.0,0.0,0.0,0.0,0.0,0.0,0.0,0.0,0.0,0.0,0.0,0.0,0.0,0.0,0.0,0.0,0.0,0.0,0.0,0.0,-5.9804,-6.043,-6.0863,-6.0712,-6.1147,-6.1823,-6.2772,-6.2858,-6.3214,-6.3975,-6.4007,-6.4007,-6.4007,-6.4007,-6.4007,-6.4007,-6.4007,-6.4007,-6.4007,-6.4007,-6.4007,-6.4007,-6.4007,-6.4007,-6.4007,-6.4007,-6.4007,-6.4007,-6.4007,-6.4007,-6.4007,-6.4007,-6.4206,-6.4481,-6.3837,-6.3902,-6.4044,0.0,0.0,0.0,0.0,0.0,0.0,0.0,0.0,0.0,0.0,0.0,0.0,0.0,0.0,0.0,0.0,0.0,0.0,0.0,0.0,0.0,0.0,0.0,0.0,0.0,0.0,0.0,0.0,0.0,0.0,0.0,0.0,0.0,-4.839,0.0,-4.6425,0.0,0.0,-4.5091,-4.525,-4.5037,-4.4766,-4.4601,-4.4984,-4.5001,0.0,0.0,0.0,0.0,0.0,0.0,0.0,-4.3284,-4.385,-4.4516,-4.3837,-4.5391,-4.7306,0.0,0.0,0.0,0.0,0.0,0.0,0.0,0.0,0.0,0.0,0.0,0.0,0.0,0.0,0.0,0.0,0.0,0.0,-6.0394,-6.0049,-5.9963,-6.0222,-6.0378,-6.0357,-6.0015,-6.0837,-6.1611,-6.1967,-6.2566,-6.3214,-6.3975,-6.4007,-6.4007,-6.4007,-6.4007,-6.4007,-6.4007,-6.4007,-6.4007,-6.4007,-6.4007,-6.4007,-6.4007,-6.4007,-6.4007,-6.4007,-6.4007,-6.4007,-6.4007,-6.4007,-6.4007,-6.4007,-6.4007,-6.401,-6.4123,-6.3962,-6.401,-6.4012,0.0,0.0,0.0,0.0,0.0,0.0,0.0,0.0,0.0,0.0,0.0,0.0,0.0,0.0,0.0,0.0,0.0,0.0,0.0,0.0,0.0,0.0,0.0,0.0,0.0,-4.6241,-4.6678,0.0,0.0,0.0,0.0,0.0,0.0,-4.7945,0.0,-4.6191,0.0,0.0,-4.5528,-4.5784,-4.5511,-4.5355,-4.5303,-4.5494,-4.5425,-4.5142,-4.5108,0.0,0.0,0.0,0.0,0.0,0.0,0.0,-4.3879,-4.4219,-4.4756,-4.5783,0.0,0.0,0.0,0.0,0.0,0.0,0.0,0.0,0.0,0.0,0.0,0.0,0.0,0.0,0.0,0.0,0.0,-6.0049,-6.0049,-5.9875,-5.9804,-6.0049,-6.0049,-5.9963,-5.9716,-6.02,-6.0808,-6.1271,-6.1967,-6.2696,-6.3441,-6.3813,-6.4007,-6.4007,-6.4007,-6.4007,-6.4007,-6.4007,-6.4007,-6.4007,-6.4007,-6.4007,-6.4007,-6.4007,-6.4007,-6.4007,-6.4007,-6.4007,-6.4007,-6.4007,-6.4007,-6.4007,-6.4007,-6.4007,-6.4007,-6.4007,-6.4007,-6.4007,0.0,0.0,0.0,0.0,0.0,0.0,0.0,0.0,0.0,0.0,0.0,0.0,0.0,0.0,0.0,0.0,0.0,0.0,0.0,0.0,0.0,0.0,0.0,0.0,0.0,-4.5149,-4.5396,0.0,0.0,0.0,0.0,0.0,0.0,-4.7773,0.0,0.0,0.0,0.0,0.0,-4.607,-4.5784,-4.5784,-4.5903,-4.5868,-4.57,-4.5372,-4.5425,-4.5125,-4.4669,-4.4855,0.0,0.0,0.0,0.0,-4.335,-4.4805,-4.4269,-4.4399,0.0,0.0,0.0,0.0,0.0,0.0,0.0,0.0,0.0,0.0,0.0,0.0,0.0,0.0,0.0,0.0,-5.9716,-5.9716,-5.9716,-5.9716,-5.9716,-5.9716,-5.9716,-5.9716,-5.9716,-5.9716,-6.0008,-6.0737,-6.1319,-6.1935,-6.2663,-6.3408,-6.3813,-6.3813,-6.3943,-6.4007,-6.4007,-6.4007,-6.4007,-6.4007,-6.4007,-6.4007,-6.4007,-6.4007,-6.4007,-6.4007,-6.4007,-6.4007,-6.4007,-6.4007,-6.4007,-6.4007,-6.4007,-6.4007,-6.4007,-6.4007,-6.4007,-6.4007,0.0,0.0,0.0,0.0,0.0,0.0,0.0,0.0,0.0,0.0,0.0,0.0,0.0,0.0,0.0,0.0,0.0,0.0,0.0,0.0,0.0,0.0,-4.4108,-4.4467,-4.6081,-4.5215,-4.5201,0.0,0.0,0.0,0.0,0.0,0.0,-4.6896,0.0,0.0,0.0,0.0,0.0,0.0,0.0,-4.6067,-4.5578,-4.6328,-4.6102,-4.5372,-4.592,-4.5735,-4.5266,-4.4981,-4.4855,0.0,0.0,0.0,-4.373,-4.3209,-4.4366,0.0,0.0,0.0,0.0,0.0,0.0,0.0,0.0,0.0,0.0,0.0,0.0,0.0,0.0,0.0,0.0,-5.9716,-5.9716,-5.9716,-5.9716,-5.9716,-5.9716,-5.9716,-5.9716,-5.9716,-5.9716,-5.9716,-6.0008,-6.0737,-6.0882,-6.1222,-6.1919,-6.2647,-6.3036,-6.3036,-6.3684,-6.4007,-6.4007,-6.4007,-6.4007,-6.4007,-6.4007,-6.4007,-6.4007,-6.4007,-6.4007,-6.4007,-6.4007,-6.4007,-6.4007,-6.4007,-6.4007,-6.4007,-6.4007,-6.4007,-6.4007,-6.4007,-6.4007,-6.4007,0.0,0.0,0.0,0.0,0.0,0.0,0.0,0.0,0.0,0.0,0.0,0.0,0.0,0.0,0.0,0.0,0.0,0.0,0.0,0.0,0.0,-4.4096,-4.3666,-4.4027,-4.5232,-4.4281,0.0,0.0,0.0,0.0,0.0,-4.5467,-4.5862,0.0,0.0,0.0,0.0,0.0,0.0,0.0,0.0,0.0,0.0,-4.6253,-4.6291,-4.6786,-4.6152,-4.5802,-4.5632,-4.5632,-4.539,-4.5037,-4.464,0.0,0.0,0.0,-4.4388,0.0,0.0,0.0,0.0,0.0,0.0,0.0,0.0,0.0,0.0,0.0,0.0,0.0,0.0,0.0,0.0,-5.9716,-5.9716,-5.9716,-5.9716,-5.9716,-5.9716,-5.9716,-5.9716,-5.9716,-5.9716,-5.9716,-5.9846,-6.017,-6.0575,-6.0931,-6.1222,-6.1902,-6.2469,-6.2874,-6.3214,-6.3586,-6.4007,-6.4007,-6.4007,-6.4007,-6.4007,-6.4007,-6.4007,-6.4007,-6.4007,-6.4007,-6.4007,-6.4007,-6.4007,-6.4007,-6.4007,-6.4007,-6.4007,-6.4007,-6.4007,-6.4007,-6.4007,-6.4007,0.0,0.0,0.0,0.0,0.0,0.0,0.0,0.0,0.0,0.0,0.0,0.0,0.0,0.0,0.0,0.0,0.0,0.0,0.0,0.0,0.0,-4.3316,-4.3027,-4.3389,-4.444,0.0,0.0,0.0,0.0,0.0,-4.408,-4.4282,-4.4705,0.0,-4.5097,0.0,0.0,0.0,0.0,0.0,0.0,0.0,0.0,0.0,-4.7418,-4.8342,-4.6739,-4.6325,-4.6448,-4.6096,-4.5768,-4.5477,-4.5372,-4.4984,0.0,0.0,0.0,0.0,0.0,0.0,0.0,0.0,0.0,0.0,0.0,0.0,0.0,0.0,0.0,0.0,0.0,0.0,-5.9716,-5.9716,-5.9716,-5.9716,-5.9716,-5.9716,-5.9716,-5.9716,-5.9716,-5.9716,-5.9716,-5.9716,-5.9716,-5.9716,-6.0218,-6.0526,-6.0526,-6.1174,-6.1805,-6.234,-6.2518,-6.2971,-6.3716,-6.3926,-6.4007,-6.4007,-6.4007,-6.4007,-6.4007,-6.4007,-6.4007,-6.4007,-6.4007,-6.4007,-6.4007,-6.4007,-6.4007,-6.4007,-6.4007,-6.4007,-6.4007,-6.4007,-6.4007,-6.4007,0.0,0.0,0.0,0.0,0.0,0.0,0.0,0.0,0.0,0.0,0.0,0.0,0.0,0.0,0.0,-4.1682,0.0,0.0,0.0,0.0,0.0,-4.2055,-4.2017,0.0,-4.4064,0.0,0.0,0.0,0.0,0.0,-4.3432,-4.3578,-4.3856,-4.4299,-4.5058,-4.563,-4.5972,0.0,0.0,0.0,0.0,-4.7869,0.0,0.0,0.0,0.0,0.0,-4.7877,-4.8048,-4.6044,-4.5717,-4.6055,-4.5477,-4.525,-4.5144,0.0,0.0,0.0,0.0,0.0,0.0,0.0,0.0,0.0,0.0,0.0,0.0,0.0,0.0,0.0,0.0,-5.9716,-5.9716,-5.9716,-5.9716,-5.9716,-5.9716,-5.9716,-5.9716,-5.9716,-5.9716,-5.9716,-5.9716,-5.9716,-5.9716,-5.9716,-5.9749,-5.9781,-5.9781,-6.0445,-6.0866,-6.0898,-6.153,-6.221,-6.2939,-6.3651,-6.4007,-6.4007,-6.4007,-6.4007,-6.4007,-6.4007,-6.4007,-6.4007,-6.4007,-6.4007,-6.4007,-6.4007,-6.4007,-6.4007,-6.4007,-6.4007,-6.4007,-6.4007,-6.4007,-6.4007,0.0,0.0,0.0,0.0,0.0,0.0,0.0,0.0,0.0,0.0,0.0,0.0,0.0,-4.2911,-4.274,-4.2245,-4.2224,0.0,0.0,0.0,0.0,-4.2047,-4.2856,-4.3471,-4.3756,0.0,0.0,0.0,0.0,-4.3476,-4.3535,-4.3706,-4.3614,-4.3384,-4.399,-4.515,-4.6594,-4.5343,0.0,0.0,-4.7327,-4.8098,-4.8796,0.0,0.0,0.0,0.0,0.0,0.0,-4.7601,-4.6829,-4.6172,-4.5938,-4.5887,-4.5837,-4.5615,-4.5001,-4.4811,-4.6614,0.0,0.0,0.0,0.0,0.0,0.0,0.0,0.0,0.0,0.0,0.0,-5.9716,-5.9716,-5.9716,-5.9716,-5.9716,-5.9716,-5.9716,-5.9716,-5.9716,-5.9716,-5.9716,-5.9716,-5.9716,-5.9716,-5.9716,-5.9716,-5.9716,-5.9716,-5.9716,-5.9959,-6.0316,-6.0785,-6.1028,-6.1498,-6.2194,-6.2923,-6.3295,-6.3295,-6.3781,-6.4007,-6.4007,-6.4007,-6.4007,-6.4007,-6.4007,-6.4007,-6.4007,-6.4007,-6.4007,-6.4007,-6.4007,-6.4007,-6.4007,-6.4007,-6.4007,-6.4007,0.0,0.0,0.0,0.0,0.0,0.0,0.0,0.0,0.0,0.0,0.0,0.0,0.0,0.0,-4.2634,-4.209,-4.2176,-4.1798,-4.0718,-4.1749,-4.2302,-4.1945,-4.2993,-4.3535,0.0,0.0,0.0,0.0,0.0,0.0,0.0,0.0,-4.3423,-4.2824,-4.3346,-4.4766,0.0,0.0,0.0,-4.6802,0.0,-4.8216,-4.8521,0.0,0.0,0.0,0.0,0.0,0.0,0.0,-4.8436,-4.7657,-4.7125,-4.6391,-4.5684,-4.5439,-4.4991,-4.4858,-4.5947,0.0,0.0,0.0,0.0,0.0,0.0,0.0,0.0,0.0,0.0,-5.9716,-5.9716,-5.9716,-5.9716,-5.9716,-5.9716,-5.9716,-5.9716,-5.9716,-5.9716,-5.9716,-5.9716,-5.9716,-5.9716,-5.9716,-5.9716,-5.9716,-5.9716,0.0,-5.9716,-5.9716,-5.9927,-6.0429,-6.0672,-6.1012,-6.1465,-6.2161,-6.2534,-6.2534,-6.3279,-6.3635,-6.3651,-6.3894,-6.4007,-6.4007,-6.4007,-6.4007,-6.4007,-6.4007,-6.4007,-6.4007,-6.4007,-6.4007,-6.4007,-6.4007,-6.4007,-6.4007,0.0,0.0,0.0,0.0,0.0,0.0,0.0,0.0,0.0,0.0,0.0,0.0,0.0,0.0,0.0,-4.1049,-4.1529,-4.1525,-4.0642,-4.1083,-4.1469,-4.1687,0.0,0.0,0.0,0.0,0.0,0.0,0.0,0.0,0.0,0.0,-4.3152,0.0,-4.3262,-4.463,-4.6367,0.0,-4.5427,-4.6938,0.0,-4.8256,-4.6439,0.0,0.0,0.0,-4.9936,-5.0063,0.0,-4.9984,0.0,-5.0332,-4.8863,-4.674,-4.4729,-4.3864,-4.3781,-4.3975,0.0,0.0,0.0,0.0,0.0,0.0,0.0,0.0,0.0,0.0,0.0,-5.9716,-5.9716,-5.9716,-5.9716,-5.9716,-5.9716,-5.9716,-5.9716,-5.9716,-5.9716,-5.9716,-5.9716,-5.9716,-5.9716,-5.9716,-5.9716,-5.9716,-5.9716,-5.9716,-5.9716,-5.9716,-5.9716,-5.9716,-6.0397,-6.0769,-6.0769,-6.1433,-6.1773,-6.1789,-6.2518,-6.2858,-6.2874,-6.3635,-6.3991,-6.3991,-6.4007,-6.4007,-6.4007,-6.4007,-6.4007,-6.4007,-6.4007,-6.4007,-6.4007,-6.4007,-6.4007,-6.4007,0.0,0.0,0.0,0.0,0.0,0.0,0.0,0.0,0.0,0.0,0.0,0.0,0.0,0.0,0.0,-4.2075,-4.2774,-4.3165,-4.2922,-4.3109,-4.3281,-4.3306,-4.3256,-4.3089,0.0,0.0,0.0,0.0,0.0,0.0,0.0,0.0,0.0,0.0,-4.3744,-4.45,-4.5745,-4.4399,0.0,0.0,-4.8362,-4.9034,0.0,0.0,0.0,0.0,0.0,-5.0896,-5.0149,0.0,-4.951,-4.6075,0.0,0.0,0.0,-4.3895,-4.3663,-4.3556,-4.3202,0.0,0.0,0.0,0.0,0.0,0.0,0.0,0.0,-5.6138,-5.813,-5.9716,-5.9716,-5.9716,-5.9716,-5.9716,-5.9716,-5.9716,-5.9716,-5.9716,-5.9716,-5.9716,-5.9716,-5.9716,-5.9716,-5.9716,-5.9716,0.0,-5.9716,-5.9716,-5.9716,-5.9716,-5.9716,-5.9716,-5.9911,-6.0008,-6.0008,-6.072,-6.1077,-6.1077,-6.1773,-6.2097,-6.2129,-6.2874,-6.3198,-6.323,-6.3781,-6.4007,-6.4007,-6.4007,-6.4007,-6.4007,-6.4007,-6.4007,-6.4007,-6.4007,-6.4007,-6.4007,0.0,0.0,0.0,0.0,0.0,0.0,0.0,0.0,0.0,0.0,0.0,0.0,0.0,0.0,0.0,-4.294,-4.3649,-4.4006,-4.3864,-4.3888,-4.3923,-4.4013,-4.3816,-4.3581,-4.3337,0.0,0.0,0.0,0.0,0.0,0.0,0.0,0.0,0.0,0.0,0.0,0.0,0.0,0.0,0.0,-4.7956,0.0,0.0,-5.1528,-5.2705,0.0,0.0,0.0,-5.1205,-5.3307,-5.0932,0.0,0.0,0.0,0.0,0.0,-4.3114,-4.3436,0.0,0.0,0.0,0.0,0.0,0.0,-4.894,-5.1892,-5.4665,0.0,-5.8551,-5.9716,-5.9716,-5.9716,-5.9716,-5.9716,-5.9716,-5.9716,-5.9716,-5.9716,-5.9716,-5.9716,-5.9716,-5.9716,-5.9716,-5.9716,-5.9716,-5.9716,-5.9716,-5.9716,-5.9716,-5.9716,-5.9716,-5.9716,-5.9716,-5.9716,-5.9716,-6.0137,-6.0348,-6.0348,-6.1044,-6.1384,-6.1417,-6.2113,-6.2599,-6.2906,-6.3344,-6.3732,-6.4007,-6.4007,-6.4007,-6.4007,-6.4007,-6.4007,-6.4007,-6.4007,-6.4007,-6.4007,0.0,0.0,0.0,0.0,0.0,0.0,0.0,0.0,0.0,0.0,0.0,0.0,0.0,0.0,0.0,0.0,-4.4199,-4.4473,-4.4209,-4.4079,-4.4065,-4.4169,-4.4061,-4.4085,-4.4011,0.0,0.0,0.0,0.0,0.0,0.0,0.0,0.0,0.0,0.0,0.0,0.0,0.0,0.0,-4.5107,-4.7708,-4.7723,0.0,0.0,-5.175,-5.0066,-5.2641,-5.2964,-5.2446,-5.4146,-5.3099,0.0,0.0,0.0,0.0,0.0,-4.2713,0.0,0.0,0.0,0.0,0.0,0.0,0.0,-5.0364,-5.1803,-5.338,0.0,-5.8929,-5.9004,-5.9004,-5.9004,-5.9004,-5.9004,-5.9198,-5.9441,-5.9684,-5.9716,-5.9716,-5.9716,-5.9716,-5.9716,-5.9716,-5.9716,-5.9716,-5.9716,-5.9716,-5.9716,-5.9716,-5.9716,-5.9716,-5.9716,-5.9716,-5.9716,-5.9716,-5.9716,-5.9716,-5.9733,-6.0364,-6.0672,-6.0704,-6.1384,-6.2048,-6.2663,-6.2744,-6.3198,-6.3894,-6.3894,-6.3943,-6.4007,-6.4007,-6.4007,-6.4007,-6.4007,-6.4007,-6.4007,0.0,0.0,0.0,0.0,0.0,0.0,0.0,0.0,0.0,0.0,0.0,0.0,0.0,0.0,0.0,0.0,-4.4646,-4.5356,-4.5283,-4.5251,-4.5198,-4.5123,-4.4646,-4.4354,-4.4267,-4.3546,0.0,0.0,0.0,0.0,0.0,0.0,0.0,0.0,0.0,0.0,0.0,0.0,0.0,-4.6222,-4.6914,0.0,-4.9312,-5.1587,-5.3142,-5.4244,-5.481,-5.3806,-5.1993,-5.0697,-5.1328,-5.191,0.0,0.0,0.0,-4.4364,0.0,0.0,0.0,0.0,0.0,0.0,0.0,0.0,-4.8958,-5.0391,-5.1608,0.0,-5.371,-5.4567,-5.4567,-5.4567,-5.4567,-5.4567,-5.6008,-5.7725,-5.9474,-5.9716,-5.9716,-5.9716,-5.9716,-5.9716,-5.9716,-5.9716,-5.9716,-5.9716,-5.9716,-5.9716,-5.9716,-5.9716,-5.9716,-5.9716,-5.9716,-5.9716,-5.9716,-5.9716,-5.9716,-5.9716,-5.9862,-5.9927,-5.9943,-6.0656,-6.1077,-6.1239,-6.1773,-6.2437,-6.3101,-6.3101,-6.3457,-6.4007,-6.4007,-6.4007,-6.4007,-6.4007,-6.4007,-6.4007,-4.6239,0.0,0.0,0.0,0.0,0.0,0.0,0.0,0.0,0.0,0.0,0.0,0.0,0.0,0.0,0.0,0.0,0.0,0.0,-4.5234,-4.5131,-4.5406,-4.4524,-4.4264,-4.4837,-4.4164,-4.4197,0.0,0.0,0.0,0.0,0.0,0.0,0.0,0.0,0.0,0.0,0.0,-4.4925,-4.5524,-4.7571,0.0,-5.1239,-5.312,-5.447,-5.5409,-5.5409,-5.4713,-5.3644,-5.256,-5.2114,0.0,0.0,-4.9367,-4.9028,0.0,-4.6013,-4.6759,0.0,0.0,0.0,-4.583,0.0,0.0,0.0,-5.0591,-5.1292,-5.2434,-5.2959,-5.3237,-5.3334,-5.3321,-5.3321,-5.3321,-5.5102,-5.6494,-5.6527,-5.8373,-5.9716,-5.9716,-5.9716,-5.9716,-5.9716,-5.9716,-5.9716,-5.9716,-5.9716,-5.9716,-5.9716,-5.9716,-5.9716,-5.9716,-5.9716,-5.9716,-5.9716,-5.9716,-5.9716,-5.9716,-5.9716,-5.9716,-5.9733,-6.0089,-6.0445,-6.0818,-6.1158,-6.1708,-6.234,-6.234,-6.2793,-6.3489,-6.3878,-6.4007,-6.4007,-6.4007,-6.4007,-6.4007,0.0,0.0,0.0,0.0,0.0,0.0,-4.3475,-4.3439,0.0,0.0,0.0,0.0,0.0,0.0,0.0,0.0,0.0,0.0,0.0,0.0,-4.5131,-4.5837,-4.4505,-4.4383,-4.582,-4.5079,-4.4923,-4.5423,0.0,0.0,0.0,0.0,0.0,0.0,0.0,0.0,0.0,0.0,0.0,-4.5654,0.0,-5.0513,-5.1199,-5.3369,-5.4438,-5.4843,-5.5264,-5.5409,-5.5345,-5.5085,-5.3264,-5.1212,-5.1289,-5.0637,0.0,0.0,0.0,0.0,0.0,0.0,0.0,0.0,0.0,-4.8601,0.0,0.0,0.0,0.0,0.0,0.0,0.0,0.0,0.0,0.0,0.0,0.0,0.0,-5.5944,0.0,-5.8486,-5.9215,-5.9555,-5.9134,-5.9101,-5.9263,-5.9684,-5.9328,-5.9279,-5.9684,-5.9716,-5.9716,-5.9716,-5.9716,-5.9716,-5.9716,-5.9716,-5.9716,-5.9716,-5.9716,-5.9716,-5.9716,-5.9716,-6.0024,-6.0591,-6.0591,-6.0979,-6.1611,-6.1611,-6.2032,-6.2761,-6.3505,-6.3878,-6.4007,-6.4007,-6.4007,-6.4007,-4.6273,-4.6118,0.0,0.0,0.0,-4.4251,-4.4165,-4.4147,0.0,0.0,0.0,0.0,0.0,0.0,0.0,0.0,0.0,0.0,-4.6724,0.0,0.0,-4.7424,-4.5597,-4.5459,-4.7407,-4.6044,-4.5337,-4.5423,0.0,0.0,0.0,0.0,0.0,0.0,-4.675,0.0,0.0,0.0,-4.8427,0.0,-5.0406,-4.905,0.0,-4.8933,-5.0924,-5.2802,-5.4729,-5.5409,-5.5199,0.0,-5.3017,-5.2181,0.0,-5.143,-5.3315,-4.7692,0.0,0.0,0.0,0.0,0.0,0.0,-4.8661,0.0,0.0,0.0,-4.9059,-4.9441,0.0,0.0,0.0,0.0,0.0,0.0,0.0,0.0,-4.9629,-5.2139,-5.4049,-5.4049,-5.7401,-5.8955,-5.7045,-5.6867,-5.766,-5.9571,-5.7952,-5.7692,-5.9619,-5.9716,-5.9716,-5.9716,-5.9716,-5.9716,-5.9716,-5.9716,-5.9716,-5.9716,-5.9716,-5.9716,-5.9716,-5.9716,-5.9765,-5.983,-5.983,-6.0251,-6.0915,-6.0915,-6.1319,-6.2,-6.2728,-6.3424,-6.4007,-6.4007,-6.4007,-6.4007,-4.4867,0.0,0.0,0.0,0.0,-4.368,-4.3781,-4.3781,0.0,0.0,0.0,0.0,0.0,0.0,0.0,0.0,0.0,-4.8264,0.0,0.0,0.0,-4.6389,-4.4902,-4.4831,-4.6337,-4.5027,-4.4456,-4.4751,-4.4854,0.0,0.0,0.0,0.0,0.0,-4.7361,0.0,-4.7822,0.0,-4.894,0.0,0.0,0.0,0.0,-5.0885,-5.3288,-5.4179,-5.5086,-5.5409,-5.528,0.0,-5.3252,0.0,0.0,0.0,0.0,-4.9814,0.0,0.0,0.0,0.0,0.0,0.0,0.0,0.0,-5.0414,0.0,-4.8514,0.0,0.0,0.0,0.0,0.0,0.0,0.0,-4.8763,0.0,0.0,0.0,-5.2695,0.0,0.0,0.0,-5.6462,-5.7628,-5.8745,-5.9636,-5.8874,-5.8761,-5.9668,-5.9716,-5.9716,-5.9716,-5.9716,-5.9716,-5.9716,-5.9716,-5.9716,-5.9716,-5.9716,-5.9716,-5.9716,-5.9716,-5.9716,-5.9716,-5.9716,-5.9895,-6.017,-6.017,-6.0591,-6.1255,-6.1546,-6.2372,-6.3408,-6.3845,-6.4007,-6.4007,-4.3781,0.0,0.0,0.0,0.0,0.0,0.0,0.0,0.0,0.0,0.0,0.0,-4.5077,-4.6548,0.0,0.0,-4.962,-4.9889,0.0,0.0,-4.787,0.0,0.0,0.0,-4.7032,-4.5163,-4.4329,-4.4681,-4.4784,0.0,0.0,0.0,0.0,0.0,0.0,-4.8371,-4.9542,0.0,0.0,-4.7754,-4.9984,-4.9588,-4.8242,-5.263,-5.4745,-5.5344,-5.5344,-5.5344,-5.5361,-5.5181,-5.3602,0.0,-5.4759,0.0,-5.1078,0.0,0.0,0.0,-4.7813,0.0,0.0,0.0,0.0,0.0,0.0,0.0,0.0,0.0,0.0,0.0,0.0,0.0,0.0,0.0,0.0,-4.8286,0.0,-4.8489,0.0,0.0,0.0,0.0,0.0,-5.7045,-5.8211,-5.8794,-5.8826,-5.9085,-5.9684,-5.9716,-5.9716,-5.9716,-5.9716,-5.9716,-5.9716,-5.9716,-5.9716,-5.9716,-5.9716,-5.9716,-5.9716,-5.9716,-5.9716,-5.9716,-5.9716,-5.9716,-5.9716,-5.9716,-6.0024,-6.0526,-6.072,-6.1417,-6.2421,-6.336,-6.37,-6.3732,-4.3715,-4.4872,0.0,0.0,0.0,0.0,0.0,0.0,0.0,0.0,0.0,0.0,0.0,0.0,0.0,0.0,0.0,-5.4655,-5.3772,0.0,-5.1215,0.0,0.0,-4.6881,0.0,-4.77,-4.5717,-4.5735,-4.5735,0.0,0.0,0.0,0.0,0.0,0.0,-4.7963,-4.7943,-4.9277,-5.068,-5.2097,-5.2194,-5.3131,-5.4269,0.0,-5.3166,-5.5113,-5.5113,0.0,0.0,-5.4459,-5.407,0.0,0.0,0.0,0.0,0.0,0.0,0.0,0.0,0.0,0.0,-4.7963,0.0,0.0,0.0,0.0,-4.8189,0.0,0.0,0.0,0.0,0.0,0.0,0.0,0.0,0.0,0.0,0.0,0.0,0.0,0.0,0.0,0.0,-5.3483,-5.4389,-5.6446,-5.6591,-5.7514,-5.9603,-5.9716,-5.9716,-5.9716,-5.9716,-5.9716,-5.9716,-5.9716,-5.9716,-5.9716,-5.9716,-5.9716,-5.9716,-5.9716,-5.9716,-5.9716,-5.9716,-5.9716,-5.9716,-5.9716,-5.9733,-5.983,-6.0526,-6.0818,-6.1028,-6.2404,-6.2923,-6.3036,0.0,0.0,0.0,0.0,0.0,0.0,0.0,-4.5438,0.0,0.0,0.0,0.0,0.0,-5.1772,-5.3199,0.0,0.0,-5.5253,-5.4852,-5.2514,0.0,0.0,0.0,-4.7037,0.0,0.0,0.0,-4.5855,0.0,0.0,0.0,0.0,0.0,0.0,0.0,-4.8394,0.0,0.0,0.0,0.0,0.0,-5.166,-5.2359,0.0,-5.4189,-5.488,-5.488,-5.5336,0.0,-5.5653,-5.5247,-5.5163,-5.6334,-5.5584,-5.4378,-5.4989,-5.4717,-5.3807,0.0,0.0,-5.3576,-5.042,0.0,0.0,0.0,0.0,0.0,0.0,0.0,0.0,0.0,0.0,0.0,0.0,-4.6753,-4.5639,0.0,0.0,0.0,0.0,0.0,0.0,0.0,0.0,-5.5717,-5.6446,-5.7822,-5.8939,-5.9668,-5.9716,-5.9716,-5.9716,-5.9716,-5.9716,-5.9716,-5.9716,-5.9716,-5.9716,-5.9716,-5.9716,-5.9716,-5.9716,-5.9716,-5.9716,-5.9716,-5.9716,-5.9716,-5.9716,-5.9716,-5.9733,-5.9976,-6.0073,-6.0251,-6.166,-6.2178,-6.2275,-4.6106,0.0,0.0,0.0,0.0,0.0,0.0,0.0,0.0,0.0,-4.9007,0.0,-5.1944,0.0,-5.439,0.0,-5.636,-5.6448,-5.5809,-5.4373,0.0,-5.4133,-5.057,0.0,0.0,0.0,0.0,0.0,0.0,-4.763,0.0,0.0,0.0,0.0,0.0,-4.8455,-5.0743,0.0,-5.2898,0.0,0.0,-5.2221,0.0,0.0,-5.4166,-5.3722,0.0,-5.5638,-5.6272,-5.6856,-5.6779,-5.685,-5.8502,-5.745,-5.5848,-5.7119,-5.6545,-5.5292,-5.4416,-5.5215,0.0,-5.2349,-5.2621,0.0,-5.0016,0.0,-4.9448,0.0,0.0,0.0,0.0,0.0,0.0,-4.9283,-4.7063,-4.5092,0.0,-4.4251,0.0,0.0,0.0,0.0,0.0,-5.1944,-5.4567,-5.6365,-5.7547,-5.8632,-5.9668,-5.9716,-5.9716,-5.9716,-5.9716,-5.9716,-5.9716,-5.9716,-5.9716,-5.9716,-5.9331,-5.9331,-5.9716,-5.9331,-5.9331,-5.9716,-5.9716,-5.9716,-5.9716,-5.9716,-5.9716,-5.9716,-5.9716,-5.9716,-5.9846,-6.1012,-6.1611,-6.187,0.0,0.0,0.0,0.0,-4.607,0.0,0.0,0.0,-4.7171,0.0,-4.9872,-5.0908,-5.3208,-5.4823,-5.6017,-5.6719,-5.8176,-5.8421,-5.6859,-5.6666,0.0,0.0,-5.4472,-5.4261,-5.6543,0.0,0.0,0.0,0.0,0.0,0.0,0.0,0.0,0.0,-4.6423,0.0,-5.173,-5.1543,-5.3226,-5.5826,-5.4851,-5.4533,-5.4585,-5.4274,-5.3022,-5.1805,-5.4729,-5.6039,-5.6498,-5.8092,-5.8664,-5.881,-5.9506,-5.9716,-5.9716,-5.9716,-5.9716,-5.9188,-5.7018,-5.6484,-5.5947,-5.3686,-5.3159,0.0,0.0,0.0,-5.1606,0.0,0.0,0.0,0.0,0.0,0.0,-5.0295,-4.7063,-4.398,-4.2789,0.0,-4.2587,0.0,-4.4593,0.0,-4.8625,-4.903,-5.1167,-5.5976,-5.5798,-5.6705,0.0,-5.9619,-5.9603,-5.9716,-5.9716,-5.9716,-5.9628,-5.9716,-5.9612,-5.9524,-5.8669,-5.8669,-5.9524,-5.8578,-5.8669,-5.9628,-5.9716,-5.9716,-5.9716,-5.9716,-5.9716,-5.9716,-5.9716,-5.9716,-5.9797,-6.0494,-6.1174,-6.1757,-4.5208,-4.5556,-4.5908,0.0,-4.5769,-4.5899,0.0,0.0,0.0,0.0,-5.3287,-5.5389,-5.7316,-5.8351,-5.9001,-5.9194,-5.958,0.0,0.0,0.0,0.0,-5.9124,-5.5332,-5.4261,-5.6543,-5.3401,-5.1733,-5.1733,0.0,0.0,-4.9363,0.0,0.0,0.0,0.0,0.0,-5.1764,-5.1719,-5.3414,-5.6129,-5.5081,-5.377,-5.2685,0.0,-5.4154,-5.2604,-5.4751,-5.6509,-5.7785,-5.8243,-5.8814,-5.9474,-5.9652,-5.9716,-5.9716,-5.9716,-5.9716,-5.9555,-5.8966,-5.884,-5.8293,-5.6046,-5.5454,-5.504,0.0,0.0,0.0,0.0,0.0,0.0,0.0,0.0,0.0,0.0,-4.6435,-4.4152,0.0,0.0,0.0,-4.3362,-4.5807,-4.7038,-4.5986,-4.9208,-5.2139,-5.4001,-5.5426,-5.7239,-5.9587,0.0,-5.8049,-5.9668,-5.9716,-5.9331,-5.8578,-5.9347,-5.8924,-5.7371,-5.7902,-5.7902,-5.7371,-5.7995,-5.8303,-5.8594,-5.9347,-5.9716,-5.9716,-5.9716,-5.9716,-5.9716,-5.9716,-5.9716,-5.9733,-5.9927,-6.0445,-6.106,-4.5046,0.0,0.0,-4.5659,0.0,0.0,-4.7608,-4.7891,0.0,-5.2026,-5.3917,0.0,-5.7754,-5.9247,-6.0089,-6.0089,-6.0089,0.0,-5.8632,0.0,0.0,-5.8562,-5.7052,-5.6806,-5.8105,-5.5771,0.0,-5.3541,0.0,0.0,-4.9662,0.0,0.0,0.0,0.0,-4.7698,0.0,-5.2619,-5.4178,-5.5406,-5.5485,-5.481,0.0,-5.5748,-5.5924,-5.5451,-5.6796,-5.7748,-5.8404,-5.8814,-5.9289,-5.9716,-5.9716,-5.9716,-5.9716,-5.9716,-5.9716,-5.9716,-5.9716,-5.9716,-5.9399,-5.8065,-5.7822,-5.7396,-5.5946,-5.5538,-5.558,0.0,-5.5592,-5.5303,0.0,0.0,0.0,0.0,0.0,0.0,0.0,0.0,0.0,0.0,-4.4949,-4.5775,-4.4885,-4.9232,-5.232,-5.2802,-5.3889,-5.5085,-5.6365,0.0,-5.7045,-5.8259,-5.8759,-5.8776,-5.8211,-5.8272,-5.7761,-5.6592,-5.6735,-5.6719,-5.6592,-5.6719,-5.7117,-5.759,-5.8562,-5.9046,-5.9062,-5.9524,-5.9716,-5.9716,-5.9716,-5.9716,-5.9716,-5.9716,-5.9976,-6.0316,0.0,0.0,0.0,0.0,0.0,0.0,0.0,-4.8592,0.0,-5.2932,0.0,-5.484,-5.6842,-5.8878,-6.0089,-6.0089,0.0,-5.9229,-5.7193,-5.8966,-5.9194,-5.714,-5.9001,-6.0089,-6.0089,-5.8597,-5.7,0.0,0.0,0.0,0.0,0.0,0.0,0.0,0.0,0.0,0.0,-5.3815,-5.5176,-5.4987,-5.6162,-5.6671,-5.689,-5.7411,-5.8117,-5.8889,-5.953,-5.9226,-5.8597,-5.9418,-5.9716,-5.9716,-5.9716,-5.9716,-5.9716,-5.9716,-5.9716,-5.9716,-5.9716,-5.9716,-5.9716,-5.9716,-5.9716,-5.9372,-5.8117,-5.7754,-5.7738,-5.7462,-5.6581,-5.6485,-5.8442,0.0,0.0,0.0,0.0,0.0,0.0,0.0,0.0,0.0,0.0,0.0,-4.5046,-4.8877,-5.1504,-5.1782,-5.1504,-5.1746,-5.2592,0.0,-5.6235,-5.6899,-5.7714,-5.8103,-5.801,-5.7102,-5.6495,-5.6204,-5.546,-5.546,-5.6204,-5.546,-5.556,-5.6495,-5.7512,-5.801,-5.8103,-5.894,-5.9419,-5.9524,-5.9524,-5.9612,-5.9716,-5.9716,-5.9716,-5.9716,0.0,0.0,0.0,0.0,0.0,-5.069,-5.2298,-5.3822,-5.5069,-5.5894,-5.7684,-5.9036,-5.944,-5.9843,-6.0089,-6.0089,-6.0089,0.0,0.0,0.0,0.0,-5.9492,-5.9879,-6.0089,-6.0089,-5.8597,-5.6719,0.0,0.0,0.0,0.0,0.0,0.0,0.0,0.0,0.0,-5.2507,-5.4614,0.0,-5.8101,-5.8327,-5.8446,-5.8623,-5.9944,-6.0128,-5.973,-6.0506,-6.0148,-5.9451,-5.9668,-5.9716,-5.9716,-5.9716,-5.9716,-5.9716,-5.9716,-5.9716,-5.9716,-5.9716,-5.9716,-5.9716,-5.9716,-5.9716,-5.9603,-5.9388,-5.9307,-5.9307,-5.9204,-5.9084,-5.8652,-5.7937,0.0,0.0,0.0,0.0,0.0,0.0,0.0,0.0,0.0,0.0,-4.9596,-4.6795,-4.7809,-4.8909,-4.9532,-4.899,-5.0461,-5.4632,0.0,-5.4859,0.0,-5.8494,-5.7808,0.0,0.0,-5.5728,-5.4097,-5.4786,-5.4684,-5.4097,-5.4786,-5.5175,-5.546,-5.6414,-5.6896,-5.6896,-5.7071,-5.7684,-5.8487,-5.8487,-5.8956,-5.9716,-5.9716,-5.9716,-5.9716,0.0,0.0,0.0,0.0,0.0,0.0,0.0,-5.6929,-5.7983,-5.6754,-5.7579,-5.8281,-5.8281,-5.9369,-6.0089,-6.0089,-6.0089,-6.0089,-6.0089,-6.0089,-6.0089,-6.0089,-6.0089,-6.0089,-6.0089,-5.9369,-5.7263,-5.362,0.0,0.0,0.0,0.0,0.0,0.0,0.0,-4.8417,0.0,0.0,0.0,-5.779,-5.9061,-5.9706,-6.019,-6.1371,-6.1503,-6.1107,-6.1475,-6.1053,-6.0276,-5.9875,-5.9716,-5.9716,-5.9716,-5.9716,-5.9716,-5.9716,-5.9716,-5.9716,-5.9716,-5.9716,-5.9716,-5.9716,-5.9716,-5.9716,-5.9716,-5.9716,-5.9716,-5.9716,-5.9716,-5.9096,-5.7211,-5.4817,0.0,0.0,0.0,0.0,0.0,0.0,-5.128,0.0,0.0,0.0,-4.8123,-4.6989,0.0,0.0,0.0,-4.9918,-5.3563,0.0,-5.3984,0.0,0.0,0.0,-5.6592,0.0,-5.4479,-5.3515,-5.4008,-5.4008,-5.3515,-5.3993,-5.4304,-5.4289,-5.5361,-5.5842,-5.5827,-5.6399,-5.6896,-5.7402,-5.7995,-5.8503,-5.8956,-5.9524,-5.9716,-5.9716,0.0,-4.6981,0.0,0.0,-5.2624,0.0,-5.6357,-5.8579,-5.944,-5.7579,-5.7333,-5.7333,-5.7333,-5.8983,-6.0089,-6.0089,-6.0089,-6.0089,-6.0089,-6.0089,-6.0089,-6.0089,-6.0089,-6.0089,-6.0089,-6.0089,-5.8008,0.0,0.0,0.0,0.0,0.0,0.0,0.0,0.0,0.0,0.0,0.0,-5.7021,-5.778,-5.9994,-6.12,-6.177,-6.2586,-6.2707,-6.2428,-6.2273,-6.1673,-6.0836,-6.0033,-5.9716,-5.9716,-5.9716,-5.9716,-5.9716,-5.9716,-5.9716,-5.9716,-5.9716,-5.9716,-5.9716,-5.9716,-5.9716,-5.9716,-5.9716,-5.9716,-5.9716,-5.9716,-5.9716,-5.9031,-5.6948,-5.4991,0.0,0.0,0.0,0.0,0.0,0.0,-5.34,0.0,0.0,0.0,-4.9936,-4.7912,0.0,0.0,0.0,0.0,-5.1863,0.0,0.0,0.0,0.0,-5.6151,-5.5946,0.0,-5.371,-5.3515,-5.3515,-5.3515,-5.3515,-5.3515,-5.3515,-5.3515,-5.4392,-5.4786,-5.4786,-5.5644,-5.6122,-5.6414,-5.7213,-5.7715,-5.7995,-5.9046,-5.9347,-5.9435,0.0,0.0,0.0,0.0,0.0,-5.641,-5.6561,-5.8579,-6.0019,-5.9791,-5.9773,-5.9773,-5.9773,-5.9966,-6.0089,-6.0089,-6.0089,-6.0089,-6.0089,-6.0089,-6.0089,-6.0089,-6.0089,-6.0089,-6.0089,-6.0089,-5.8843,0.0,0.0,-5.057,0.0,0.0,0.0,0.0,0.0,0.0,0.0,-5.7158,-5.8885,-6.0959,-6.2638,-6.3306,-6.3448,-6.42,-6.4024,-6.3297,-6.2506,-6.1673,-6.0836,-6.0033,-5.9716,-5.9716,-5.9716,-5.9716,-5.9716,-5.9716,-5.9716,-5.9716,-5.9716,-5.9716,-5.9716,-5.9716,-5.9716,-5.9716,-5.9716,-5.9716,-5.9716,-5.9716,-5.9716,-5.9193,-5.7623,-5.823,-5.8584,0.0,0.0,0.0,0.0,0.0,-5.828,-5.6235,0.0,0.0,-5.3094,-5.2673,0.0,0.0,-4.9936,0.0,0.0,0.0,0.0,-5.6413,-5.5605,-5.4699,-5.3684,-5.4571,-5.4494,-5.3515,-5.3515,-5.3515,-5.3515,-5.3515,-5.3515,-5.3515,-5.362,-5.3605,-5.3605,-5.371,-5.4392,-5.5275,-5.5376,-5.5941,-5.6896,-5.7995,-5.8303,-5.8487,0.0,0.0,0.0,0.0,0.0,0.0,0.0,-5.9492,-6.0089,-6.0089,-6.0089,-6.0089,-6.0089,-6.0089,-6.0089,-6.0089,-6.0089,-6.0089,-6.0089,-6.0089,-6.0089,-6.0089,-6.0089,-6.0089,-6.0089,-6.0089,-5.872,0.0,0.0,0.0,0.0,0.0,0.0,0.0,0.0,-5.4075,-5.6668,-5.8903,-6.0984,-6.2722,-6.3337,-6.3863,-6.4302,-6.4601,-6.4481,-6.4093,-6.3297,-6.2445,-6.1592,-6.0736,-6.0103,-5.9716,-5.9716,-5.9716,-5.9716,-5.9716,-5.9716,-5.9716,-5.9716,-5.9716,-5.9716,-5.9716,-5.9716,-5.9716,-5.9716,-5.9716,-5.9716,-5.9716,-5.9716,-5.9529,-5.8893,-5.7878,-5.7485,-5.8684,0.0,0.0,0.0,0.0,0.0,-5.8534,0.0,-5.5685,-5.5264,-5.3534,0.0,0.0,0.0,0.0,0.0,0.0,0.0,-5.6446,0.0,-5.6659,-5.6277,-5.5463,-5.4887,-5.4494,-5.3815,-5.3515,-5.3515,-5.3515,-5.3515,-5.3515,-5.3515,-5.3515,-5.3515,-5.3515,-5.371,-5.42,-5.4887,-5.5376,-5.5842,-5.6911,-5.7197,-5.7292,-5.405,0.0,-5.4911,0.0,-5.7632,-5.8193,-5.9843,-6.0089,-6.0089,-6.0089,-6.0089,-6.0089,-6.0089,-6.0089,-6.0089,-6.0089,-6.0089,-6.0089,-6.0089,-6.0089,-6.0089,-6.0089,-6.0089,0.0,-6.0089,-6.0089,-5.8955,-5.6703,-5.4087,0.0,0.0,0.0,0.0,0.0,-5.4647,-5.651,-5.8086,-6.0797,-6.2599,-6.3618,-6.3846,-6.425,-6.4724,-6.4724,-6.4724,-6.4568,-6.3788,-6.3073,-6.2445,-6.1592,-6.097,-6.0328,-5.9875,-5.9716,-5.9716,-5.9716,-5.9716,-5.9716,-5.9716,-5.9716,-5.9716,-5.9716,-5.9716,-5.9716,-5.9716,-5.9716,-5.9716,-5.9716,-5.9716,-5.9716,-5.9716,-5.8049,-5.7336,-5.9393,0.0,0.0,0.0,-5.9716,0.0,-5.8481,-5.6767,-5.5847,-5.6088,-5.4406,0.0,0.0,0.0,0.0,0.0,0.0,0.0,0.0,0.0,0.0,-5.7279,-5.6442,-5.5659,-5.5089,-5.4289,-5.3815,-5.3515,-5.3515,-5.3515,-5.3515,-5.3515,-5.3515,-5.3515,-5.3515,-5.3515,-5.362,-5.4289,-5.4597,-5.4786,-5.5728,-5.6122,-5.6219,-5.6122,-5.6561,-5.7298,-5.965,-6.0054,-6.0054,-6.0089,-6.0089,-6.0089,-6.0089,-6.0089,-6.0089,-6.0089,-6.0089,-6.0089,-6.0089,-6.0089,-6.0089,-6.0089,-6.0089,-6.0089,0.0,0.0,-6.0089,-6.0089,-6.0089,-6.0072,-6.0036,0.0,0.0,-5.5137,0.0,-5.2761,-5.6526,-5.6561,-5.8316,-6.1353,-6.2898,-6.3565,-6.3653,-6.4408,-6.4706,-6.4724,-6.4724,-6.4724,-6.4568,-6.3788,-6.3462,-6.3388,-6.2523,-6.2195,-6.1879,-6.0259,-5.9716,-5.9716,-5.9716,-5.9716,-5.9716,-5.9716,-5.9716,-5.9716,-5.9716,-5.9716,-5.9716,-5.9716,-5.9716,-5.9716,-5.9716,-5.9716,-5.9716,-5.9716,-5.9684,-5.9668,-5.97,0.0,0.0,0.0,-5.9716,0.0,-5.5599,-5.6007,-5.6136,-5.5293,-5.5974,0.0,0.0,0.0,0.0,0.0,0.0,0.0,-5.6494,-5.651,0.0,-5.5011,-5.7078,-5.7133,-5.5089,-5.5089,-5.4494,-5.3515,-5.3515,-5.3515,-5.3515,-5.3515,-5.3515,-5.3515,-5.3515,-5.3515,-5.3515,-5.3515,-5.3515,-5.3605,-5.4684,-5.5089,-5.5275,-5.8843,-5.8983,-5.9211,-5.9966,-6.0089,-6.0089,-6.0089,-6.0089,-6.0089,-6.0089,-6.0089,-6.0089,-6.0089,-6.0089,-6.0089,0.0,-6.0089,-6.0089,0.0,-6.0089,-6.0089,-6.0089,-6.0089,-6.0089,-6.0089,-6.0089,-6.0089,-6.0089,0.0,0.0,0.0,-5.4677,-5.6044,-5.9808,-5.9808,-6.0949,-6.2898,-6.3389,-6.3881,-6.4372,-6.4618,-6.4724,-6.4724,-6.4724,-6.4724,-6.4655,-6.4411,-6.395,-6.3479,-6.3148,-6.2676,-6.2116,-6.1575,-6.1053,-6.043,-5.9875,-5.9716,-5.9716,-5.9716,-5.9716,-5.9716,-5.9716,-5.9716,-5.9716,-5.9716,-5.9716,-5.9716,-5.9716,-5.9716,-5.9716,-5.9716,-5.9716,-5.9716,-5.9716,-5.9716,0.0,-5.9716,0.0,-5.9376,-5.8383,-5.8464,-5.8599,-5.8286,-5.8362,0.0,0.0,0.0,0.0,0.0,0.0,0.0,0.0,-5.7919,0.0,-5.8229,-5.8153,-5.7917,-5.7228,-5.5774,-5.4494,-5.3515,-5.3515,-5.3515,-5.3515,-5.3515,-5.3515,-5.3515,-5.3515,-5.3515,-5.3515,-5.3515,-5.3515,-5.3515,-5.3904,-5.4008,-5.4097,-6.0089,-6.0089,-6.0089,-6.0089,-6.0089,-6.0089,-6.0089,-6.0089,-6.0089,-6.0089,-6.0089,-6.0089,-6.0089,-6.0089,0.0,-6.0089,-6.0089,-6.0089,-6.0089,-6.0089,-6.0089,-6.0089,-6.0089,-6.0089,-6.0089,-6.0089,0.0,-6.0089,-5.8632,-5.807,-5.8351,-5.7895,-5.9124,-6.1722,-6.202,-6.2687,-6.3618,-6.3898,-6.4285,-6.4724,-6.4724,-6.4724,-6.4724,-6.4724,-6.4724,-6.4724,-6.4724,-6.4411,-6.3933,-6.3933,-6.3608,-6.3073,-6.2753,-6.2133,-6.1283,-6.043,-5.9963,-5.9716,-5.9716,-5.9716,-5.9716,-5.9716,-5.9716,-5.9716,-5.9716,-5.9716,-5.9716,-5.9716,-5.9716,-5.9716,-5.9716,-5.9716,-5.9716,-5.9716,-5.9716,-5.9716,-5.9716,-5.9716,-5.9312,-5.8157,-5.827,-5.8405,0.0,-5.8168,-5.8103,0.0,0.0,0.0,0.0,0.0,-5.8259,-5.7725,-5.9004,-5.9716,-5.9716,-5.9062,-5.8578,-5.8195,-5.6054,-5.4494,-5.3515,-5.3515,-5.3515,-5.3515,-5.3515,-5.3515,-5.3515,-5.3515,-5.3515,-5.3515,-5.3515,-5.3515,-5.3515,-5.3515,-5.3515,-5.3515,-6.0025,-6.0025,-6.0025,-6.0025,-6.0107,-6.0089,-6.0107,-6.0089,-6.0089,-6.0089,-6.0089,-6.0107,-6.0177,-6.0177,-6.0194,-6.0247,0.0,0.0,-6.0089,-6.0089,-6.0089,-6.0089,-6.0089,-6.0089,-6.0089,-6.0089,-6.0124,-6.0177,-6.023,-6.0633,-6.1371,-6.1371,-6.1774,-6.2512,-6.3267,-6.3618,-6.3723,-6.4425,-6.4724,-6.4724,-6.4724,-6.4724,-6.4724,-6.4724,-6.4724,-6.4724,-6.4724,-6.4724,-6.4724,-6.4724,-6.4724,-6.4568,-6.3788,-6.2922,-6.2037,-6.1218,-6.0345,-5.9716,-5.9716,-5.9716,-5.9716,-5.9716,-5.9716,-5.9716,-5.9716,-5.9716,-5.9716,-5.9716,-5.9716,-5.9716,-5.9716,-5.9716,-5.9716,-5.9716,-5.9716,-5.9716,-5.9716,-5.9716,-5.8642,-5.5825,0.0,0.0,-5.5567,-5.6265,-5.7498,0.0,0.0,0.0,0.0,0.0,-5.7482,-5.9636,-5.9716,-5.9716,-5.9716,-5.9716,-5.9241,-5.8211,-5.6152,-5.4597,-5.3605,-5.3515,-5.3515,-5.3515,-5.3515,-5.3515,-5.3515,-5.3515,-5.3515,-5.3515,-5.3515,-5.3515,-5.3515,-5.3515,-5.3515,-5.3515,0.0,0.0,-5.9351,-5.9635,-5.97,-5.9831,-6.0025,-6.0089,-6.0089,-6.0089,-6.0089,-6.0335,-6.0949,-6.102,-6.123,-6.1792,-6.0774,-6.0089,-6.0089,-6.0089,-6.0089,-6.0089,-6.0089,-6.0089,-6.0089,-6.0089,-6.0388,-6.102,-6.1564,-6.1932,-6.2125,-6.2125,-6.2547,-6.3319,-6.3512,-6.3916,-6.446,-6.4653,-6.4724,-6.4724,-6.4724,-6.4724,-6.4724,-6.4724,-6.4724,-6.4724,-6.4724,-6.4724,-6.4724,-6.4724,-6.4724,-6.4655,-6.4481,-6.3388,-6.2037,-6.1218,-6.0345,-5.9716,-5.9716,-5.9716,-5.9716,-5.9716,-5.9716,-5.9716,-5.9716,-5.9716,-5.9716,-5.9716,-5.9716,-5.9716,-5.9716,-5.9716,-5.9716,-5.9716,-5.9716,-5.9716,-5.9716,-5.9716,-5.9457,0.0,-5.8858,-5.8891,-5.8626,-5.8858,-5.8486,0.0,0.0,-5.7255,-5.7255,-5.677,-5.7482,-5.9636,-5.9716,-5.9716,-5.9716,-5.9716,-5.9241,-5.8211,-5.675,-5.5575,-5.4684,-5.3904,-5.3515,-5.3515,-5.3515,-5.3515,-5.3515,-5.3515,-5.3515,-5.3515,-5.3515,-5.3515,-5.3515,-5.3515,-5.3515,-5.3515,-5.8441,-5.8754,-5.9149,-5.9502,-5.9569,-5.97,-6.0025,-6.0405,-6.0651,-6.0651,-6.0932,-6.1318,-6.1757,-6.1792,-6.195,-6.2354,-6.1616,-6.1142,-6.1142,-6.1142,-6.1142,-6.1142,-6.1142,-6.1142,-6.1142,-6.1142,-6.1353,-6.1792,-6.2196,-6.2582,-6.2933,-6.2933,-6.3354,-6.4109,-6.4109,-6.4337,-6.4724,-6.4724,-6.4724,-6.4724,-6.4724,-6.4724,-6.4724,-6.4724,-6.4724,-6.4724,-6.4724,-6.4724,-6.4724,-6.4724,-6.4724,-6.4637,-6.4252,-6.3222,-6.2037,-6.1218,-6.0345,-5.9716,-5.9716,-5.9716,-5.9716,-5.9716,-5.9716,-5.9716,-5.9716,-5.9716,-5.9716,-5.9716,-5.9716,-5.9716,-5.9716,-5.9716,-5.9716,-5.9716,-5.8891,-5.8583,-5.9571,-5.8874,-5.8599,-5.9603,-5.9716,-5.9716,-5.9716,-5.9716,-5.9231,-5.8049,-5.7968,0.0,-5.7968,-5.7968,-5.8502,-5.9668,-5.9716,-5.9716,-5.9716,-5.9612,-5.8956,-5.7808,-5.675,-5.5774,-5.4887,-5.3904,-5.3515,-5.3515,-5.3515,-5.3515,-5.3515,-5.3515,-5.3515,-5.3515,-5.3515,-5.3515,-5.3515,-5.3515,-5.3515,-5.3515,-5.7329,-5.7891,-5.8615,-5.9114,-5.9371,-5.9641,-6.0136,-6.0949,-6.1476,-6.1476,-6.2003,-6.2441,-6.2547,-6.2564,-6.2617,-6.274,-6.274,-6.2635,-6.2406,-6.2389,-6.2389,-6.2389,-6.2389,-6.2389,-6.2389,-6.2512,-6.2564,-6.2564,-6.2687,-6.3091,-6.3758,-6.3758,-6.4109,-6.4724,-6.4724,-6.4724,-6.4724,-6.4724,-6.4724,-6.4724,-6.4724,-6.4724,-6.4724,-6.4724,-6.4724,-6.4724,-6.4724,-6.4724,-6.4724,-6.4724,-6.4637,-6.4411,-6.3716,-6.2846,-6.1896,-6.1218,-6.0345,-5.9716,-5.9716,-5.9716,-5.9716,-5.9716,-5.9716,-5.9716,-5.9716,-5.9716,-5.9716,-5.9716,-5.9716,-5.9716,-5.9716,-5.9716,-5.9603,-5.9279,-5.7968,-5.7514,-5.902,0.0,-5.766,-5.949,-5.9716,-5.9716,-5.9716,-5.9716,-5.9716,-5.9716,-5.9716,-5.9716,-5.9716,-5.9716,-5.9716,-5.9716,-5.9716,-5.9716,-5.9612,-5.9331,-5.8669,-5.7715,-5.6846,-5.5956,-5.4973,-5.4097,-5.3605,-5.3515,-5.3515,-5.3515,-5.3515,-5.3515,-5.3515,-5.3515,-5.3515,-5.3515,-5.3515,-5.3515,-5.3515,-5.3515,-5.5667,-5.5763,-5.622,-5.7379,-5.8361,-5.9364,-6.0423,-6.1506,-6.2213,-6.2213,-6.2319,-6.2652,-6.3337,-6.3407,-6.3653,-6.4302,-6.4355,-6.3793,-6.2477,-6.2389,-6.2389,-6.2389,-6.2389,-6.2389,-6.2389,-6.3056,-6.3407,-6.3407,-6.4039,-6.4425,-6.4548,-6.4548,-6.4601,-6.4724,-6.4724,-6.4724,-6.4724,-6.4724,-6.4724,-6.4724,-6.4724,-6.4724,-6.4724,-6.4724,-6.4724,-6.4724,-6.4724,-6.4724,-6.4724,-6.4724,-6.4252,-6.3626,-6.3552,-6.2462,-6.1136,-6.1069,-6.0345,-5.9716,-5.9716,-5.9716,-5.9716,-5.9716,-5.9716,-5.9716,-5.9716,-5.9716,-5.9716,-5.9716,-5.9716,-5.9716,-5.9716,-5.9716,-5.9117,-5.7288,-5.8243,-5.8696,-5.7207,0.0,-5.9344,-5.9668,-5.9716,-5.9716,-5.9716,-5.9716,-5.9716,-5.9716,-5.9716,-5.9716,-5.9716,-5.9716,-5.9716,-5.9716,-5.9716,-5.9612,-5.9331,-5.8972,-5.8776,-5.894,-5.7793,-5.6911,-5.6301,-5.526,-5.4406,-5.3515,-5.3515,-5.3515,-5.3515,-5.3515,-5.3515,-5.3515,-5.3515,-5.3515,-5.3515,-5.3515,-5.3515,-5.3515,-5.4637,-5.4968,-5.5653,-5.681,-5.7703,-5.8606,-5.9757,-6.093,-6.1823,-6.2266,-6.2701,-6.3328,-6.4076,-6.4197,-6.4337,-6.4688,-6.4724,-6.4408,-6.3688,-6.3653,-6.3653,-6.3653,-6.3653,-6.3653,-6.3653,-6.4004,-6.4197,-6.4197,-6.4548,-6.4724,-6.4724,-6.4724,-6.4724,-6.4724,-6.4724,-6.4724,-6.4637,-6.4252,-6.4022,-6.4022,-6.4022,-6.4022,-6.4093,-6.455,-6.4724,-6.4724,-6.4724,-6.4411,-6.4093,-6.4568,-6.4182,-6.3388,-6.2922,-6.229,-6.1447,-6.0584,-6.0033,-5.9716,-5.9716,-5.9716,-5.9716,-5.9716,-5.9716,-5.9716,-5.9716,-5.9716,-5.9716,-5.9716,-5.9716,-5.9716,-5.9716,-5.9716,-5.9393,-5.8389,-5.8081,-5.8032,-5.8211,-5.8081,-5.8421,-5.9571,-5.9716,-5.9716,-5.9716,-5.9716,-5.9716,-5.9716,-5.9716,-5.9716,-5.9716,-5.9716,-5.9716,-5.9716,-5.9716,-5.9524,-5.9152,-5.9062,-5.9062,-5.9168,-5.8103,-5.7228,-5.6429,-5.546,-5.4494,-5.3515,-5.3515,-5.3515,-5.3515,-5.3515,-5.3515,-5.3515,-5.3515,-5.3515,-5.3515,-5.3515,-5.3515,-5.3515,-5.3664,-5.4375,-5.522,-5.6318,-5.7086,-5.7967,-5.8993,-6.0298,-6.1443,-6.2033,-6.2787,-6.3462,-6.4076,-6.4093,-6.4093,-6.4093,-6.4323,-6.4411,-6.4411,-6.4568,-6.4724,-6.4724,-6.4724,-6.4724,-6.4724,-6.4724,-6.4724,-6.4724,-6.4481,-6.4411,-6.4411,-6.4235,-6.4093,-6.4093,-6.4093,-6.4093,-6.4093,-6.3462,-6.3222,-6.3222,-6.3222,-6.3222,-6.324,-6.3861,-6.4093,-6.4093,-6.4093,-6.3699,-6.3314,-6.3933,-6.3552,-6.277,-6.2133,-6.1816,-6.1348,-6.0103,-5.9716,-5.9716,-5.9716,-5.9716,-5.9716,-5.9716,-5.9716,-5.9716,-5.9716,-5.9716,-5.9716,-5.9716,-5.9716,-5.9716,-5.9716,-5.9716,-5.9555,-5.9053,0.0,-5.7644,-5.881,-5.7968,-5.7854,-5.9522,-5.9716,-5.9716,-5.9716,-5.9716,-5.9716,-5.9716,-5.9716,-5.9716,-5.9716,-5.9716,-5.9716,-5.9612,-5.9628,-5.9435,-5.9078,-5.9152,-5.9152,-5.9078,-5.8487,-5.7606,-5.675,-5.5857,-5.4872,-5.3904,-5.3605,-5.3515,-5.3515,-5.3515,-5.3515,-5.3515,-5.3515,-5.3515,-5.3515,-5.3515,-5.3515,-5.3515,-5.2788,-5.3387,-5.4075,-5.5019,-5.6543,-5.7985,-5.8869,-6.0421,-6.1488,-6.1551,-6.197,-6.2351,-6.2351,-6.2351,-6.2351,-6.2351,-6.3148,-6.3552,-6.3552,-6.4252,-6.4724,-6.4724,-6.4724,-6.4724,-6.4724,-6.4724,-6.4724,-6.4724,-6.3933,-6.3552,-6.3552,-6.2753,-6.2351,-6.2351,-6.2351,-6.2351,-6.2351,-6.2351,-6.2273,-6.2273,-6.2273,-6.2273,-6.2273,-6.2351,-6.2351,-6.2351,-6.2351,-6.2351,-6.2273,-6.2351,-6.1833,-6.1136,-6.1152,-6.0499,-5.9875,-5.9716,-5.9716,-5.9716,-5.9716,-5.9716,-5.9716,-5.9716,-5.9716,-5.9716,-5.9716,-5.9716,-5.9716,-5.9716,-5.9716,-5.9716,-5.9716,-5.9716,-5.9053,-5.7061,0.0,0.0,-5.6996,-5.8308,-5.9538,-5.97,-5.9716,-5.9716,-5.9716,-5.9716,-5.9716,-5.9716,-5.9716,-5.9716,-5.9716,-5.9716,-5.9612,-5.9331,-5.9314,-5.9331,-5.9241,-5.9078,-5.9078,-5.9241,-5.9225,-5.876,-5.801,-5.7007,-5.5925,-5.4887,-5.3904,-5.3515,-5.3515,-5.3515,-5.3515,-5.3515,-5.3515,-5.3515,-5.3515,-5.3515,-5.3515,-5.3515,-5.3129,-5.3672,-5.4367,-5.5149,-5.6505,-5.7592,-5.838,-5.9567,-6.0518,-6.0887,-6.1332,-6.1753,-6.2116,-6.2195,-6.2195,-6.2195,-6.2506,-6.2676,-6.2676,-6.298,-6.3608,-6.4637,-6.4724,-6.4724,-6.4724,-6.4182,-6.395,-6.395,-6.3148,-6.2676,-6.2676,-6.2351,-6.2195,-6.2195,-6.2195,-6.2195,-6.2195,-6.1673,-6.1447,-6.1447,-6.1447,-6.1447,-6.1511,-6.2054,-6.2195,-6.2195,-6.2195,-6.1896,-6.1511,-6.2037,-6.1673,-6.0986,-6.0986,-6.0752,-6.043,-5.9875,-5.9716,-5.9716,-5.9716,-5.9716,-5.9716,-5.9716,-5.9716,-5.9716,-5.9716,-5.9716,-5.9716,-5.9716,-5.9716,-5.9716,-5.9716,-5.9716,-5.9441,-5.8632,0.0,-5.9425,-5.8599,-5.9198,-5.9716,-5.9716,-5.9716,-5.9716,-5.9716,-5.9716,-5.9716,-5.9716,-5.9716,-5.9716,-5.9716,-5.9716,-5.9612,-5.9524,-5.9524,-5.9419,-5.9314,-5.9435,-5.9435,-5.9524,-5.9524,-5.9046,-5.8195,-5.7102,-5.6024,-5.5089,-5.4008,-5.3515,-5.3515,-5.3515,-5.3515,-5.3515,-5.3515,-5.3515,-5.3515,-5.3515,-5.3515,-5.3515,-5.3658,-5.4267,-5.4968,-5.567,-5.6602,-5.7475,-5.787,-5.8685,-5.9387,-5.9745,-6.0296,-6.0803,-6.1348,-6.1413,-6.143,-6.1511,-6.1736,-6.1896,-6.1896,-6.2133,-6.277,-6.3861,-6.3915,-6.3915,-6.3915,-6.3388,-6.3073,-6.3073,-6.2212,-6.1816,-6.1816,-6.1575,-6.1413,-6.1413,-6.1413,-6.1413,-6.1348,-6.082,-6.0584,-6.0584,-6.0584,-6.0584,-6.0668,-6.1185,-6.1413,-6.1413,-6.1413,-6.1036,-6.0668,-6.1185,-6.1036,-6.0584,-6.0584,-6.0584,-6.043,-5.9875,-5.9716,-5.9716,-5.9716,-5.9716,-5.9716,-5.9716,-5.9716,-5.9716,-5.9716,-5.9716,-5.9716,-5.9716,-5.9716,-5.9716,-5.9716,-5.9716,-5.9716,-5.9716,-5.9716,-5.9716,-5.9716,-5.9716,-5.9716,-5.9716,-5.9716,-5.9716,-5.9716,-5.9716,-5.9716,-5.9716,-5.9716,-5.9716,-5.9716,-5.9716,-5.9716,-5.9716,-5.9804,-5.97,-5.9419,-5.9612,-5.9716,-5.9716,-5.9716,-5.9331,-5.8578,-5.7181,-5.6204,-5.546,-5.4097,-5.3515,-5.3515,-5.3515,-5.3515,-5.3515,-5.3515,-5.3515,-5.3515,-5.3515,-5.3515,-5.3515,-5.4267,-5.4984,-5.5702,-5.6357,-5.7027,-5.748,-5.748,-5.7933,-5.8211,-5.8211,-5.8701,-5.9168,-5.9628,-5.9716,-5.9804,-6.0066,-6.0853,-6.1317,-6.1317,-6.2105,-6.2479,-6.2195,-6.2195,-6.2195,-6.2195,-6.2195,-6.2195,-6.2195,-6.1365,-6.0986,-6.0986,-6.012,-5.9716,-5.9716,-5.9716,-5.9716,-5.9716,-5.9716,-5.9716,-5.9716,-5.9716,-5.9716,-5.9716,-5.9716,-5.9716,-5.9716,-5.9716,-5.9716,-5.9716,-5.9716,-5.9716,-5.9716,-5.9716,-5.9716,-5.9716,-5.9716,-5.9716,-5.9716,-5.9716,-5.9716,-5.9716,-5.9716,-5.9716,-5.9716,-5.9716,-5.9716,-5.9716,-5.9716,-5.9716,-5.9716,-5.9716,-5.9716,-5.9716,-5.9716,-5.9716,-5.9716,-5.9716,-5.9716,-5.9716,-5.9716,-5.9716,-5.9716,-5.9716,-5.9716,-5.9716,-5.9716,-5.9716,-5.9716,-5.9716,-5.9716,-5.9716,-5.9716,-5.9979,-5.9979,-5.9716,-5.9716,-5.9716,-5.9716,-5.9716,-5.9716,-5.9612,-5.7574,-5.6592,-5.6495,-5.4377,-5.3515,-5.3515,-5.3515,-5.3515,-5.3515,-5.3515,-5.3515,-5.3515,-5.3515,-5.3515,-5.3515,-5.4725,-5.5522,-5.623,-5.6908,-5.7601,-5.8073,-5.8073,-5.8427,-5.8701,-5.8503,-5.8882,-5.9241,-5.9168,-5.9168,-5.9257,-5.9508,-5.9739,-6.0087,-6.0447,-6.0853,-6.1003,-6.092,-6.1753,-6.2195,-6.2195,-6.1673,-6.1365,-6.1365,-6.0499,-6.012,-6.012,-5.9788,-5.9716,-5.9716,-5.9716,-5.9716,-5.9716,-5.9716,-5.9716,-5.9716,-5.9716,-5.9716,-5.9716,-5.9716,-5.9716,-5.9716,-5.9716,-5.9716,-5.9716,-5.9716,-5.9716,-5.9716,-5.9716,-5.9716,-5.9716,-5.9716,-5.9716,-5.9716,-5.9716,-5.9716,-5.9716,-5.9716,-5.9716,-5.9716,-5.9716,-5.9716,-5.9716,-5.9716,-5.9716,-5.9716,-5.9716,-5.9716,-5.9716,-5.9716,-5.9716,-5.9716,-5.9716,-5.9716,-5.9716,-5.9716,-5.9716,-5.9716,-5.9716,-5.9716,-5.9716,-5.9716,-5.9716,-5.9716,-5.9716,-5.9716,-5.9804,-5.9979,-5.9892,-5.9892,-5.9979,-5.9979,-5.9892,-5.9716,-5.9716,-5.9716,-5.9612,-5.7574,-5.6592,-5.6495,-5.4377,-5.3515,-5.3515,-5.3515,-5.3515,-5.3515,-5.3515,-5.3515,-5.3515,-5.3515,-5.3515,-5.3515,-5.5367,-5.5888,-5.6489,-5.7469,-5.799,-5.8274,-5.8274,-5.855,-5.8626,-5.8518,-5.8701,-5.8882,-5.8988,-5.8988,-5.9078,-5.9419,-5.9524,-5.97,-5.9892,-6.0222,-6.0394,-6.0308,-6.1069,-6.1528,-6.1528,-6.0903,-6.06,-6.06,-6.0049,-5.9716,-5.9716,-5.9716,-5.9716,-5.9716,-5.9716,-5.9716,-5.9716,-5.9716,-5.9716,-5.9716,-5.9716,-5.9716,-5.9716,-5.9716,-5.9716,-5.9716,-5.9716,-5.9716,-5.9716,-5.9716,-5.9716,-5.9716,-5.9716,-5.9716,-5.9716,-5.9716,-5.9716,-5.9716,-5.9716,-5.9716,-5.9716,-5.9716,-5.9716,-5.9716,-5.9716,-5.9716,-5.9716,-5.9716,-5.9716,-5.9716,-5.9716,-5.9716,-5.9716,-5.9716,-5.9716,-5.9716,-5.9716,-5.9716,-5.9716,-5.9716,-5.9716,-5.9716,-5.9716,-5.9716,-5.9716,-5.9892,-5.9892,-5.9875,-5.9963,-5.9963,-6.0049,-6.0222,-6.0049,-6.0066,-6.0066,-6.0066,-5.9979,-5.9716,-5.9716,-5.9716,-5.9612,-5.7574,-5.6592,-5.6495,-5.4377,-5.3515,-5.3515,-5.3515,-5.3515,-5.3515,-5.3515,-5.3515,-5.3515,-5.3515,-5.3515,-5.3515,-5.5904,-5.6189,-5.6631,-5.8022,-5.8274,-5.8274,-5.8274,-5.8274,-5.8274,-5.8274,-5.8274,-5.8459,-5.8898,-5.8898,-5.9168,-5.9628,-5.9979,-6.0066,-5.9716,-6.0136,-6.0308,-6.0152,-6.0308,-6.0479,-6.0479,-6.0222,-6.0152,-6.0152,-5.9892,-5.9804,-5.9804,-5.9804,-5.9716,-5.9716,-5.9716,-5.9716,-5.9716,-5.9716,-5.9716,-5.9716,-5.9716,-5.9716,-5.9716,-5.9716,-5.9716,-5.9716,-5.9716,-5.9716,-5.9716,-5.9716,-5.9716,-5.9716,-5.9716,-5.9716,-5.9716,-5.9716,-5.9716,-5.9716,-5.9716,-5.9716,-5.9716,-5.9716,-5.9716,-5.9716,-5.9716,-5.9716,-5.9716,-5.9716,-5.9716,-5.9716,-5.9716,-5.9716,-5.9716,-5.9716,-5.9716,-5.9716,-5.9716,-5.9716,-5.9716,-5.9716,-5.9716,-5.9804,-5.9804,-5.9804,-5.9892,-6.0152,-6.0152,-6.0222,-6.0394,-6.0394,-6.0394,-6.0394,-6.0394,-6.0308,-6.0152,-6.0152,-5.9979,-5.9716,-5.9716,-5.9716,-5.9612,-5.7574,-5.6592,-5.6495,-5.4377,-5.3515,-5.3515,-5.3515,-5.3515,-5.3515,-5.3515,-5.3515,-5.3515,-5.3515,-5.3515,-5.3515,-5.5904,-5.6189,-5.6631,-5.8022,-5.8274,-5.8274,-5.8274,-5.8274,-5.8274,-5.8274,-5.8274,-5.8367,-5.8459,-5.8459,-5.8717,-5.9331,-5.9946,-6.0222,-6.0066,-6.0378,-6.0633,-6.0548,-6.0835,-6.0935,-6.0935,-6.0581,-6.0308,-6.0308,-6.0308,-6.0222,-6.0222,-6.0222,-6.0136,-5.9979,-5.9979,-5.9892,-5.9716,-5.9716,-5.9716,-5.9716,-5.9716,-5.9716,-5.9716,-5.9716,-5.9716,-5.9716,-5.9716,-5.9716,-5.9716,-5.9716,-5.9716,-5.9716,-5.9716,-5.9716,-5.9716,-5.9716,-5.9716,-5.9716,-5.9716,-5.9716,-5.9716,-5.9716,-5.9716,-5.9716,-5.9716,-5.9716,-5.9716,-5.9716,-5.9716,-5.9716,-5.9716,-5.9716,-5.9716,-5.9716,-5.9716,-5.9716,-5.9716,-5.9892,-5.9979,-5.9979,-6.0136,-6.0222,-6.0222,-6.0222,-6.0308,-6.0308,-6.0308,-6.0394,-6.0394,-6.0394,-6.0463,-6.0633,-6.0463,-6.0463,-6.0548,-6.0222,-5.9979,-5.9716,-5.9716,-5.9716,-5.9612,-5.7574,-5.6592,-5.6495,-5.4377,-5.3515,-5.3515,-5.3515,-5.3515,-5.3515,-5.3515,-5.3515,-5.3515,-5.3515,-5.3515,-5.3515,-5.5904,-5.6189,-5.6631,-5.8022,-5.8274,-5.8274,-5.8274,-5.8274,-5.8274,-5.8274,-5.8274,-5.8274,-5.8274,-5.8274,-5.8534,-5.9225,-5.9668,-5.9946,-6.0066,-6.0308,-6.0394,-6.0394,-6.0666,-6.075,-6.075,-6.0649,-6.0548,-6.0548,-6.0479,-6.0394,-6.0394,-6.0394,-6.0308,-6.0222,-6.0222,-6.0136,-6.0049,-6.0049,-6.0049,-6.0049,-6.0049,-6.0049,-6.0049,-5.9892,-5.9963,-5.9963,-5.9804,-5.9804,-5.9892,-5.9963,-6.0049,-6.0049,-6.0049,-6.0049,-6.0066,-5.9892,-5.9892,-5.9892,-5.9716,-5.9716,-5.9716,-5.9716,-5.9716,-5.9716,-5.9716,-5.9716,-5.9716,-5.9716,-5.9804,-5.9892,-5.9716,-5.9875,-5.9963,-5.9892,-5.9963,-6.0049,-6.0049,-6.0136,-6.0222,-6.0222,-6.0308,-6.0394,-6.0394,-6.0394,-6.0463,-6.0548,-6.0548,-6.0565,-6.075,-6.075,-6.075,-6.0919,-6.0649,-6.0548,-6.0717,-6.0394,-6.0136,-6.0049,-5.9804,-5.9716,-5.9612,-5.7574,-5.6592,-5.6495,-5.4377,-5.3515,-5.3515,-5.3515,-5.3515,-5.3515,-5.3515,-5.3515,-5.3515,-5.3515,-5.3515,-5.3515,-5.5904,-5.6189,-5.6631,-5.8022,-5.8274,-5.8274,-5.8274,-5.8274,-5.8274,-5.8274,-5.8274,-5.8274,-5.8274,-5.8367,-5.8626,-5.9152,-5.9225,-5.9419,-5.9963,-5.9963,-5.9963,-6.0066,-6.0308,-6.0394,-6.0394,-6.0548,-6.0633,-6.0717,-6.0565,-6.0479,-6.0479,-6.0479,-6.0479,-6.0463,-6.0463,-6.0479,-6.0394,-6.0394,-6.0394,-6.0394,-6.0394,-6.0394,-6.0394,-6.0222,-6.0222,-6.0394,-5.9963,-5.9979,-6.0152,-6.0308,-6.0394,-6.0394,-6.0394,-6.0394,-6.0394,-6.0222,-6.0136,-6.0066,-5.9892,-5.9804,-5.9804,-5.9804,-5.9804,-5.9804,-5.9804,-5.9716,-5.9716,-5.9804,-5.9979,-6.0066,-5.9875,-6.0136,-6.0308,-6.0152,-6.0308,-6.0394,-6.0394,-6.0479,-6.0463,-6.0463,-6.0479,-6.0479,-6.0479,-6.0479,-6.0565,-6.0734,-6.0802,-6.0902,-6.1102,-6.1102,-6.1102,-6.1102,-6.0902,-6.0802,-6.0802,-6.0565,-6.0463,-6.0479,-5.9963,-5.9804,-5.97,-5.7761,-5.6784,-5.6495,-5.4582,-5.371,-5.3515,-5.3515,-5.3515,-5.3515,-5.3515,-5.3515,-5.3515,-5.3515,-5.362,-5.3605,-5.5904,-5.6189,-5.6631,-5.8022,-5.8274,-5.8274,-5.8274,-5.8274,-5.8274,-5.8274,-5.8274,-5.8274,-5.8274,-5.8626,-5.8808,-5.8701,-5.8898,-5.9168,-5.9419,-5.9419,-5.9612,-6.0066,-6.0308,-6.0394,-6.0394,-6.0394,-6.0548,-6.0717,-6.0919,-6.1019,-6.1019,-6.1019,-6.0919,-6.0633,-6.0633,-6.0548,-6.0394,-6.0394,-6.0394,-6.0394,-6.0394,-6.0394,-6.0394,-6.0394,-6.0394,-6.0394,-6.0308,-6.0308,-6.0394,-6.0394,-6.0394,-6.0394,-6.0394,-6.0394,-6.0394,-6.0394,-6.0394,-6.0394,-6.0308,-6.0308,-6.0308,-6.0308,-6.0308,-6.0222,-6.0066,-5.9892,-5.9804,-5.9979,-6.0066,-6.0152,-6.0308,-6.0394,-6.0394,-6.0394,-6.0394,-6.0394,-6.0394,-6.0548,-6.0633,-6.0633,-6.0818,-6.1019,-6.1019,-6.1019,-6.1019,-6.1019,-6.1019,-6.1019,-6.1102,-6.1102,-6.1102,-6.1102,-6.1102,-6.1019,-6.1019,-6.0818,-6.0633,-6.0633,-6.0222,-6.0066,-5.9979,-5.8562,-5.7496,-5.6495,-5.5361,-5.4406,-5.3515,-5.3515,-5.3515,-5.3515,-5.3515,-5.3515,-5.3515,-5.3815,-5.3815,-5.3904,-5.5904,-5.6189,-5.6631,-5.8022,-5.8274,-5.8274,-5.8274,-5.8274,-5.8274,-5.8274,-5.8274,-5.8274,-5.8274,-5.8459,-5.8626,-5.8792,-5.8792,-5.8882,-5.9314,-5.9419,-5.9524,-5.9684,-6.0049,-6.0136,-6.0049,-6.0136,-6.0308,-6.0394,-6.0734,-6.0902,-6.0902,-6.1019,-6.1019,-6.0919,-6.0919,-6.0835,-6.075,-6.075,-6.075,-6.075,-6.075,-6.075,-6.075,-6.0633,-6.0649,-6.075,-6.075,-6.0565,-6.019,-6.0378,-6.0394,-6.0394,-6.0394,-6.0565,-6.075,-6.0649,-6.0548,-6.0548,-6.0479,-6.0394,-6.0394,-6.0394,-6.0394,-6.0394,-6.0308,-6.0136,-6.0049,-5.9892,-6.0066,-6.0222,-6.0222,-6.0581,-6.0734,-6.0548,-6.0649,-6.075,-6.075,-6.0835,-6.0919,-6.0919,-6.1019,-6.1102,-6.1102,-6.1102,-6.1102,-6.1102,-6.1102,-6.1102,-6.1102,-6.1102,-6.1102,-6.1102,-6.1102,-6.1102,-6.1102,-6.1002,-6.0919,-6.0919,-6.0017,-5.9476,-5.9177,-5.8071,-5.6927,-5.5743,-5.4786,-5.4112,-5.3515,-5.3515,-5.3515,-5.3515,-5.3515,-5.3515,-5.3515,-5.3605,-5.3815,-5.3904]}]]